<?xml version='1.0' encoding='UTF-8'?><gpx version="1.1" creator="JPX - https://github.com/jenetics/jpx" xmlns="http://www.topografix.com/GPX/1/1"><trk><trkseg><trkpt lat="41.77744168890606" lon="14.114093201594802"><ele>809.5</ele><time>2026-05-03T07:06:08.998Z</time></trkpt><trkpt lat="41.77745257080278" lon="14.113976986057207"><ele>809.0</ele><time>2026-05-03T07:06:41.007Z</time></trkpt><trkpt lat="41.77750125536332" lon="14.11392300247551"><ele>808.5</ele><time>2026-05-03T07:06:43.008Z</time></trkpt><trkpt lat="41.777475250654824" lon="14.113791148352268"><ele>808.0</ele><time>2026-05-03T07:06:45.004Z</time></trkpt><trkpt lat="41.777371387854664" lon="14.113769478286393"><ele>807.5</ele><time>2026-05-03T07:06:47.005Z</time></trkpt><trkpt lat="41.777308939979434" lon="14.113840428873804"><ele>807.0</ele><time>2026-05-03T07:06:48.005Z</time></trkpt><trkpt lat="41.777259202512475" lon="14.11389561558634"><ele>807.0</ele><time>2026-05-03T07:06:48.999Z</time></trkpt><trkpt lat="41.77718687558144" lon="14.113968648892266"><ele>807.0</ele><time>2026-05-03T07:06:50.006Z</time></trkpt><trkpt lat="41.77710464234798" lon="14.114024306930954"><ele>807.0</ele><time>2026-05-03T07:06:51.009Z</time></trkpt><trkpt lat="41.777034820139995" lon="14.114075307932673"><ele>807.0</ele><time>2026-05-03T07:06:52.005Z</time></trkpt><trkpt lat="41.77696234850685" lon="14.114153045610578"><ele>807.0</ele><time>2026-05-03T07:06:53.004Z</time></trkpt><trkpt lat="41.77690393941327" lon="14.114243300612628"><ele>807.0</ele><time>2026-05-03T07:06:54.01Z</time></trkpt><trkpt lat="41.77683329788019" lon="14.114330681748209"><ele>806.75</ele><time>2026-05-03T07:06:55.002Z</time></trkpt><trkpt lat="41.77675110623282" lon="14.114419166392873"><ele>806.5</ele><time>2026-05-03T07:06:56.005Z</time></trkpt><trkpt lat="41.77663235643073" lon="14.114559303828068"><ele>806.25</ele><time>2026-05-03T07:06:57.006Z</time></trkpt><trkpt lat="41.77650975722038" lon="14.114672218009733"><ele>806.0</ele><time>2026-05-03T07:06:58.001Z</time></trkpt><trkpt lat="41.77638472006828" lon="14.114793631910205"><ele>806.0</ele><time>2026-05-03T07:06:59.011Z</time></trkpt><trkpt lat="41.776253378800824" lon="14.114931456058853"><ele>806.0</ele><time>2026-05-03T07:07:00.004Z</time></trkpt><trkpt lat="41.776124299202124" lon="14.115088902268845"><ele>806.0</ele><time>2026-05-03T07:07:01.004Z</time></trkpt><trkpt lat="41.7759942701601" lon="14.115275899402878"><ele>806.0</ele><time>2026-05-03T07:07:02.007Z</time></trkpt><trkpt lat="41.77589539216114" lon="14.115460694752255"><ele>806.0</ele><time>2026-05-03T07:07:03.003Z</time></trkpt><trkpt lat="41.77580798038569" lon="14.115639977898315"><ele>806.0</ele><time>2026-05-03T07:07:04.003Z</time></trkpt><trkpt lat="41.77573478596383" lon="14.115821798784223"><ele>806.75</ele><time>2026-05-03T07:07:05.006Z</time></trkpt><trkpt lat="41.77567689523869" lon="14.115999736506936"><ele>807.5</ele><time>2026-05-03T07:07:06.005Z</time></trkpt><trkpt lat="41.77563952725675" lon="14.116185193239307"><ele>808.25</ele><time>2026-05-03T07:07:07.007Z</time></trkpt><trkpt lat="41.775632675413256" lon="14.116342750304037"><ele>809.0</ele><time>2026-05-03T07:07:08.004Z</time></trkpt><trkpt lat="41.77561869161724" lon="14.116512494056396"><ele>809.8000000000001</ele><time>2026-05-03T07:07:09.005Z</time></trkpt><trkpt lat="41.77560219880944" lon="14.116655592600841"><ele>810.6</ele><time>2026-05-03T07:07:10.005Z</time></trkpt><trkpt lat="41.77559477478214" lon="14.116793532907854"><ele>811.4</ele><time>2026-05-03T07:07:11.006Z</time></trkpt><trkpt lat="41.7755599562029" lon="14.116912466137796"><ele>812.2</ele><time>2026-05-03T07:07:12.003Z</time></trkpt><trkpt lat="41.77550068855144" lon="14.117009369326794"><ele>813.0</ele><time>2026-05-03T07:07:13.002Z</time></trkpt><trkpt lat="41.77543610001245" lon="14.117067078343348"><ele>813.0</ele><time>2026-05-03T07:07:14.008Z</time></trkpt><trkpt lat="41.77540297801691" lon="14.117237341326689"><ele>813.0</ele><time>2026-05-03T07:07:16.007Z</time></trkpt><trkpt lat="41.77548772271576" lon="14.117402994775412"><ele>813.0</ele><time>2026-05-03T07:07:18.006Z</time></trkpt><trkpt lat="41.77557161611313" lon="14.117437586769238"><ele>813.0</ele><time>2026-05-03T07:07:19Z</time></trkpt><trkpt lat="41.775636103305004" lon="14.117517573029152"><ele>812.75</ele><time>2026-05-03T07:07:20.005Z</time></trkpt><trkpt lat="41.77570938984636" lon="14.11759175665831"><ele>812.5</ele><time>2026-05-03T07:07:21.009Z</time></trkpt><trkpt lat="41.775785168774696" lon="14.11767894338738"><ele>812.25</ele><time>2026-05-03T07:07:22.01Z</time></trkpt><trkpt lat="41.775875926369785" lon="14.117805274035794"><ele>812.0</ele><time>2026-05-03T07:07:23.008Z</time></trkpt><trkpt lat="41.775977884932956" lon="14.117954082473208"><ele>812.3333333333334</ele><time>2026-05-03T07:07:24.003Z</time></trkpt><trkpt lat="41.776091708189504" lon="14.11812735879829"><ele>812.6666666666667</ele><time>2026-05-03T07:07:25.007Z</time></trkpt><trkpt lat="41.77622800640445" lon="14.118331165431936"><ele>813.0</ele><time>2026-05-03T07:07:26.005Z</time></trkpt><trkpt lat="41.776343965726745" lon="14.118511833303302"><ele>813.0</ele><time>2026-05-03T07:07:26.999Z</time></trkpt><trkpt lat="41.77647573265581" lon="14.118698986943754"><ele>813.0</ele><time>2026-05-03T07:07:28Z</time></trkpt><trkpt lat="41.77661299526755" lon="14.118899562066462"><ele>813.0</ele><time>2026-05-03T07:07:29.007Z</time></trkpt><trkpt lat="41.77675132863365" lon="14.119118033170698"><ele>813.5</ele><time>2026-05-03T07:07:29.998Z</time></trkpt><trkpt lat="41.77690480272057" lon="14.119358386535964"><ele>814.0</ele><time>2026-05-03T07:07:31Z</time></trkpt><trkpt lat="41.77705451913513" lon="14.119582659216169"><ele>814.0</ele><time>2026-05-03T07:07:32Z</time></trkpt><trkpt lat="41.77717248787163" lon="14.119764378222438"><ele>814.0</ele><time>2026-05-03T07:07:33.007Z</time></trkpt><trkpt lat="41.777269383447866" lon="14.119915542055182"><ele>814.0</ele><time>2026-05-03T07:07:33.999Z</time></trkpt><trkpt lat="41.77735644753228" lon="14.120057157122481"><ele>813.8000000000001</ele><time>2026-05-03T07:07:35.002Z</time></trkpt><trkpt lat="41.77743519491605" lon="14.120173923891484"><ele>813.6</ele><time>2026-05-03T07:07:36.004Z</time></trkpt><trkpt lat="41.7775083228646" lon="14.120266804490248"><ele>813.4</ele><time>2026-05-03T07:07:37.004Z</time></trkpt><trkpt lat="41.77759719477837" lon="14.120335599241953"><ele>813.2</ele><time>2026-05-03T07:07:38.007Z</time></trkpt><trkpt lat="41.77766841696726" lon="14.120433970215485"><ele>813.0</ele><time>2026-05-03T07:07:39.009Z</time></trkpt><trkpt lat="41.77776405384337" lon="14.120513686312606"><ele>814.0</ele><time>2026-05-03T07:07:40.011Z</time></trkpt><trkpt lat="41.777844721049405" lon="14.120627548497053"><ele>815.0</ele><time>2026-05-03T07:07:41.002Z</time></trkpt><trkpt lat="41.77791180714706" lon="14.120795883458598"><ele>816.0</ele><time>2026-05-03T07:07:42.005Z</time></trkpt><trkpt lat="41.77799182681899" lon="14.12098601051988"><ele>817.0</ele><time>2026-05-03T07:07:42.999Z</time></trkpt><trkpt lat="41.77811470102687" lon="14.121190488786"><ele>817.0</ele><time>2026-05-03T07:07:44.007Z</time></trkpt><trkpt lat="41.77825222138897" lon="14.121407361211983"><ele>817.0</ele><time>2026-05-03T07:07:44.998Z</time></trkpt><trkpt lat="41.77840937808323" lon="14.121646993083562"><ele>818.0</ele><time>2026-05-03T07:07:46.007Z</time></trkpt><trkpt lat="41.778580695850735" lon="14.121907252040096"><ele>819.0</ele><time>2026-05-03T07:07:47.007Z</time></trkpt><trkpt lat="41.778761471258214" lon="14.1221748582195"><ele>819.5</ele><time>2026-05-03T07:07:48.005Z</time></trkpt><trkpt lat="41.77891088160345" lon="14.122411743076864"><ele>820.0</ele><time>2026-05-03T07:07:48.983Z</time></trkpt><trkpt lat="41.77907383560971" lon="14.122670325688297"><ele>820.0</ele><time>2026-05-03T07:07:49.984Z</time></trkpt><trkpt lat="41.77923929235772" lon="14.12294522932471"><ele>820.0</ele><time>2026-05-03T07:07:50.985Z</time></trkpt><trkpt lat="41.7794127171684" lon="14.123218587624594"><ele>821.5</ele><time>2026-05-03T07:07:51.986Z</time></trkpt><trkpt lat="41.77959276821801" lon="14.123492202520387"><ele>823.0</ele><time>2026-05-03T07:07:52.987Z</time></trkpt><trkpt lat="41.77975602825318" lon="14.123740323549702"><ele>823.0</ele><time>2026-05-03T07:07:53.988Z</time></trkpt><trkpt lat="41.77990161458511" lon="14.123965904237727"><ele>823.0</ele><time>2026-05-03T07:07:54.989Z</time></trkpt><trkpt lat="41.78002588999461" lon="14.12417741642427"><ele>823.0</ele><time>2026-05-03T07:07:55.99Z</time></trkpt><trkpt lat="41.780142739078464" lon="14.124372901538866"><ele>822.75</ele><time>2026-05-03T07:07:56.99Z</time></trkpt><trkpt lat="41.780244161212735" lon="14.124527157499925"><ele>822.5</ele><time>2026-05-03T07:07:57.991Z</time></trkpt><trkpt lat="41.780341160181386" lon="14.124666455775358"><ele>822.25</ele><time>2026-05-03T07:07:58.992Z</time></trkpt><trkpt lat="41.78043870618389" lon="14.124797089044929"><ele>822.0</ele><time>2026-05-03T07:07:59.992Z</time></trkpt><trkpt lat="41.78052029526635" lon="14.124933890031548"><ele>822.0</ele><time>2026-05-03T07:08:00.993Z</time></trkpt><trkpt lat="41.78060108870324" lon="14.125047816578038"><ele>822.0</ele><time>2026-05-03T07:08:01.993Z</time></trkpt><trkpt lat="41.78068121930216" lon="14.12517824212729"><ele>822.0</ele><time>2026-05-03T07:08:02.994Z</time></trkpt><trkpt lat="41.780749685148166" lon="14.125281841254644"><ele>822.0</ele><time>2026-05-03T07:08:03.994Z</time></trkpt><trkpt lat="41.78081989578424" lon="14.125386111403763"><ele>822.0</ele><time>2026-05-03T07:08:04.994Z</time></trkpt><trkpt lat="41.7808813984649" lon="14.125486293144805"><ele>822.0</ele><time>2026-05-03T07:08:05.995Z</time></trkpt><trkpt lat="41.780941431305955" lon="14.125563825540008"><ele>822.0</ele><time>2026-05-03T07:08:06.995Z</time></trkpt><trkpt lat="41.7810205398232" lon="14.125692609739328"><ele>822.0</ele><time>2026-05-03T07:08:08.996Z</time></trkpt><trkpt lat="41.781044648513834" lon="14.125782501710926"><ele>822.0</ele><time>2026-05-03T07:08:09.996Z</time></trkpt><trkpt lat="41.78107067049871" lon="14.125871812822247"><ele>822.0</ele><time>2026-05-03T07:08:10.996Z</time></trkpt><trkpt lat="41.78118258213306" lon="14.125933434910698"><ele>822.3333333333334</ele><time>2026-05-03T07:08:12.997Z</time></trkpt><trkpt lat="41.78124195204024" lon="14.125878253874438"><ele>822.6666666666667</ele><time>2026-05-03T07:08:13.997Z</time></trkpt><trkpt lat="41.78127193866743" lon="14.125792758595264"><ele>823.0</ele><time>2026-05-03T07:08:14.997Z</time></trkpt><trkpt lat="41.7812886824185" lon="14.125668031499847"><ele>823.3333333333334</ele><time>2026-05-03T07:08:15.997Z</time></trkpt><trkpt lat="41.781288959199316" lon="14.125562619885407"><ele>823.6666666666667</ele><time>2026-05-03T07:08:16.998Z</time></trkpt><trkpt lat="41.781376523870236" lon="14.125513934649366"><ele>824.0</ele><time>2026-05-03T07:08:17.998Z</time></trkpt><trkpt lat="41.78144416477716" lon="14.125459202646352"><ele>824.75</ele><time>2026-05-03T07:08:18.998Z</time></trkpt><trkpt lat="41.78152551977055" lon="14.125393685488033"><ele>825.5</ele><time>2026-05-03T07:08:19.998Z</time></trkpt><trkpt lat="41.781618969483276" lon="14.12529236807616"><ele>826.25</ele><time>2026-05-03T07:08:20.998Z</time></trkpt><trkpt lat="41.78174497146465" lon="14.125211462721012"><ele>827.0</ele><time>2026-05-03T07:08:21.998Z</time></trkpt><trkpt lat="41.781887293577945" lon="14.125086692047605"><ele>830.0</ele><time>2026-05-03T07:08:22.998Z</time></trkpt><trkpt lat="41.78202750640819" lon="14.124927699620544"><ele>833.0</ele><time>2026-05-03T07:08:23.999Z</time></trkpt><trkpt lat="41.78217451910928" lon="14.124799146136997"><ele>836.0</ele><time>2026-05-03T07:08:24.999Z</time></trkpt><trkpt lat="41.78232148402726" lon="14.12470501056944"><ele>838.0</ele><time>2026-05-03T07:08:25.999Z</time></trkpt><trkpt lat="41.78246842299308" lon="14.124584021669616"><ele>840.0</ele><time>2026-05-03T07:08:26.999Z</time></trkpt><trkpt lat="41.782632733728185" lon="14.124477240965492"><ele>842.0</ele><time>2026-05-03T07:08:27.999Z</time></trkpt><trkpt lat="41.7828017101057" lon="14.12436119582042"><ele>845.0</ele><time>2026-05-03T07:08:28.999Z</time></trkpt><trkpt lat="41.78295211397398" lon="14.12424540539783"><ele>848.0</ele><time>2026-05-03T07:08:29.999Z</time></trkpt><trkpt lat="41.78309709329895" lon="14.124107041861725"><ele>851.0</ele><time>2026-05-03T07:08:30.999Z</time></trkpt><trkpt lat="41.78321901171411" lon="14.123977745283252"><ele>851.0</ele><time>2026-05-03T07:08:31.999Z</time></trkpt><trkpt lat="41.78333057346209" lon="14.12388373600378"><ele>851.0</ele><time>2026-05-03T07:08:32.999Z</time></trkpt><trkpt lat="41.783428027172214" lon="14.123803814257716"><ele>851.0</ele><time>2026-05-03T07:08:33.999Z</time></trkpt><trkpt lat="41.78355040551124" lon="14.123738885563736"><ele>851.0</ele><time>2026-05-03T07:08:34.999Z</time></trkpt><trkpt lat="41.78365227496001" lon="14.123640130927633"><ele>852.75</ele><time>2026-05-03T07:08:35.999Z</time></trkpt><trkpt lat="41.78378151460877" lon="14.123532929645094"><ele>854.5</ele><time>2026-05-03T07:08:36.999Z</time></trkpt><trkpt lat="41.78390095628978" lon="14.123440027915604"><ele>856.25</ele><time>2026-05-03T07:08:37.999Z</time></trkpt><trkpt lat="41.78401455928191" lon="14.123339246953732"><ele>858.0</ele><time>2026-05-03T07:08:38.999Z</time></trkpt><trkpt lat="41.78413095256105" lon="14.123223912147063"><ele>859.25</ele><time>2026-05-03T07:08:39.999Z</time></trkpt><trkpt lat="41.78423631166675" lon="14.123049578477005"><ele>860.5</ele><time>2026-05-03T07:08:40.999Z</time></trkpt><trkpt lat="41.78433065846792" lon="14.122889451519839"><ele>861.75</ele><time>2026-05-03T07:08:42Z</time></trkpt><trkpt lat="41.78440974766251" lon="14.122762028158293"><ele>863.0</ele><time>2026-05-03T07:08:43Z</time></trkpt><trkpt lat="41.78445655302604" lon="14.122643188472944"><ele>865.0</ele><time>2026-05-03T07:08:44Z</time></trkpt><trkpt lat="41.784485160388094" lon="14.12250356923272"><ele>867.0</ele><time>2026-05-03T07:08:45Z</time></trkpt><trkpt lat="41.7845107735056" lon="14.122375735242365"><ele>869.0</ele><time>2026-05-03T07:08:46Z</time></trkpt><trkpt lat="41.78446734189617" lon="14.122254640651795"><ele>871.0</ele><time>2026-05-03T07:08:47Z</time></trkpt><trkpt lat="41.784474978555316" lon="14.122132270390708"><ele>873.0</ele><time>2026-05-03T07:08:48Z</time></trkpt><trkpt lat="41.78448324300427" lon="14.122035321446669"><ele>875.2</ele><time>2026-05-03T07:08:49Z</time></trkpt><trkpt lat="41.784532275073126" lon="14.121960534453999"><ele>877.4</ele><time>2026-05-03T07:08:50Z</time></trkpt><trkpt lat="41.78459969408439" lon="14.121846577884087"><ele>879.6000000000001</ele><time>2026-05-03T07:08:51Z</time></trkpt><trkpt lat="41.78463382984589" lon="14.12168899733624"><ele>881.8000000000001</ele><time>2026-05-03T07:08:52Z</time></trkpt><trkpt lat="41.784704088563245" lon="14.121565934148439"><ele>884.0</ele><time>2026-05-03T07:08:53Z</time></trkpt><trkpt lat="41.78478690194496" lon="14.121446197361172"><ele>886.4000000000001</ele><time>2026-05-03T07:08:54Z</time></trkpt><trkpt lat="41.784855447544736" lon="14.121310156842343"><ele>888.8000000000001</ele><time>2026-05-03T07:08:55Z</time></trkpt><trkpt lat="41.78493357241142" lon="14.121179501265509"><ele>891.1999999999999</ele><time>2026-05-03T07:08:56Z</time></trkpt><trkpt lat="41.78498318059399" lon="14.121097704822459"><ele>893.5999999999999</ele><time>2026-05-03T07:08:57Z</time></trkpt><trkpt lat="41.78496011688316" lon="14.121000500449046"><ele>896.0</ele><time>2026-05-03T07:08:58Z</time></trkpt><trkpt lat="41.78493305137505" lon="14.120904104324882"><ele>896.0</ele><time>2026-05-03T07:08:59Z</time></trkpt><trkpt lat="41.784942353961526" lon="14.12078607359106"><ele>895.9999999999999</ele><time>2026-05-03T07:09:00Z</time></trkpt><trkpt lat="41.78494288682331" lon="14.120659853433573"><ele>895.9999999999999</ele><time>2026-05-03T07:09:01Z</time></trkpt><trkpt lat="41.78495077376308" lon="14.120511575321828"><ele>896.0</ele><time>2026-05-03T07:09:02Z</time></trkpt><trkpt lat="41.784967009907945" lon="14.120345150510458"><ele>896.0</ele><time>2026-05-03T07:09:03Z</time></trkpt><trkpt lat="41.7849912425116" lon="14.120196783300187"><ele>899.3333333333334</ele><time>2026-05-03T07:09:04Z</time></trkpt><trkpt lat="41.7850187247294" lon="14.120023139058096"><ele>902.6666666666667</ele><time>2026-05-03T07:09:05Z</time></trkpt><trkpt lat="41.78502849823426" lon="14.119801777409725"><ele>906.0</ele><time>2026-05-03T07:09:06Z</time></trkpt><trkpt lat="41.78505593123743" lon="14.119561407948227"><ele>909.0</ele><time>2026-05-03T07:09:07Z</time></trkpt><trkpt lat="41.78511507582097" lon="14.119383607127242"><ele>912.0</ele><time>2026-05-03T07:09:08Z</time></trkpt><trkpt lat="41.7851288038284" lon="14.119185041065476"><ele>915.0</ele><time>2026-05-03T07:09:09Z</time></trkpt><trkpt lat="41.78515154815954" lon="14.118970187981523"><ele>918.8</ele><time>2026-05-03T07:09:10Z</time></trkpt><trkpt lat="41.78518542436185" lon="14.118790822474494"><ele>922.6</ele><time>2026-05-03T07:09:11Z</time></trkpt><trkpt lat="41.78518700401369" lon="14.118626508246694"><ele>926.4000000000001</ele><time>2026-05-03T07:09:12Z</time></trkpt><trkpt lat="41.785218585139106" lon="14.118514780170832"><ele>930.2</ele><time>2026-05-03T07:09:13Z</time></trkpt><trkpt lat="41.78524467661672" lon="14.118415865086106"><ele>934.0</ele><time>2026-05-03T07:09:14Z</time></trkpt><trkpt lat="41.78528203954112" lon="14.118326898289917"><ele>934.0</ele><time>2026-05-03T07:09:15Z</time></trkpt><trkpt lat="41.7853375499828" lon="14.118251564422192"><ele>934.0000000000001</ele><time>2026-05-03T07:09:16Z</time></trkpt><trkpt lat="41.78540422373298" lon="14.118194359565667"><ele>934.0000000000001</ele><time>2026-05-03T07:09:17Z</time></trkpt><trkpt lat="41.785480260290036" lon="14.118150758083766"><ele>934.0</ele><time>2026-05-03T07:09:18Z</time></trkpt><trkpt lat="41.7855800869255" lon="14.118096559512402"><ele>934.0</ele><time>2026-05-03T07:09:19Z</time></trkpt><trkpt lat="41.78569400039048" lon="14.118030698031129"><ele>933.75</ele><time>2026-05-03T07:09:20Z</time></trkpt><trkpt lat="41.78581961587407" lon="14.117923209940821"><ele>933.5</ele><time>2026-05-03T07:09:21Z</time></trkpt><trkpt lat="41.785966003716716" lon="14.11784726542641"><ele>933.25</ele><time>2026-05-03T07:09:22Z</time></trkpt><trkpt lat="41.78608133164781" lon="14.117778730216726"><ele>933.0</ele><time>2026-05-03T07:09:23Z</time></trkpt><trkpt lat="41.786183113516756" lon="14.117704922098277"><ele>933.3333333333334</ele><time>2026-05-03T07:09:24Z</time></trkpt><trkpt lat="41.78627007776049" lon="14.117662489912405"><ele>933.6666666666667</ele><time>2026-05-03T07:09:25Z</time></trkpt><trkpt lat="41.78634199754109" lon="14.117621253843097"><ele>934.0</ele><time>2026-05-03T07:09:26Z</time></trkpt><trkpt lat="41.78640774062721" lon="14.11760840025248"><ele>934.3333333333334</ele><time>2026-05-03T07:09:26.999Z</time></trkpt><trkpt lat="41.786513322063435" lon="14.117565891126738"><ele>934.6666666666667</ele><time>2026-05-03T07:09:28.999Z</time></trkpt><trkpt lat="41.78659006435203" lon="14.117586958392323"><ele>935.0</ele><time>2026-05-03T07:09:29.999Z</time></trkpt><trkpt lat="41.78669284285455" lon="14.117618299333992"><ele>935.0</ele><time>2026-05-03T07:09:30.999Z</time></trkpt><trkpt lat="41.78684034581806" lon="14.117651784932812"><ele>935.0</ele><time>2026-05-03T07:09:31.999Z</time></trkpt><trkpt lat="41.78703984666838" lon="14.117713100316873"><ele>935.0</ele><time>2026-05-03T07:09:32.999Z</time></trkpt><trkpt lat="41.78724485075573" lon="14.117771203898462"><ele>933.0</ele><time>2026-05-03T07:09:33.999Z</time></trkpt><trkpt lat="41.78742723374072" lon="14.1178250383295"><ele>931.0</ele><time>2026-05-03T07:09:34.999Z</time></trkpt><trkpt lat="41.78757213859705" lon="14.117846430146747"><ele>929.0</ele><time>2026-05-03T07:09:35.999Z</time></trkpt><trkpt lat="41.78768928975572" lon="14.117851611775068"><ele>929.0</ele><time>2026-05-03T07:09:36.999Z</time></trkpt><trkpt lat="41.78778692150397" lon="14.117855398921595"><ele>929.0000000000001</ele><time>2026-05-03T07:09:37.999Z</time></trkpt><trkpt lat="41.787884795254186" lon="14.11786467031281"><ele>929.0000000000001</ele><time>2026-05-03T07:09:38.999Z</time></trkpt><trkpt lat="41.78799387546096" lon="14.117899664574681"><ele>929.0</ele><time>2026-05-03T07:09:39.999Z</time></trkpt><trkpt lat="41.7881225269399" lon="14.117917476305497"><ele>929.0</ele><time>2026-05-03T07:09:40.999Z</time></trkpt><trkpt lat="41.78822140074578" lon="14.11791125799518"><ele>929.0000000000001</ele><time>2026-05-03T07:09:41.999Z</time></trkpt><trkpt lat="41.78830702012164" lon="14.117922017675209"><ele>929.0</ele><time>2026-05-03T07:09:42.999Z</time></trkpt><trkpt lat="41.7883771466168" lon="14.117934643830836"><ele>929.0</ele><time>2026-05-03T07:09:43.999Z</time></trkpt><trkpt lat="41.78844338246718" lon="14.11792422964146"><ele>929.0</ele><time>2026-05-03T07:09:44.999Z</time></trkpt><trkpt lat="41.788528301911" lon="14.11781793963841"><ele>929.0000000000001</ele><time>2026-05-03T07:09:46.999Z</time></trkpt><trkpt lat="41.788560418398404" lon="14.117706988632321"><ele>929.0</ele><time>2026-05-03T07:09:47.999Z</time></trkpt><trkpt lat="41.78858510785172" lon="14.117566582925019"><ele>927.3333333333334</ele><time>2026-05-03T07:09:48.999Z</time></trkpt><trkpt lat="41.788596411208076" lon="14.117388142217186"><ele>925.6666666666667</ele><time>2026-05-03T07:09:49.999Z</time></trkpt><trkpt lat="41.78859417020373" lon="14.117169949542618"><ele>924.0</ele><time>2026-05-03T07:09:50.999Z</time></trkpt><trkpt lat="41.78859775386453" lon="14.116948761791711"><ele>924.0</ele><time>2026-05-03T07:09:51.999Z</time></trkpt><trkpt lat="41.788596631286175" lon="14.116750303152584"><ele>924.0</ele><time>2026-05-03T07:09:52.999Z</time></trkpt><trkpt lat="41.78857753325172" lon="14.116596014410012"><ele>924.0</ele><time>2026-05-03T07:09:53.999Z</time></trkpt><trkpt lat="41.788552381835174" lon="14.11645847175593"><ele>924.0</ele><time>2026-05-03T07:09:55.001Z</time></trkpt><trkpt lat="41.78852802748457" lon="14.116343922237046"><ele>924.8000000000001</ele><time>2026-05-03T07:09:56.001Z</time></trkpt><trkpt lat="41.78850699217901" lon="14.116251485105952"><ele>925.6000000000001</ele><time>2026-05-03T07:09:57.001Z</time></trkpt><trkpt lat="41.788477639407084" lon="14.11616711689059"><ele>926.4</ele><time>2026-05-03T07:09:58.001Z</time></trkpt><trkpt lat="41.788427143954145" lon="14.116073913246101"><ele>927.2</ele><time>2026-05-03T07:09:59.001Z</time></trkpt><trkpt lat="41.78831629120795" lon="14.116016834061725"><ele>928.0</ele><time>2026-05-03T07:10:00.001Z</time></trkpt><trkpt lat="41.78824093462746" lon="14.115909239885312"><ele>928.0</ele><time>2026-05-03T07:10:01.001Z</time></trkpt><trkpt lat="41.78816383478554" lon="14.115818446816474"><ele>928.0</ele><time>2026-05-03T07:10:02.001Z</time></trkpt><trkpt lat="41.788072815890544" lon="14.115740099496941"><ele>928.0</ele><time>2026-05-03T07:10:03.001Z</time></trkpt><trkpt lat="41.78799122331885" lon="14.115630589238778"><ele>928.0</ele><time>2026-05-03T07:10:04.001Z</time></trkpt><trkpt lat="41.787904603656536" lon="14.115524810064919"><ele>928.0</ele><time>2026-05-03T07:10:05.001Z</time></trkpt><trkpt lat="41.787809362768684" lon="14.115412661671487"><ele>928.75</ele><time>2026-05-03T07:10:06.001Z</time></trkpt><trkpt lat="41.787706432140475" lon="14.115286636849174"><ele>929.5</ele><time>2026-05-03T07:10:07.001Z</time></trkpt><trkpt lat="41.78760761399751" lon="14.115159526626885"><ele>930.25</ele><time>2026-05-03T07:10:08Z</time></trkpt><trkpt lat="41.787521112334716" lon="14.11502161196778"><ele>931.0</ele><time>2026-05-03T07:10:09Z</time></trkpt><trkpt lat="41.78744766808728" lon="14.114909268472099"><ele>925.0</ele><time>2026-05-03T07:10:10Z</time></trkpt><trkpt lat="41.787371986161006" lon="14.114759660104419"><ele>919.0</ele><time>2026-05-03T07:10:11Z</time></trkpt><trkpt lat="41.78730950549202" lon="14.114598273214881"><ele>913.0</ele><time>2026-05-03T07:10:12Z</time></trkpt><trkpt lat="41.78724850615683" lon="14.114430456838068"><ele>907.0</ele><time>2026-05-03T07:10:13Z</time></trkpt><trkpt lat="41.78719269261775" lon="14.114281037626162"><ele>907.0</ele><time>2026-05-03T07:10:14Z</time></trkpt><trkpt lat="41.787138692457" lon="14.114118432503057"><ele>907.0</ele><time>2026-05-03T07:10:15Z</time></trkpt><trkpt lat="41.787098957142916" lon="14.113960257202411"><ele>907.0</ele><time>2026-05-03T07:10:16Z</time></trkpt><trkpt lat="41.78706476416171" lon="14.11378371971414"><ele>907.0</ele><time>2026-05-03T07:10:17Z</time></trkpt><trkpt lat="41.787041767480105" lon="14.11360126598064"><ele>907.25</ele><time>2026-05-03T07:10:18Z</time></trkpt><trkpt lat="41.787029013778735" lon="14.113404860732961"><ele>907.5</ele><time>2026-05-03T07:10:19Z</time></trkpt><trkpt lat="41.787023988868896" lon="14.113202403536647"><ele>907.75</ele><time>2026-05-03T07:10:20Z</time></trkpt><trkpt lat="41.787018959822454" lon="14.113000459690744"><ele>908.0</ele><time>2026-05-03T07:10:21Z</time></trkpt><trkpt lat="41.787014853515295" lon="14.112773457685675"><ele>909.5</ele><time>2026-05-03T07:10:22Z</time></trkpt><trkpt lat="41.78700652525722" lon="14.112569813412595"><ele>911.0</ele><time>2026-05-03T07:10:23Z</time></trkpt><trkpt lat="41.78700358781531" lon="14.112382178374244"><ele>912.5</ele><time>2026-05-03T07:10:24Z</time></trkpt><trkpt lat="41.78700502675566" lon="14.112191226260215"><ele>914.0</ele><time>2026-05-03T07:10:25Z</time></trkpt><trkpt lat="41.787005064196556" lon="14.111963226865717"><ele>913.6666666666667</ele><time>2026-05-03T07:10:26Z</time></trkpt><trkpt lat="41.78693123323688" lon="14.111713684232909"><ele>913.3333333333333</ele><time>2026-05-03T07:10:27Z</time></trkpt><trkpt lat="41.78696609939821" lon="14.111436972613095"><ele>913.0</ele><time>2026-05-03T07:10:28Z</time></trkpt><trkpt lat="41.786932619920805" lon="14.1112223677488"><ele>913.0</ele><time>2026-05-03T07:10:29Z</time></trkpt><trkpt lat="41.786888660227774" lon="14.111034904704013"><ele>913.0</ele><time>2026-05-03T07:10:30Z</time></trkpt><trkpt lat="41.78685894070167" lon="14.110845606622695"><ele>913.0</ele><time>2026-05-03T07:10:31Z</time></trkpt><trkpt lat="41.78684889640778" lon="14.110680359833635"><ele>913.0</ele><time>2026-05-03T07:10:32Z</time></trkpt><trkpt lat="41.78686688742483" lon="14.11054296352246"><ele>907.5999999999999</ele><time>2026-05-03T07:10:33Z</time></trkpt><trkpt lat="41.786896799340184" lon="14.110414248119918"><ele>902.1999999999999</ele><time>2026-05-03T07:10:34Z</time></trkpt><trkpt lat="41.78694911153131" lon="14.110304234871853"><ele>896.8</ele><time>2026-05-03T07:10:35Z</time></trkpt><trkpt lat="41.787022843342726" lon="14.110201269082811"><ele>891.4</ele><time>2026-05-03T07:10:36Z</time></trkpt><trkpt lat="41.78712378411231" lon="14.11009988130361"><ele>886.0</ele><time>2026-05-03T07:10:37Z</time></trkpt><trkpt lat="41.78721537723931" lon="14.109952401600871"><ele>883.8</ele><time>2026-05-03T07:10:38Z</time></trkpt><trkpt lat="41.78729933302353" lon="14.10985007030286"><ele>881.5999999999999</ele><time>2026-05-03T07:10:39Z</time></trkpt><trkpt lat="41.787392669136956" lon="14.109756821962002"><ele>879.4</ele><time>2026-05-03T07:10:40Z</time></trkpt><trkpt lat="41.787454223266515" lon="14.109673124784369"><ele>877.2</ele><time>2026-05-03T07:10:41Z</time></trkpt><trkpt lat="41.787520115605425" lon="14.10960301965236"><ele>875.0</ele><time>2026-05-03T07:10:42Z</time></trkpt><trkpt lat="41.78760841031359" lon="14.109478899115432"><ele>875.0</ele><time>2026-05-03T07:10:44Z</time></trkpt><trkpt lat="41.78766782754193" lon="14.109342615386339"><ele>875.0</ele><time>2026-05-03T07:10:45.999Z</time></trkpt><trkpt lat="41.787685831544415" lon="14.109170245843334"><ele>875.0</ele><time>2026-05-03T07:10:47.999Z</time></trkpt><trkpt lat="41.787699714106324" lon="14.109076091598256"><ele>875.0</ele><time>2026-05-03T07:10:48.999Z</time></trkpt><trkpt lat="41.78770439593984" lon="14.108902569889155"><ele>875.0</ele><time>2026-05-03T07:10:50.999Z</time></trkpt><trkpt lat="41.78766831057434" lon="14.108832503297139"><ele>873.0000000000001</ele><time>2026-05-03T07:10:51.999Z</time></trkpt><trkpt lat="41.78762662809981" lon="14.108762261718557"><ele>871.0</ele><time>2026-05-03T07:10:52.999Z</time></trkpt><trkpt lat="41.78757525547286" lon="14.108698915330521"><ele>869.0</ele><time>2026-05-03T07:10:53.999Z</time></trkpt><trkpt lat="41.78751315887479" lon="14.108657248063887"><ele>867.0</ele><time>2026-05-03T07:10:54.999Z</time></trkpt><trkpt lat="41.78744503866863" lon="14.108642951212886"><ele>865.0000000000001</ele><time>2026-05-03T07:10:55.999Z</time></trkpt><trkpt lat="41.787331145574576" lon="14.108614451643168"><ele>863.0</ele><time>2026-05-03T07:10:57.999Z</time></trkpt><trkpt lat="41.78722765539926" lon="14.108570835168841"><ele>863.0</ele><time>2026-05-03T07:10:59.999Z</time></trkpt><trkpt lat="41.7871433932423" lon="14.1085200660185"><ele>863.0</ele><time>2026-05-03T07:11:01.999Z</time></trkpt><trkpt lat="41.78708067074255" lon="14.108496762053646"><ele>863.0</ele><time>2026-05-03T07:11:03.999Z</time></trkpt><trkpt lat="41.78709653636638" lon="14.108331433054346"><ele>863.0</ele><time>2026-05-03T07:11:06.999Z</time></trkpt><trkpt lat="41.78710992297767" lon="14.10820609182245"><ele>863.0</ele><time>2026-05-03T07:11:08.999Z</time></trkpt><trkpt lat="41.787141416233865" lon="14.108086598080376"><ele>859.5999999999999</ele><time>2026-05-03T07:11:10.999Z</time></trkpt><trkpt lat="41.78721646323763" lon="14.107973406730107"><ele>856.1999999999999</ele><time>2026-05-03T07:11:12.999Z</time></trkpt><trkpt lat="41.787282381495615" lon="14.10790712839437"><ele>852.8</ele><time>2026-05-03T07:11:14.999Z</time></trkpt><trkpt lat="41.78735541525839" lon="14.107849795265023"><ele>849.4</ele><time>2026-05-03T07:11:16.999Z</time></trkpt><trkpt lat="41.78746992953997" lon="14.10795045131146"><ele>846.0</ele><time>2026-05-03T07:11:18.999Z</time></trkpt><trkpt lat="41.78752988570021" lon="14.108001787248156"><ele>846.0</ele><time>2026-05-03T07:11:19.999Z</time></trkpt><trkpt lat="41.78759753977947" lon="14.108042091871921"><ele>846.0</ele><time>2026-05-03T07:11:20.999Z</time></trkpt><trkpt lat="41.787672370828524" lon="14.108123311863993"><ele>846.0</ele><time>2026-05-03T07:11:22.999Z</time></trkpt><trkpt lat="41.78764468593758" lon="14.107898164937346"><ele>846.0</ele><time>2026-05-03T07:11:27.999Z</time></trkpt><trkpt lat="41.78755491906609" lon="14.10780221877887"><ele>846.0</ele><time>2026-05-03T07:11:29.999Z</time></trkpt><trkpt lat="41.78750383411021" lon="14.107746214747408"><ele>846.0</ele><time>2026-05-03T07:11:30.999Z</time></trkpt><trkpt lat="41.787422072407594" lon="14.107661642691808"><ele>846.0</ele><time>2026-05-03T07:11:32.999Z</time></trkpt><trkpt lat="41.78735778410789" lon="14.107569835178102"><ele>846.0</ele><time>2026-05-03T07:11:34.999Z</time></trkpt><trkpt lat="41.787374350570474" lon="14.107466797197784"><ele>846.0</ele><time>2026-05-03T07:11:36.999Z</time></trkpt><trkpt lat="41.787509914524236" lon="14.107522371378774"><ele>846.0</ele><time>2026-05-03T07:11:38.999Z</time></trkpt><trkpt lat="41.78760372392769" lon="14.107607331763875"><ele>846.0</ele><time>2026-05-03T07:11:39.999Z</time></trkpt><trkpt lat="41.78767873824924" lon="14.107670239379402"><ele>846.0</ele><time>2026-05-03T07:11:40.999Z</time></trkpt><trkpt lat="41.787736238482566" lon="14.107716150540497"><ele>846.0</ele><time>2026-05-03T07:11:41.999Z</time></trkpt><trkpt lat="41.7878233658707" lon="14.107793985746333"><ele>846.0</ele><time>2026-05-03T07:11:43.999Z</time></trkpt><trkpt lat="41.78778876344152" lon="14.107598696944695"><ele>846.0</ele><time>2026-05-03T07:11:49.999Z</time></trkpt><trkpt lat="41.787723753024146" lon="14.107546794451883"><ele>846.0</ele><time>2026-05-03T07:11:50.998Z</time></trkpt><trkpt lat="41.787653553851996" lon="14.10747662677055"><ele>846.0</ele><time>2026-05-03T07:11:51.998Z</time></trkpt><trkpt lat="41.7876140878378" lon="14.10741080614447"><ele>846.0</ele><time>2026-05-03T07:11:52.998Z</time></trkpt><trkpt lat="41.78755606922439" lon="14.107315607904926"><ele>846.0</ele><time>2026-05-03T07:11:55.998Z</time></trkpt><trkpt lat="41.787707687606954" lon="14.107180473560842"><ele>841.5</ele><time>2026-05-03T07:11:59.998Z</time></trkpt><trkpt lat="41.787767162425965" lon="14.107152169131563"><ele>837.0</ele><time>2026-05-03T07:12:01Z</time></trkpt><trkpt lat="41.787828867164386" lon="14.107122809722654"><ele>832.5</ele><time>2026-05-03T07:12:02Z</time></trkpt><trkpt lat="41.78793027003366" lon="14.10708830754641"><ele>828.0</ele><time>2026-05-03T07:12:04Z</time></trkpt><trkpt lat="41.7879880257767" lon="14.107037450783904"><ele>823.5</ele><time>2026-05-03T07:12:05Z</time></trkpt><trkpt lat="41.788037430959626" lon="14.106979453788313"><ele>819.0</ele><time>2026-05-03T07:12:06Z</time></trkpt><trkpt lat="41.78812897858577" lon="14.106875420504021"><ele>819.0</ele><time>2026-05-03T07:12:08Z</time></trkpt><trkpt lat="41.78821892128768" lon="14.106803833013277"><ele>819.0</ele><time>2026-05-03T07:12:10Z</time></trkpt><trkpt lat="41.788352272381864" lon="14.106799490862723"><ele>819.0</ele><time>2026-05-03T07:12:12Z</time></trkpt><trkpt lat="41.78839173897511" lon="14.106705115063097"><ele>819.0</ele><time>2026-05-03T07:12:14Z</time></trkpt><trkpt lat="41.78846171605558" lon="14.106670095254222"><ele>819.0</ele><time>2026-05-03T07:12:16Z</time></trkpt><trkpt lat="41.78852530228582" lon="14.106655851930196"><ele>818.4285714285714</ele><time>2026-05-03T07:12:18Z</time></trkpt><trkpt lat="41.78858781313868" lon="14.10662979612965"><ele>817.8571428571429</ele><time>2026-05-03T07:12:20Z</time></trkpt><trkpt lat="41.788627732828026" lon="14.10655970662694"><ele>817.2857142857142</ele><time>2026-05-03T07:12:22Z</time></trkpt><trkpt lat="41.78860148885038" lon="14.106463663812807"><ele>816.7142857142858</ele><time>2026-05-03T07:12:25Z</time></trkpt><trkpt lat="41.788545893140615" lon="14.106374645963392"><ele>816.1428571428571</ele><time>2026-05-03T07:12:28Z</time></trkpt><trkpt lat="41.788502447050185" lon="14.106310540394656"><ele>815.5714285714286</ele><time>2026-05-03T07:12:30Z</time></trkpt><trkpt lat="41.78845375122586" lon="14.106253469420336"><ele>815.0</ele><time>2026-05-03T07:12:32Z</time></trkpt><trkpt lat="41.78838811557911" lon="14.106167852621734"><ele>813.3333333333334</ele><time>2026-05-03T07:12:35Z</time></trkpt><trkpt lat="41.78832374021507" lon="14.106123530093628"><ele>811.6666666666667</ele><time>2026-05-03T07:12:38Z</time></trkpt><trkpt lat="41.78826032837124" lon="14.106103269856177"><ele>810.0</ele><time>2026-05-03T07:12:44Z</time></trkpt><trkpt lat="41.78819303860538" lon="14.10608428246343"><ele>808.3333333333333</ele><time>2026-05-03T07:13:10.999Z</time></trkpt><trkpt lat="41.78812672351462" lon="14.106074682980374"><ele>806.6666666666666</ele><time>2026-05-03T07:13:45.999Z</time></trkpt><trkpt lat="41.78816626478696" lon="14.106001007185636"><ele>805.0</ele><time>2026-05-03T07:14:25Z</time></trkpt><trkpt lat="41.7882682744157" lon="14.105937150308291"><ele>805.0</ele><time>2026-05-03T07:14:50Z</time></trkpt><trkpt lat="41.788375890496845" lon="14.105883672678779"><ele>805.0</ele><time>2026-05-03T07:14:53Z</time></trkpt><trkpt lat="41.78839803521193" lon="14.10574612727685"><ele>805.0</ele><time>2026-05-03T07:14:54.999Z</time></trkpt><trkpt lat="41.788399760617224" lon="14.10561845469856"><ele>805.0</ele><time>2026-05-03T07:14:56.999Z</time></trkpt><trkpt lat="41.788408241735254" lon="14.105514475134937"><ele>805.0</ele><time>2026-05-03T07:14:58.999Z</time></trkpt><trkpt lat="41.78839159482717" lon="14.105415971128602"><ele>803.2</ele><time>2026-05-03T07:15:03.999Z</time></trkpt><trkpt lat="41.78831423506719" lon="14.10530808152195"><ele>801.4</ele><time>2026-05-03T07:15:06.999Z</time></trkpt><trkpt lat="41.788223347825934" lon="14.105267738972344"><ele>799.5999999999999</ele><time>2026-05-03T07:15:08.999Z</time></trkpt><trkpt lat="41.78815616000472" lon="14.105188887301201"><ele>797.8</ele><time>2026-05-03T07:15:10.999Z</time></trkpt><trkpt lat="41.788138566326644" lon="14.104992708391247"><ele>796.0</ele><time>2026-05-03T07:15:12.999Z</time></trkpt><trkpt lat="41.78815263959368" lon="14.10483021354342"><ele>795.3333333333333</ele><time>2026-05-03T07:15:13.999Z</time></trkpt><trkpt lat="41.788150971126996" lon="14.104672383304921"><ele>794.6666666666666</ele><time>2026-05-03T07:15:14.999Z</time></trkpt><trkpt lat="41.78815250976802" lon="14.104548426465175"><ele>794.0</ele><time>2026-05-03T07:15:15.999Z</time></trkpt><trkpt lat="41.78815273986954" lon="14.104452917473228"><ele>793.3333333333333</ele><time>2026-05-03T07:15:16.999Z</time></trkpt><trkpt lat="41.78814166944508" lon="14.104361014126459"><ele>792.6666666666666</ele><time>2026-05-03T07:15:17.999Z</time></trkpt><trkpt lat="41.78814147890465" lon="14.104254155872638"><ele>792.0</ele><time>2026-05-03T07:15:18.999Z</time></trkpt><trkpt lat="41.788063270282066" lon="14.104122104775776"><ele>792.3333333333333</ele><time>2026-05-03T07:15:19.999Z</time></trkpt><trkpt lat="41.787979245357995" lon="14.103936933431495"><ele>792.6666666666666</ele><time>2026-05-03T07:15:20.999Z</time></trkpt><trkpt lat="41.78788790150256" lon="14.1037220607399"><ele>793.0</ele><time>2026-05-03T07:15:21.999Z</time></trkpt><trkpt lat="41.78779511276876" lon="14.103490080051746"><ele>793.0</ele><time>2026-05-03T07:15:22.999Z</time></trkpt><trkpt lat="41.787721049744675" lon="14.10329438248313"><ele>793.0</ele><time>2026-05-03T07:15:23.999Z</time></trkpt><trkpt lat="41.787650166137915" lon="14.103138709505895"><ele>793.0</ele><time>2026-05-03T07:15:24.999Z</time></trkpt><trkpt lat="41.78759350249001" lon="14.103006777804222"><ele>793.0</ele><time>2026-05-03T07:15:25.999Z</time></trkpt><trkpt lat="41.78755417943259" lon="14.102881846566037"><ele>793.8</ele><time>2026-05-03T07:15:26.999Z</time></trkpt><trkpt lat="41.78753834454898" lon="14.102758483354599"><ele>794.5999999999999</ele><time>2026-05-03T07:15:27.999Z</time></trkpt><trkpt lat="41.787538117678054" lon="14.102635082088344"><ele>795.4000000000001</ele><time>2026-05-03T07:15:28.999Z</time></trkpt><trkpt lat="41.787567447631304" lon="14.102512429357475"><ele>796.2</ele><time>2026-05-03T07:15:29.999Z</time></trkpt><trkpt lat="41.78761507896515" lon="14.102396443719615"><ele>797.0</ele><time>2026-05-03T07:15:30.999Z</time></trkpt><trkpt lat="41.787662936905726" lon="14.102272795885542"><ele>798.1666666666667</ele><time>2026-05-03T07:15:31.999Z</time></trkpt><trkpt lat="41.78767944381178" lon="14.102161070081776"><ele>799.3333333333334</ele><time>2026-05-03T07:15:32.999Z</time></trkpt><trkpt lat="41.78770226093406" lon="14.10208055174041"><ele>800.5</ele><time>2026-05-03T07:15:33.999Z</time></trkpt><trkpt lat="41.78767520929457" lon="14.10199924513767"><ele>801.6666666666667</ele><time>2026-05-03T07:15:34.999Z</time></trkpt><trkpt lat="41.787616083934054" lon="14.101925062506636"><ele>802.8333333333334</ele><time>2026-05-03T07:15:35.999Z</time></trkpt><trkpt lat="41.7875327840122" lon="14.101871632539588"><ele>804.0</ele><time>2026-05-03T07:15:36.999Z</time></trkpt><trkpt lat="41.78744890068739" lon="14.101788738478437"><ele>804.0</ele><time>2026-05-03T07:15:37.999Z</time></trkpt><trkpt lat="41.78734429412284" lon="14.101706908914236"><ele>804.0</ele><time>2026-05-03T07:15:38.999Z</time></trkpt><trkpt lat="41.787192552631346" lon="14.1016045961515"><ele>804.0</ele><time>2026-05-03T07:15:39.999Z</time></trkpt><trkpt lat="41.78706508614775" lon="14.10152032003671"><ele>804.0</ele><time>2026-05-03T07:15:40.999Z</time></trkpt><trkpt lat="41.786928387124725" lon="14.10143699787983"><ele>803.4000000000001</ele><time>2026-05-03T07:15:41.999Z</time></trkpt><trkpt lat="41.78681937378692" lon="14.101374211919616"><ele>802.8</ele><time>2026-05-03T07:15:42.999Z</time></trkpt><trkpt lat="41.786729520112594" lon="14.101319159120763"><ele>802.2</ele><time>2026-05-03T07:15:43.999Z</time></trkpt><trkpt lat="41.78662929488431" lon="14.101248683376804"><ele>801.5999999999999</ele><time>2026-05-03T07:15:44.999Z</time></trkpt><trkpt lat="41.786531899892566" lon="14.101168608535296"><ele>801.0</ele><time>2026-05-03T07:15:45.999Z</time></trkpt><trkpt lat="41.78643233216701" lon="14.101051822639324"><ele>801.0</ele><time>2026-05-03T07:15:46.999Z</time></trkpt><trkpt lat="41.78632700649482" lon="14.100931549984564"><ele>801.0</ele><time>2026-05-03T07:15:47.999Z</time></trkpt><trkpt lat="41.78621901780314" lon="14.100805868733328"><ele>801.0</ele><time>2026-05-03T07:15:48.999Z</time></trkpt><trkpt lat="41.78611190851318" lon="14.10069652017382"><ele>801.0</ele><time>2026-05-03T07:15:49.999Z</time></trkpt><trkpt lat="41.78602610306528" lon="14.100594727062036"><ele>802.0</ele><time>2026-05-03T07:15:50.999Z</time></trkpt><trkpt lat="41.78595285141525" lon="14.10052034967079"><ele>803.0</ele><time>2026-05-03T07:15:51.999Z</time></trkpt><trkpt lat="41.78587958692546" lon="14.100477901924714"><ele>804.0</ele><time>2026-05-03T07:15:52.999Z</time></trkpt><trkpt lat="41.78578637322439" lon="14.10046870468654"><ele>805.0</ele><time>2026-05-03T07:15:53.999Z</time></trkpt><trkpt lat="41.78567038158074" lon="14.100487352503643"><ele>806.0</ele><time>2026-05-03T07:15:54.998Z</time></trkpt><trkpt lat="41.785540703517775" lon="14.100471493202866"><ele>806.0</ele><time>2026-05-03T07:15:55.998Z</time></trkpt><trkpt lat="41.785419171286435" lon="14.10048489619227"><ele>806.0</ele><time>2026-05-03T07:15:56.998Z</time></trkpt><trkpt lat="41.78532680103586" lon="14.100472561248687"><ele>806.0</ele><time>2026-05-03T07:15:57.998Z</time></trkpt><trkpt lat="41.7852489359794" lon="14.100459774945284"><ele>806.0</ele><time>2026-05-03T07:15:58.998Z</time></trkpt><trkpt lat="41.78516180689991" lon="14.100443675840651"><ele>806.0</ele><time>2026-05-03T07:15:59.998Z</time></trkpt><trkpt lat="41.78506987374707" lon="14.100388104178519"><ele>806.5</ele><time>2026-05-03T07:16:00.998Z</time></trkpt><trkpt lat="41.784942716390816" lon="14.10040062363184"><ele>807.0</ele><time>2026-05-03T07:16:01.998Z</time></trkpt><trkpt lat="41.78482021645165" lon="14.100385334637558"><ele>807.5</ele><time>2026-05-03T07:16:02.998Z</time></trkpt><trkpt lat="41.78467200057738" lon="14.100366790900155"><ele>808.0</ele><time>2026-05-03T07:16:03.998Z</time></trkpt><trkpt lat="41.78448491546128" lon="14.100342937182166"><ele>807.0</ele><time>2026-05-03T07:16:04.998Z</time></trkpt><trkpt lat="41.784296406195956" lon="14.100302868023107"><ele>806.0</ele><time>2026-05-03T07:16:05.998Z</time></trkpt><trkpt lat="41.784121816453265" lon="14.100305964048752"><ele>805.0</ele><time>2026-05-03T07:16:06.998Z</time></trkpt><trkpt lat="41.78399075302736" lon="14.100255950387263"><ele>805.0</ele><time>2026-05-03T07:16:07.998Z</time></trkpt><trkpt lat="41.78387585375762" lon="14.10019501858894"><ele>805.0</ele><time>2026-05-03T07:16:08.998Z</time></trkpt><trkpt lat="41.78374397702307" lon="14.100137496182889"><ele>805.0</ele><time>2026-05-03T07:16:09.998Z</time></trkpt><trkpt lat="41.7836108432836" lon="14.100051790147447"><ele>805.0</ele><time>2026-05-03T07:16:10.998Z</time></trkpt><trkpt lat="41.7834657278863" lon="14.099974062467133"><ele>803.6666666666666</ele><time>2026-05-03T07:16:11.998Z</time></trkpt><trkpt lat="41.783302097592944" lon="14.099922822648594"><ele>802.3333333333333</ele><time>2026-05-03T07:16:13Z</time></trkpt><trkpt lat="41.783122439953814" lon="14.099889903731633"><ele>801.0</ele><time>2026-05-03T07:16:14Z</time></trkpt><trkpt lat="41.782961120948336" lon="14.099861020598121"><ele>804.25</ele><time>2026-05-03T07:16:15Z</time></trkpt><trkpt lat="41.782817134115575" lon="14.099817883452525"><ele>807.5</ele><time>2026-05-03T07:16:16Z</time></trkpt><trkpt lat="41.782683133432265" lon="14.099786098371574"><ele>810.75</ele><time>2026-05-03T07:16:17Z</time></trkpt><trkpt lat="41.78252438437005" lon="14.099770873351478"><ele>814.0</ele><time>2026-05-03T07:16:18Z</time></trkpt><trkpt lat="41.782379192706344" lon="14.09975644990167"><ele>814.0</ele><time>2026-05-03T07:16:19Z</time></trkpt><trkpt lat="41.78223484667102" lon="14.099730051474848"><ele>814.0</ele><time>2026-05-03T07:16:20Z</time></trkpt><trkpt lat="41.78212170573272" lon="14.099694674301"><ele>814.0</ele><time>2026-05-03T07:16:21Z</time></trkpt><trkpt lat="41.78203051887602" lon="14.099638714019983"><ele>814.0</ele><time>2026-05-03T07:16:22Z</time></trkpt><trkpt lat="41.78194456951908" lon="14.09957849862219"><ele>814.0</ele><time>2026-05-03T07:16:23Z</time></trkpt><trkpt lat="41.781885849083494" lon="14.099500720067223"><ele>814.0</ele><time>2026-05-03T07:16:24Z</time></trkpt><trkpt lat="41.78183748171558" lon="14.09939897020619"><ele>814.0</ele><time>2026-05-03T07:16:25Z</time></trkpt><trkpt lat="41.78179237765498" lon="14.099291170592858"><ele>814.0</ele><time>2026-05-03T07:16:26Z</time></trkpt><trkpt lat="41.78174646247596" lon="14.099186749417793"><ele>814.0</ele><time>2026-05-03T07:16:27Z</time></trkpt><trkpt lat="41.7816357135566" lon="14.099110498447056"><ele>815.5</ele><time>2026-05-03T07:16:28Z</time></trkpt><trkpt lat="41.78152701332689" lon="14.09900391353647"><ele>817.0</ele><time>2026-05-03T07:16:29Z</time></trkpt><trkpt lat="41.78142813847746" lon="14.09889729045478"><ele>818.5</ele><time>2026-05-03T07:16:30Z</time></trkpt><trkpt lat="41.78133963848921" lon="14.098805097448183"><ele>820.0</ele><time>2026-05-03T07:16:31Z</time></trkpt><trkpt lat="41.7812471707027" lon="14.098719452856404"><ele>820.0</ele><time>2026-05-03T07:16:32Z</time></trkpt><trkpt lat="41.781137770529504" lon="14.09862768129458"><ele>820.0</ele><time>2026-05-03T07:16:33Z</time></trkpt><trkpt lat="41.7810216264751" lon="14.098570230272488"><ele>820.0</ele><time>2026-05-03T07:16:34Z</time></trkpt><trkpt lat="41.78088400436014" lon="14.098504565926547"><ele>820.0</ele><time>2026-05-03T07:16:35Z</time></trkpt><trkpt lat="41.78073137299653" lon="14.098441343345435"><ele>817.6666666666666</ele><time>2026-05-03T07:16:36Z</time></trkpt><trkpt lat="41.780578424490606" lon="14.098404371155036"><ele>815.3333333333333</ele><time>2026-05-03T07:16:37Z</time></trkpt><trkpt lat="41.78041127240306" lon="14.09838072542071"><ele>813.0</ele><time>2026-05-03T07:16:38Z</time></trkpt><trkpt lat="41.78026400298912" lon="14.098332503880886"><ele>811.25</ele><time>2026-05-03T07:16:39Z</time></trkpt><trkpt lat="41.78012279272175" lon="14.098297066957375"><ele>809.5</ele><time>2026-05-03T07:16:40Z</time></trkpt><trkpt lat="41.77999422103378" lon="14.098250895381963"><ele>807.75</ele><time>2026-05-03T07:16:41Z</time></trkpt><trkpt lat="41.77986574410389" lon="14.098205275423652"><ele>806.0</ele><time>2026-05-03T07:16:42Z</time></trkpt><trkpt lat="41.77973320910143" lon="14.098137055095"><ele>807.0</ele><time>2026-05-03T07:16:43Z</time></trkpt><trkpt lat="41.77961413327265" lon="14.098067695496725"><ele>808.0</ele><time>2026-05-03T07:16:44Z</time></trkpt><trkpt lat="41.77948711458104" lon="14.097996632664074"><ele>809.0</ele><time>2026-05-03T07:16:45Z</time></trkpt><trkpt lat="41.779349602653014" lon="14.097906982126748"><ele>810.0</ele><time>2026-05-03T07:16:46Z</time></trkpt><trkpt lat="41.77920301674432" lon="14.097809269480846"><ele>810.0</ele><time>2026-05-03T07:16:47Z</time></trkpt><trkpt lat="41.77906750362568" lon="14.097724192931071"><ele>810.0</ele><time>2026-05-03T07:16:48Z</time></trkpt><trkpt lat="41.77892070439485" lon="14.097636789567161"><ele>810.0</ele><time>2026-05-03T07:16:49Z</time></trkpt><trkpt lat="41.77878123683303" lon="14.097568196829277"><ele>810.0</ele><time>2026-05-03T07:16:50Z</time></trkpt><trkpt lat="41.7786485423848" lon="14.097479496563208"><ele>810.0</ele><time>2026-05-03T07:16:51Z</time></trkpt><trkpt lat="41.778528584543935" lon="14.097392940918429"><ele>810.0</ele><time>2026-05-03T07:16:52Z</time></trkpt><trkpt lat="41.778415560136025" lon="14.09731146393299"><ele>810.0</ele><time>2026-05-03T07:16:53Z</time></trkpt><trkpt lat="41.77831442996204" lon="14.097225998931872"><ele>811.75</ele><time>2026-05-03T07:16:54Z</time></trkpt><trkpt lat="41.77822772649551" lon="14.09715375111764"><ele>813.5</ele><time>2026-05-03T07:16:55Z</time></trkpt><trkpt lat="41.77812918019696" lon="14.097060277927277"><ele>815.25</ele><time>2026-05-03T07:16:56Z</time></trkpt><trkpt lat="41.778029035531596" lon="14.096934919909117"><ele>817.0</ele><time>2026-05-03T07:16:57Z</time></trkpt><trkpt lat="41.777937412634316" lon="14.096821751405905"><ele>817.0</ele><time>2026-05-03T07:16:58Z</time></trkpt><trkpt lat="41.77783147785577" lon="14.096696415587143"><ele>817.0</ele><time>2026-05-03T07:16:58.999Z</time></trkpt><trkpt lat="41.77771977769163" lon="14.096559762990818"><ele>817.0</ele><time>2026-05-03T07:16:59.999Z</time></trkpt><trkpt lat="41.77760992698482" lon="14.096423749003984"><ele>817.0</ele><time>2026-05-03T07:17:00.999Z</time></trkpt><trkpt lat="41.77749563030966" lon="14.096302221305928"><ele>816.0</ele><time>2026-05-03T07:17:01.999Z</time></trkpt><trkpt lat="41.777377246859054" lon="14.09618120851855"><ele>815.0</ele><time>2026-05-03T07:17:02.999Z</time></trkpt><trkpt lat="41.777270456329994" lon="14.096054357428734"><ele>814.0</ele><time>2026-05-03T07:17:03.999Z</time></trkpt><trkpt lat="41.77718086144226" lon="14.095949193215473"><ele>813.0</ele><time>2026-05-03T07:17:04.999Z</time></trkpt><trkpt lat="41.77710417204634" lon="14.095877913972956"><ele>813.0</ele><time>2026-05-03T07:17:05.999Z</time></trkpt><trkpt lat="41.77700853164951" lon="14.09581591129948"><ele>813.0</ele><time>2026-05-03T07:17:06.999Z</time></trkpt><trkpt lat="41.776896231056824" lon="14.095765285785586"><ele>813.0</ele><time>2026-05-03T07:17:07.999Z</time></trkpt><trkpt lat="41.77679181518878" lon="14.095730895188527"><ele>813.0</ele><time>2026-05-03T07:17:08.999Z</time></trkpt><trkpt lat="41.77667259315927" lon="14.095711171923236"><ele>812.5</ele><time>2026-05-03T07:17:09.999Z</time></trkpt><trkpt lat="41.776574189474964" lon="14.0957064764074"><ele>812.0</ele><time>2026-05-03T07:17:10.999Z</time></trkpt><trkpt lat="41.7764845952699" lon="14.095701824890307"><ele>811.5</ele><time>2026-05-03T07:17:11.999Z</time></trkpt><trkpt lat="41.776406708405595" lon="14.095699529934098"><ele>811.0</ele><time>2026-05-03T07:17:12.999Z</time></trkpt><trkpt lat="41.776343345877535" lon="14.095697189587387"><ele>810.5</ele><time>2026-05-03T07:17:13.999Z</time></trkpt><trkpt lat="41.776257291906596" lon="14.095669625843161"><ele>810.0</ele><time>2026-05-03T07:17:15.999Z</time></trkpt><trkpt lat="41.77615857358308" lon="14.095653422061282"><ele>810.0</ele><time>2026-05-03T07:17:17.999Z</time></trkpt><trkpt lat="41.77606308166269" lon="14.095659108526437"><ele>810.0</ele><time>2026-05-03T07:17:18.999Z</time></trkpt><trkpt lat="41.77595607181368" lon="14.095683018626973"><ele>810.0</ele><time>2026-05-03T07:17:19.999Z</time></trkpt><trkpt lat="41.77584927236224" lon="14.095703856382084"><ele>810.0</ele><time>2026-05-03T07:17:20.999Z</time></trkpt><trkpt lat="41.77574539007458" lon="14.095744056264449"><ele>810.0</ele><time>2026-05-03T07:17:21.999Z</time></trkpt><trkpt lat="41.77562051275119" lon="14.095761220749926"><ele>809.4</ele><time>2026-05-03T07:17:22.999Z</time></trkpt><trkpt lat="41.77549626694142" lon="14.095778357627085"><ele>808.8</ele><time>2026-05-03T07:17:23.999Z</time></trkpt><trkpt lat="41.7754067562308" lon="14.095797344433212"><ele>808.2</ele><time>2026-05-03T07:17:24.999Z</time></trkpt><trkpt lat="41.77533280508967" lon="14.095817211506704"><ele>807.6</ele><time>2026-05-03T07:17:25.999Z</time></trkpt><trkpt lat="41.7752511244693" lon="14.095826428612412"><ele>807.0</ele><time>2026-05-03T07:17:26.999Z</time></trkpt><trkpt lat="41.77517205005861" lon="14.095825122483898"><ele>806.75</ele><time>2026-05-03T07:17:27.999Z</time></trkpt><trkpt lat="41.77509414826633" lon="14.095817898611427"><ele>806.5</ele><time>2026-05-03T07:17:28.999Z</time></trkpt><trkpt lat="41.774985334602874" lon="14.095819617277204"><ele>806.25</ele><time>2026-05-03T07:17:30.999Z</time></trkpt><trkpt lat="41.77490047715917" lon="14.095808785574125"><ele>806.0</ele><time>2026-05-03T07:17:32.999Z</time></trkpt><trkpt lat="41.77489302003454" lon="14.096047011845076"><ele>806.0</ele><time>2026-05-03T07:17:33.999Z</time></trkpt><trkpt lat="41.77489005500884" lon="14.096167979357954"><ele>806.0</ele><time>2026-05-03T07:17:34.999Z</time></trkpt><trkpt lat="41.77488708895279" lon="14.096311429665388"><ele>806.0</ele><time>2026-05-03T07:17:35.999Z</time></trkpt><trkpt lat="41.7748800495311" lon="14.096451789485567"><ele>806.0</ele><time>2026-05-03T07:17:36.999Z</time></trkpt><trkpt lat="41.77487344982381" lon="14.09654615743853"><ele>806.0</ele><time>2026-05-03T07:17:37.999Z</time></trkpt><trkpt lat="41.774856627575424" lon="14.096689731951882"><ele>806.4</ele><time>2026-05-03T07:17:39.999Z</time></trkpt><trkpt lat="41.77483548642421" lon="14.096831558244837"><ele>806.8</ele><time>2026-05-03T07:17:41.999Z</time></trkpt><trkpt lat="41.77477798280121" lon="14.096921019860803"><ele>807.1999999999999</ele><time>2026-05-03T07:17:43.999Z</time></trkpt><trkpt lat="41.774761178240695" lon="14.097027213091904"><ele>807.5999999999999</ele><time>2026-05-03T07:17:45.999Z</time></trkpt><trkpt lat="41.77473460587572" lon="14.097135267482482"><ele>808.0</ele><time>2026-05-03T07:17:47.999Z</time></trkpt><trkpt lat="41.77471104018156" lon="14.097254057328094"><ele>808.0</ele><time>2026-05-03T07:17:49.999Z</time></trkpt><trkpt lat="41.774696313258474" lon="14.097348616007515"><ele>808.0</ele><time>2026-05-03T07:17:51.999Z</time></trkpt><trkpt lat="41.77477231451445" lon="14.097117296778512"><ele>808.0</ele><time>2026-05-03T07:17:55.999Z</time></trkpt><trkpt lat="41.77491016171097" lon="14.097193359418338"><ele>808.0</ele><time>2026-05-03T07:17:56.999Z</time></trkpt><trkpt lat="41.775011050383085" lon="14.097105589270113"><ele>808.0</ele><time>2026-05-03T07:17:57.999Z</time></trkpt><trkpt lat="41.7750907315142" lon="14.09697244138425"><ele>808.0</ele><time>2026-05-03T07:17:58.998Z</time></trkpt><trkpt lat="41.77515630589997" lon="14.096873973579898"><ele>808.0</ele><time>2026-05-03T07:17:59.998Z</time></trkpt><trkpt lat="41.77490803877015" lon="14.09620558249099"><ele>807.8333333333333</ele><time>2026-05-03T07:18:00.998Z</time></trkpt><trkpt lat="41.774917030421406" lon="14.096103480681931"><ele>807.6666666666666</ele><time>2026-05-03T07:18:01.998Z</time></trkpt><trkpt lat="41.774921380408365" lon="14.096004744316636"><ele>807.5</ele><time>2026-05-03T07:18:02.998Z</time></trkpt><trkpt lat="41.774902653145816" lon="14.095873434474651"><ele>807.3333333333333</ele><time>2026-05-03T07:18:04.998Z</time></trkpt><trkpt lat="41.77482289370633" lon="14.095840415652983"><ele>807.1666666666666</ele><time>2026-05-03T07:18:06.998Z</time></trkpt><trkpt lat="41.77474690752658" lon="14.095766631174463"><ele>807.0</ele><time>2026-05-03T07:18:08.998Z</time></trkpt><trkpt lat="41.77467098956068" lon="14.095728162660714"><ele>807.0</ele><time>2026-05-03T07:18:10.998Z</time></trkpt><trkpt lat="41.77458736781016" lon="14.095725965563373"><ele>807.0</ele><time>2026-05-03T07:18:12.998Z</time></trkpt><trkpt lat="41.77452081663632" lon="14.095713000412024"><ele>807.0</ele><time>2026-05-03T07:18:14.998Z</time></trkpt><trkpt lat="41.774433935570386" lon="14.09570438380778"><ele>807.0</ele><time>2026-05-03T07:18:17.998Z</time></trkpt><trkpt lat="41.77441043968659" lon="14.095807279809794"><ele>807.0</ele><time>2026-05-03T07:18:21Z</time></trkpt><trkpt lat="41.774477286571944" lon="14.095827574320857"><ele>807.0</ele><time>2026-05-03T07:18:23Z</time></trkpt><trkpt lat="41.774557931242455" lon="14.095827536864642"><ele>806.8571428571429</ele><time>2026-05-03T07:18:26Z</time></trkpt><trkpt lat="41.77462159482219" lon="14.095830151778285"><ele>806.7142857142858</ele><time>2026-05-03T07:25:21.999Z</time></trkpt><trkpt lat="41.77468637664826" lon="14.095846581481677"><ele>806.5714285714287</ele><time>2026-05-03T07:25:27.999Z</time></trkpt><trkpt lat="41.774750624405755" lon="14.095873366288709"><ele>806.4285714285714</ele><time>2026-05-03T07:25:33.999Z</time></trkpt><trkpt lat="41.77481536460988" lon="14.095909383913686"><ele>806.2857142857142</ele><time>2026-05-03T07:25:39.999Z</time></trkpt><trkpt lat="41.774884805090245" lon="14.095980398291108"><ele>806.1428571428572</ele><time>2026-05-03T07:26:07.999Z</time></trkpt><trkpt lat="41.77491202962916" lon="14.09589643832409"><ele>806.0</ele><time>2026-05-03T07:27:16Z</time></trkpt><trkpt lat="41.77482062722378" lon="14.095827945558026"><ele>806.0000000000001</ele><time>2026-05-03T07:27:31.999Z</time></trkpt><trkpt lat="41.77475640569215" lon="14.095842573141503"><ele>806.0</ele><time>2026-05-03T07:27:43.999Z</time></trkpt><trkpt lat="41.774690597659365" lon="14.09587200774746"><ele>806.0</ele><time>2026-05-03T07:27:55.999Z</time></trkpt><trkpt lat="41.77464264232275" lon="14.095814749911973"><ele>806.0</ele><time>2026-05-03T07:28:30.999Z</time></trkpt><trkpt lat="41.774584173749645" lon="14.09585035403426"><ele>806.0000000000001</ele><time>2026-05-03T07:28:40.999Z</time></trkpt><trkpt lat="41.77472234911684" lon="14.09586906080563"><ele>806.0</ele><time>2026-05-03T07:47:25.999Z</time></trkpt><trkpt lat="41.774793499323685" lon="14.09586632322303"><ele>806.0000000000001</ele><time>2026-05-03T07:47:26.999Z</time></trkpt><trkpt lat="41.774864997348296" lon="14.095891904558751"><ele>806.0</ele><time>2026-05-03T07:47:28.999Z</time></trkpt><trkpt lat="41.7749057717549" lon="14.095970218975154"><ele>806.0</ele><time>2026-05-03T07:47:31.999Z</time></trkpt><trkpt lat="41.77489180120201" lon="14.096083917942638"><ele>806.0</ele><time>2026-05-03T07:47:33.999Z</time></trkpt><trkpt lat="41.7748883197814" lon="14.096170817667947"><ele>806.0000000000001</ele><time>2026-05-03T07:47:34.999Z</time></trkpt><trkpt lat="41.774874737764605" lon="14.096314977037657"><ele>806.0</ele><time>2026-05-03T07:47:35.999Z</time></trkpt><trkpt lat="41.77487061668314" lon="14.096430348107058"><ele>806.0</ele><time>2026-05-03T07:47:36.999Z</time></trkpt><trkpt lat="41.774853329921235" lon="14.096548271952193"><ele>806.0</ele><time>2026-05-03T07:47:38.999Z</time></trkpt><trkpt lat="41.77484332233955" lon="14.09669258069781"><ele>806.0</ele><time>2026-05-03T07:47:40.999Z</time></trkpt><trkpt lat="41.774826880257905" lon="14.096802765571766"><ele>806.0</ele><time>2026-05-03T07:47:41.999Z</time></trkpt><trkpt lat="41.77479505164982" lon="14.096979167975917"><ele>806.0</ele><time>2026-05-03T07:47:42.999Z</time></trkpt><trkpt lat="41.774755999121666" lon="14.097140988332871"><ele>806.3333333333334</ele><time>2026-05-03T07:47:43.999Z</time></trkpt><trkpt lat="41.77472846722057" lon="14.09724304156576"><ele>806.6666666666667</ele><time>2026-05-03T07:47:44.999Z</time></trkpt><trkpt lat="41.77471206914135" lon="14.097326001974357"><ele>807.0</ele><time>2026-05-03T07:47:45.999Z</time></trkpt><trkpt lat="41.77470017614116" lon="14.097462096738525"><ele>807.3333333333333</ele><time>2026-05-03T07:47:47.999Z</time></trkpt><trkpt lat="41.77467811387558" lon="14.097570350922217"><ele>807.6666666666666</ele><time>2026-05-03T07:47:49.999Z</time></trkpt><trkpt lat="41.77468637927458" lon="14.09768750655825"><ele>808.0</ele><time>2026-05-03T07:47:51.999Z</time></trkpt><trkpt lat="41.77482359340122" lon="14.097794211985978"><ele>808.0</ele><time>2026-05-03T07:47:53.999Z</time></trkpt><trkpt lat="41.77496990151288" lon="14.09782911888695"><ele>808.0</ele><time>2026-05-03T07:47:54.999Z</time></trkpt><trkpt lat="41.77507648075307" lon="14.09782338030607"><ele>808.0</ele><time>2026-05-03T07:47:55.999Z</time></trkpt><trkpt lat="41.77514076082227" lon="14.09784622103653"><ele>808.0</ele><time>2026-05-03T07:47:56.999Z</time></trkpt><trkpt lat="41.77520747493307" lon="14.097887464501756"><ele>808.0</ele><time>2026-05-03T07:47:59Z</time></trkpt><trkpt lat="41.77516562947881" lon="14.098074545156708"><ele>808.0</ele><time>2026-05-03T07:48:01Z</time></trkpt><trkpt lat="41.77511264078303" lon="14.098178780897724"><ele>808.0</ele><time>2026-05-03T07:48:02Z</time></trkpt><trkpt lat="41.77507678087575" lon="14.09827951921961"><ele>808.0</ele><time>2026-05-03T07:48:03Z</time></trkpt><trkpt lat="41.77502695475351" lon="14.098437783404858"><ele>808.0</ele><time>2026-05-03T07:48:04Z</time></trkpt><trkpt lat="41.77496107742447" lon="14.098595529579601"><ele>808.0</ele><time>2026-05-03T07:48:05Z</time></trkpt><trkpt lat="41.7749122265408" lon="14.098706127110516"><ele>807.8333333333333</ele><time>2026-05-03T07:48:06Z</time></trkpt><trkpt lat="41.77486682625697" lon="14.098803564345308"><ele>807.6666666666666</ele><time>2026-05-03T07:48:07Z</time></trkpt><trkpt lat="41.77482014780521" lon="14.09889392765623"><ele>807.5</ele><time>2026-05-03T07:48:08Z</time></trkpt><trkpt lat="41.7747756872357" lon="14.098957770723198"><ele>807.3333333333333</ele><time>2026-05-03T07:48:09Z</time></trkpt><trkpt lat="41.774747882571035" lon="14.099053742245195"><ele>807.1666666666666</ele><time>2026-05-03T07:48:10Z</time></trkpt><trkpt lat="41.77469654696507" lon="14.099165333125653"><ele>807.0</ele><time>2026-05-03T07:48:11Z</time></trkpt><trkpt lat="41.7746348674859" lon="14.099264436053613"><ele>806.8333333333334</ele><time>2026-05-03T07:48:12Z</time></trkpt><trkpt lat="41.774611179616905" lon="14.099356339232438"><ele>806.6666666666667</ele><time>2026-05-03T07:48:13Z</time></trkpt><trkpt lat="41.774554269887" lon="14.099468151998982"><ele>806.5</ele><time>2026-05-03T07:48:15Z</time></trkpt><trkpt lat="41.77451637452417" lon="14.099559722626976"><ele>806.3333333333334</ele><time>2026-05-03T07:48:17Z</time></trkpt><trkpt lat="41.77451881245534" lon="14.099659562481644"><ele>806.1666666666667</ele><time>2026-05-03T07:48:19Z</time></trkpt><trkpt lat="41.77457396102189" lon="14.099731266450314"><ele>806.0</ele><time>2026-05-03T07:48:21Z</time></trkpt><trkpt lat="41.774628672951316" lon="14.09977985388437"><ele>806.0</ele><time>2026-05-03T07:48:24Z</time></trkpt><trkpt lat="41.77464637468663" lon="14.099689073723013"><ele>806.0</ele><time>2026-05-03T07:48:26Z</time></trkpt><trkpt lat="41.77459226383887" lon="14.099643578892262"><ele>806.0</ele><time>2026-05-03T07:48:45Z</time></trkpt><trkpt lat="41.77452430663323" lon="14.099622616950805"><ele>806.0</ele><time>2026-05-03T07:48:47.999Z</time></trkpt><trkpt lat="41.774564437234694" lon="14.099411938425689"><ele>806.0</ele><time>2026-05-03T07:48:51.999Z</time></trkpt><trkpt lat="41.77463052688525" lon="14.099276147386918"><ele>806.0</ele><time>2026-05-03T07:48:52.999Z</time></trkpt><trkpt lat="41.77474086327806" lon="14.09919647744111"><ele>806.0</ele><time>2026-05-03T07:48:53.999Z</time></trkpt><trkpt lat="41.77481633091672" lon="14.099032429584394"><ele>806.0</ele><time>2026-05-03T07:48:54.999Z</time></trkpt><trkpt lat="41.774907366412315" lon="14.098834540929923"><ele>806.0</ele><time>2026-05-03T07:48:55.999Z</time></trkpt><trkpt lat="41.7749936563694" lon="14.098641655387702"><ele>806.1999999999999</ele><time>2026-05-03T07:48:56.999Z</time></trkpt><trkpt lat="41.77504674077899" lon="14.098470496035437"><ele>806.4</ele><time>2026-05-03T07:48:57.999Z</time></trkpt><trkpt lat="41.77510412331159" lon="14.098336351626658"><ele>806.6</ele><time>2026-05-03T07:48:58.999Z</time></trkpt><trkpt lat="41.77514618157208" lon="14.098217645862695"><ele>806.8</ele><time>2026-05-03T07:48:59.999Z</time></trkpt><trkpt lat="41.77517542875006" lon="14.098119866407826"><ele>807.0</ele><time>2026-05-03T07:49:00.999Z</time></trkpt><trkpt lat="41.77520054186894" lon="14.098038573243574"><ele>807.2</ele><time>2026-05-03T07:49:01.999Z</time></trkpt><trkpt lat="41.77524289775924" lon="14.097938956766619"><ele>807.4000000000001</ele><time>2026-05-03T07:49:03.999Z</time></trkpt><trkpt lat="41.77528189639686" lon="14.097854521084253"><ele>807.5999999999999</ele><time>2026-05-03T07:49:06.999Z</time></trkpt><trkpt lat="41.77518576810483" lon="14.097786526231063"><ele>807.8</ele><time>2026-05-03T07:49:07.999Z</time></trkpt><trkpt lat="41.77509303040397" lon="14.097772759775975"><ele>808.0</ele><time>2026-05-03T07:49:08.999Z</time></trkpt><trkpt lat="41.77499644475009" lon="14.097756991497056"><ele>808.0</ele><time>2026-05-03T07:49:09.999Z</time></trkpt><trkpt lat="41.77490052614761" lon="14.097736982023891"><ele>808.0</ele><time>2026-05-03T07:49:10.999Z</time></trkpt><trkpt lat="41.7748293842548" lon="14.097715932942029"><ele>808.0</ele><time>2026-05-03T07:49:11.999Z</time></trkpt><trkpt lat="41.77471041890706" lon="14.097707206488089"><ele>808.0</ele><time>2026-05-03T07:49:13.999Z</time></trkpt><trkpt lat="41.774723824195284" lon="14.097533240381171"><ele>808.0</ele><time>2026-05-03T07:49:14.999Z</time></trkpt><trkpt lat="41.77473805300238" lon="14.097419527491121"><ele>808.0</ele><time>2026-05-03T07:49:15.999Z</time></trkpt><trkpt lat="41.7747429528817" lon="14.097292269819883"><ele>808.0</ele><time>2026-05-03T07:49:16.999Z</time></trkpt><trkpt lat="41.774789009353086" lon="14.097127717080626"><ele>808.0</ele><time>2026-05-03T07:49:17.999Z</time></trkpt><trkpt lat="41.77482518797334" lon="14.09693519948266"><ele>808.0</ele><time>2026-05-03T07:49:18.999Z</time></trkpt><trkpt lat="41.77486014246668" lon="14.096771461391887"><ele>808.0</ele><time>2026-05-03T07:49:19.999Z</time></trkpt><trkpt lat="41.77489236491014" lon="14.096589661210361"><ele>808.0</ele><time>2026-05-03T07:49:20.999Z</time></trkpt><trkpt lat="41.77488601081345" lon="14.0963847369028"><ele>808.0</ele><time>2026-05-03T07:49:21.999Z</time></trkpt><trkpt lat="41.77491175432708" lon="14.096218166109546"><ele>808.0</ele><time>2026-05-03T07:49:22.999Z</time></trkpt><trkpt lat="41.77491942333211" lon="14.09608282853885"><ele>807.8</ele><time>2026-05-03T07:49:23.999Z</time></trkpt><trkpt lat="41.77492713408307" lon="14.095980757586739"><ele>807.5999999999999</ele><time>2026-05-03T07:49:24.999Z</time></trkpt><trkpt lat="41.77493732931525" lon="14.095833479698788"><ele>807.4000000000001</ele><time>2026-05-03T07:49:26.999Z</time></trkpt><trkpt lat="41.77494392568482" lon="14.095722829026542"><ele>807.2</ele><time>2026-05-03T07:49:28.999Z</time></trkpt><trkpt lat="41.7749345925642" lon="14.095633894145907"><ele>807.0</ele><time>2026-05-03T07:49:31.999Z</time></trkpt><trkpt lat="41.774785266477785" lon="14.095775098079613"><ele>807.0</ele><time>2026-05-03T07:49:32.999Z</time></trkpt><trkpt lat="41.774710709935604" lon="14.095741938318797"><ele>807.0</ele><time>2026-05-03T07:49:34.999Z</time></trkpt><trkpt lat="41.7746200906117" lon="14.095726448442946"><ele>807.0</ele><time>2026-05-03T07:49:36.999Z</time></trkpt><trkpt lat="41.774542471477304" lon="14.09571790905628"><ele>807.0</ele><time>2026-05-03T07:49:38.999Z</time></trkpt><trkpt lat="41.77455464634209" lon="14.095803465016001"><ele>807.0</ele><time>2026-05-03T07:53:52Z</time></trkpt><trkpt lat="41.774639396112626" lon="14.09581412982764"><ele>807.0</ele><time>2026-05-03T08:12:37Z</time></trkpt><trkpt lat="41.77471771666321" lon="14.095830063439575"><ele>806.8</ele><time>2026-05-03T08:12:38Z</time></trkpt><trkpt lat="41.7748006871153" lon="14.095846533692166"><ele>806.6</ele><time>2026-05-03T08:12:39Z</time></trkpt><trkpt lat="41.774864687469936" lon="14.095851532678214"><ele>806.4</ele><time>2026-05-03T08:12:40Z</time></trkpt><trkpt lat="41.77498351036332" lon="14.095846843649166"><ele>806.1999999999999</ele><time>2026-05-03T08:12:42Z</time></trkpt><trkpt lat="41.77507075619939" lon="14.095845363266102"><ele>806.0</ele><time>2026-05-03T08:12:43Z</time></trkpt><trkpt lat="41.77518223273238" lon="14.09585187013274"><ele>806.25</ele><time>2026-05-03T08:12:44Z</time></trkpt><trkpt lat="41.77527164922632" lon="14.095846316026732"><ele>806.5</ele><time>2026-05-03T08:12:45Z</time></trkpt><trkpt lat="41.775394807527555" lon="14.095828399933158"><ele>806.75</ele><time>2026-05-03T08:12:46Z</time></trkpt><trkpt lat="41.77553894252926" lon="14.095804407887776"><ele>807.0</ele><time>2026-05-03T08:12:47Z</time></trkpt><trkpt lat="41.77568673676125" lon="14.095776315307015"><ele>807.0</ele><time>2026-05-03T08:12:48Z</time></trkpt><trkpt lat="41.7758265210746" lon="14.095748872164648"><ele>807.0</ele><time>2026-05-03T08:12:49Z</time></trkpt><trkpt lat="41.77593007562801" lon="14.095731090341957"><ele>807.0</ele><time>2026-05-03T08:12:50Z</time></trkpt><trkpt lat="41.77602030148455" lon="14.095719926926712"><ele>807.0</ele><time>2026-05-03T08:12:51Z</time></trkpt><trkpt lat="41.77610107919954" lon="14.095712569600082"><ele>807.0</ele><time>2026-05-03T08:12:52Z</time></trkpt><trkpt lat="41.77619636981162" lon="14.095708266344575"><ele>806.6</ele><time>2026-05-03T08:12:53Z</time></trkpt><trkpt lat="41.776282949818146" lon="14.095642541205274"><ele>806.2</ele><time>2026-05-03T08:12:54.001Z</time></trkpt><trkpt lat="41.77639734650421" lon="14.095583584852116"><ele>805.8</ele><time>2026-05-03T08:12:55.001Z</time></trkpt><trkpt lat="41.776481467358735" lon="14.095476065890574"><ele>805.4</ele><time>2026-05-03T08:12:56.001Z</time></trkpt><trkpt lat="41.77652518920729" lon="14.095399521487419"><ele>805.0</ele><time>2026-05-03T08:12:57Z</time></trkpt><trkpt lat="41.77684464098158" lon="14.095771146746165"><ele>807.0</ele><time>2026-05-03T08:12:58Z</time></trkpt><trkpt lat="41.776944852665636" lon="14.095821058178322"><ele>809.0</ele><time>2026-05-03T08:12:59Z</time></trkpt><trkpt lat="41.777050712657676" lon="14.095881069730952"><ele>811.0</ele><time>2026-05-03T08:13:00Z</time></trkpt><trkpt lat="41.7771438411071" lon="14.095953978697095"><ele>813.0</ele><time>2026-05-03T08:13:01Z</time></trkpt><trkpt lat="41.77755200320914" lon="14.095633184854089"><ele>813.0</ele><time>2026-05-03T08:13:02Z</time></trkpt><trkpt lat="41.777670747333644" lon="14.095811202499439"><ele>813.0</ele><time>2026-05-03T08:13:03Z</time></trkpt><trkpt lat="41.77771427270508" lon="14.095939664983353"><ele>813.0</ele><time>2026-05-03T08:13:04Z</time></trkpt><trkpt lat="41.77776619780579" lon="14.0960247495197"><ele>813.0</ele><time>2026-05-03T08:13:05Z</time></trkpt><trkpt lat="41.77785182485761" lon="14.096127719537728"><ele>818.3333333333333</ele><time>2026-05-03T08:13:06Z</time></trkpt><trkpt lat="41.7779627209894" lon="14.096207753418918"><ele>823.6666666666666</ele><time>2026-05-03T08:13:08Z</time></trkpt><trkpt lat="41.778169296187826" lon="14.096405156736742"><ele>829.0</ele><time>2026-05-03T08:13:09Z</time></trkpt><trkpt lat="41.778224427015466" lon="14.0964755890741"><ele>829.0</ele><time>2026-05-03T08:13:10Z</time></trkpt><trkpt lat="41.778300398314585" lon="14.096554334129516"><ele>829.0</ele><time>2026-05-03T08:13:11Z</time></trkpt><trkpt lat="41.77837934405384" lon="14.09662790329338"><ele>829.0</ele><time>2026-05-03T08:13:12Z</time></trkpt><trkpt lat="41.778454387121805" lon="14.096693966900583"><ele>829.0</ele><time>2026-05-03T08:13:13Z</time></trkpt><trkpt lat="41.77853052298912" lon="14.096749412407824"><ele>829.0</ele><time>2026-05-03T08:13:14Z</time></trkpt><trkpt lat="41.778632398129936" lon="14.096817929487552"><ele>827.6666666666666</ele><time>2026-05-03T08:13:15Z</time></trkpt><trkpt lat="41.778765483524694" lon="14.096886017540825"><ele>826.3333333333333</ele><time>2026-05-03T08:13:16Z</time></trkpt><trkpt lat="41.7789109343153" lon="14.09693497425744"><ele>825.0</ele><time>2026-05-03T08:13:17Z</time></trkpt><trkpt lat="41.7792187203376" lon="14.097029038450305"><ele>825.0</ele><time>2026-05-03T08:13:18Z</time></trkpt><trkpt lat="41.77931015554583" lon="14.09708360368948"><ele>825.0</ele><time>2026-05-03T08:13:19Z</time></trkpt><trkpt lat="41.77938826279557" lon="14.097114984085097"><ele>825.0</ele><time>2026-05-03T08:13:20Z</time></trkpt><trkpt lat="41.77948229586256" lon="14.097177652002731"><ele>825.0</ele><time>2026-05-03T08:13:21Z</time></trkpt><trkpt lat="41.779594485697935" lon="14.097244089123867"><ele>825.0</ele><time>2026-05-03T08:13:22Z</time></trkpt><trkpt lat="41.779688489885416" lon="14.097308618142804"><ele>824.0</ele><time>2026-05-03T08:13:23Z</time></trkpt><trkpt lat="41.77979765824742" lon="14.097380304267668"><ele>823.0</ele><time>2026-05-03T08:13:24Z</time></trkpt><trkpt lat="41.7798762082588" lon="14.097447135950786"><ele>822.0</ele><time>2026-05-03T08:13:25Z</time></trkpt><trkpt lat="41.779998821027675" lon="14.097523823999238"><ele>821.0</ele><time>2026-05-03T08:13:26Z</time></trkpt><trkpt lat="41.780129346390204" lon="14.097598768306298"><ele>824.5</ele><time>2026-05-03T08:13:27Z</time></trkpt><trkpt lat="41.78027756208859" lon="14.097677925118234"><ele>828.0</ele><time>2026-05-03T08:13:28Z</time></trkpt><trkpt lat="41.78039890641029" lon="14.098385588036512"><ele>824.25</ele><time>2026-05-03T08:13:29Z</time></trkpt><trkpt lat="41.7805519748516" lon="14.098441319476654"><ele>820.5</ele><time>2026-05-03T08:13:30Z</time></trkpt><trkpt lat="41.78067248813096" lon="14.098485269838278"><ele>816.75</ele><time>2026-05-03T08:13:31Z</time></trkpt><trkpt lat="41.78079357150344" lon="14.098514643731408"><ele>813.0</ele><time>2026-05-03T08:13:32Z</time></trkpt><trkpt lat="41.780911727899955" lon="14.098548285965292"><ele>814.75</ele><time>2026-05-03T08:13:33Z</time></trkpt><trkpt lat="41.781025249885246" lon="14.098606426729305"><ele>816.5</ele><time>2026-05-03T08:13:34Z</time></trkpt><trkpt lat="41.78115995008853" lon="14.098687132535115"><ele>818.25</ele><time>2026-05-03T08:13:35Z</time></trkpt><trkpt lat="41.78128248551362" lon="14.098772740910924"><ele>820.0</ele><time>2026-05-03T08:13:36Z</time></trkpt><trkpt lat="41.78138134332436" lon="14.098868578433448"><ele>820.0</ele><time>2026-05-03T08:13:37Z</time></trkpt><trkpt lat="41.78146188794674" lon="14.098965834855543"><ele>820.0</ele><time>2026-05-03T08:13:38Z</time></trkpt><trkpt lat="41.781555063313284" lon="14.099071337415696"><ele>820.0</ele><time>2026-05-03T08:13:39Z</time></trkpt><trkpt lat="41.781642707794504" lon="14.0991774469405"><ele>820.0</ele><time>2026-05-03T08:13:40Z</time></trkpt><trkpt lat="41.781724452241434" lon="14.099267480690658"><ele>818.8</ele><time>2026-05-03T08:13:41Z</time></trkpt><trkpt lat="41.78179788564202" lon="14.099330105000456"><ele>817.6</ele><time>2026-05-03T08:13:42Z</time></trkpt><trkpt lat="41.78185578193921" lon="14.099427034825936"><ele>816.4000000000001</ele><time>2026-05-03T08:13:43Z</time></trkpt><trkpt lat="41.78192754274435" lon="14.099536064570211"><ele>815.2</ele><time>2026-05-03T08:13:44Z</time></trkpt><trkpt lat="41.782009804796" lon="14.099650606322491"><ele>814.0</ele><time>2026-05-03T08:13:45Z</time></trkpt><trkpt lat="41.78210012503917" lon="14.099731646080242"><ele>814.0</ele><time>2026-05-03T08:13:46Z</time></trkpt><trkpt lat="41.78220995741636" lon="14.099766446325315"><ele>814.0</ele><time>2026-05-03T08:13:47Z</time></trkpt><trkpt lat="41.78234597265804" lon="14.09978404574333"><ele>814.0</ele><time>2026-05-03T08:13:48Z</time></trkpt><trkpt lat="41.782513774480854" lon="14.099792365628192"><ele>814.0</ele><time>2026-05-03T08:13:49Z</time></trkpt><trkpt lat="41.78266580202834" lon="14.099797572329628"><ele>814.6</ele><time>2026-05-03T08:13:50Z</time></trkpt><trkpt lat="41.78278601348864" lon="14.099825497544233"><ele>815.2</ele><time>2026-05-03T08:13:51Z</time></trkpt><trkpt lat="41.782893442726916" lon="14.0998476997984"><ele>815.8000000000001</ele><time>2026-05-03T08:13:52Z</time></trkpt><trkpt lat="41.782987820197725" lon="14.099867157341773"><ele>816.4000000000001</ele><time>2026-05-03T08:13:53Z</time></trkpt><trkpt lat="41.78309270296786" lon="14.099901366729801"><ele>817.0</ele><time>2026-05-03T08:13:54Z</time></trkpt><trkpt lat="41.78322936237942" lon="14.099944553498101"><ele>814.0</ele><time>2026-05-03T08:13:55Z</time></trkpt><trkpt lat="41.78337498254966" lon="14.099969793276804"><ele>811.0</ele><time>2026-05-03T08:13:56Z</time></trkpt><trkpt lat="41.783517981776725" lon="14.099999045182741"><ele>808.0</ele><time>2026-05-03T08:13:57Z</time></trkpt><trkpt lat="41.78365696049291" lon="14.100077186266073"><ele>805.0</ele><time>2026-05-03T08:13:58Z</time></trkpt><trkpt lat="41.78379169271571" lon="14.100156644196032"><ele>805.0</ele><time>2026-05-03T08:13:59Z</time></trkpt><trkpt lat="41.78390044108559" lon="14.100227405384542"><ele>805.0</ele><time>2026-05-03T08:14:00Z</time></trkpt><trkpt lat="41.78399099193583" lon="14.100282667369585"><ele>805.0</ele><time>2026-05-03T08:14:01Z</time></trkpt><trkpt lat="41.78408668006095" lon="14.100322549288434"><ele>805.0</ele><time>2026-05-03T08:14:02Z</time></trkpt><trkpt lat="41.78419483136844" lon="14.100342400626868"><ele>805.0</ele><time>2026-05-03T08:14:03Z</time></trkpt><trkpt lat="41.78430953275805" lon="14.100345626359283"><ele>805.6</ele><time>2026-05-03T08:14:04Z</time></trkpt><trkpt lat="41.784418979192765" lon="14.100343327668714"><ele>806.2</ele><time>2026-05-03T08:14:05Z</time></trkpt><trkpt lat="41.78451829658223" lon="14.100354264196842"><ele>806.8</ele><time>2026-05-03T08:14:06Z</time></trkpt><trkpt lat="41.78460865938433" lon="14.100363338778477"><ele>807.4</ele><time>2026-05-03T08:14:07Z</time></trkpt><trkpt lat="41.78471290960198" lon="14.100397399769244"><ele>808.0</ele><time>2026-05-03T08:14:08Z</time></trkpt><trkpt lat="41.78483052176226" lon="14.10039269390744"><ele>808.0</ele><time>2026-05-03T08:14:09Z</time></trkpt><trkpt lat="41.784941394281105" lon="14.1004156871686"><ele>808.0</ele><time>2026-05-03T08:14:10Z</time></trkpt><trkpt lat="41.78505754542349" lon="14.100435611830166"><ele>808.0</ele><time>2026-05-03T08:14:11Z</time></trkpt><trkpt lat="41.78517129609449" lon="14.1004720121904"><ele>808.0</ele><time>2026-05-03T08:14:12Z</time></trkpt><trkpt lat="41.78528584251083" lon="14.100494858512961"><ele>807.5999999999999</ele><time>2026-05-03T08:14:13Z</time></trkpt><trkpt lat="41.78540452409461" lon="14.100489789421733"><ele>807.1999999999999</ele><time>2026-05-03T08:14:14Z</time></trkpt><trkpt lat="41.785517165835515" lon="14.100498268922806"><ele>806.8</ele><time>2026-05-03T08:14:15Z</time></trkpt><trkpt lat="41.78563104601525" lon="14.100505513859705"><ele>806.4</ele><time>2026-05-03T08:14:16Z</time></trkpt><trkpt lat="41.785725820979465" lon="14.10051327335475"><ele>806.0</ele><time>2026-05-03T08:14:17Z</time></trkpt><trkpt lat="41.78582306917316" lon="14.100520258528121"><ele>806.0</ele><time>2026-05-03T08:14:18Z</time></trkpt><trkpt lat="41.785890185805286" lon="14.100527492188828"><ele>806.0</ele><time>2026-05-03T08:14:19Z</time></trkpt><trkpt lat="41.785968857916295" lon="14.100553458862295"><ele>806.0</ele><time>2026-05-03T08:14:20Z</time></trkpt><trkpt lat="41.78602066679854" lon="14.100656811225221"><ele>806.0</ele><time>2026-05-03T08:14:21Z</time></trkpt><trkpt lat="41.786116824221374" lon="14.100744972468059"><ele>806.0</ele><time>2026-05-03T08:14:22Z</time></trkpt><trkpt lat="41.78620265612136" lon="14.100853307887691"><ele>805.0</ele><time>2026-05-03T08:14:23Z</time></trkpt><trkpt lat="41.786292129646924" lon="14.100942362630244"><ele>804.0</ele><time>2026-05-03T08:14:24Z</time></trkpt><trkpt lat="41.78639673420402" lon="14.101046464148235"><ele>803.0</ele><time>2026-05-03T08:14:25Z</time></trkpt><trkpt lat="41.78648379991883" lon="14.101139006385926"><ele>802.0</ele><time>2026-05-03T08:14:26Z</time></trkpt><trkpt lat="41.7865546042523" lon="14.10121937652914"><ele>801.0</ele><time>2026-05-03T08:14:27Z</time></trkpt><trkpt lat="41.78664353080484" lon="14.101288492350886"><ele>801.0</ele><time>2026-05-03T08:14:28Z</time></trkpt><trkpt lat="41.786750444475494" lon="14.101361741223183"><ele>801.0</ele><time>2026-05-03T08:14:29Z</time></trkpt><trkpt lat="41.78689283502271" lon="14.101453400943896"><ele>801.0</ele><time>2026-05-03T08:14:30Z</time></trkpt><trkpt lat="41.78702811975505" lon="14.101537654291635"><ele>801.0</ele><time>2026-05-03T08:14:31Z</time></trkpt><trkpt lat="41.787130817112995" lon="14.101603115882273"><ele>801.5</ele><time>2026-05-03T08:14:32Z</time></trkpt><trkpt lat="41.787216474751425" lon="14.101661629186548"><ele>802.0</ele><time>2026-05-03T08:14:33Z</time></trkpt><trkpt lat="41.787286134689474" lon="14.10173629143937"><ele>802.5</ele><time>2026-05-03T08:14:34Z</time></trkpt><trkpt lat="41.78735811593998" lon="14.101795550386306"><ele>803.0</ele><time>2026-05-03T08:14:35Z</time></trkpt><trkpt lat="41.78743446004114" lon="14.101863270494185"><ele>803.5</ele><time>2026-05-03T08:14:36Z</time></trkpt><trkpt lat="41.78751346251339" lon="14.101909577096823"><ele>804.0</ele><time>2026-05-03T08:14:37Z</time></trkpt><trkpt lat="41.78756414727455" lon="14.10198276023373"><ele>804.0</ele><time>2026-05-03T08:14:38Z</time></trkpt><trkpt lat="41.78761265506645" lon="14.102039662971015"><ele>804.0</ele><time>2026-05-03T08:14:39Z</time></trkpt><trkpt lat="41.78765322151933" lon="14.102109538584665"><ele>804.0</ele><time>2026-05-03T08:14:40Z</time></trkpt><trkpt lat="41.78766417168779" lon="14.102260916624125"><ele>804.0</ele><time>2026-05-03T08:14:42Z</time></trkpt><trkpt lat="41.78760139223514" lon="14.102366465876408"><ele>804.0</ele><time>2026-05-03T08:14:43Z</time></trkpt><trkpt lat="41.78755132564034" lon="14.102531926532247"><ele>802.6</ele><time>2026-05-03T08:14:44Z</time></trkpt><trkpt lat="41.78751556001472" lon="14.102696475891495"><ele>801.2</ele><time>2026-05-03T08:14:45Z</time></trkpt><trkpt lat="41.78750444266161" lon="14.102846432632793"><ele>799.8000000000001</ele><time>2026-05-03T08:14:46Z</time></trkpt><trkpt lat="41.787544991519" lon="14.10294044245782"><ele>798.4000000000001</ele><time>2026-05-03T08:14:47Z</time></trkpt><trkpt lat="41.7875792049689" lon="14.103044762021117"><ele>797.0</ele><time>2026-05-03T08:14:48Z</time></trkpt><trkpt lat="41.78761974897825" lon="14.103145066024899"><ele>796.6666666666667</ele><time>2026-05-03T08:14:49Z</time></trkpt><trkpt lat="41.78766655582305" lon="14.103249805586342"><ele>796.3333333333334</ele><time>2026-05-03T08:14:50Z</time></trkpt><trkpt lat="41.787714637664436" lon="14.103366571180162"><ele>796.0</ele><time>2026-05-03T08:14:51Z</time></trkpt><trkpt lat="41.7877558997321" lon="14.103473536385076"><ele>795.6666666666667</ele><time>2026-05-03T08:14:52Z</time></trkpt><trkpt lat="41.78778709315618" lon="14.103563471556317"><ele>795.3333333333334</ele><time>2026-05-03T08:14:53Z</time></trkpt><trkpt lat="41.78782613831547" lon="14.103657615698554"><ele>795.0</ele><time>2026-05-03T08:14:54Z</time></trkpt><trkpt lat="41.78786921793583" lon="14.103761658038309"><ele>794.6666666666666</ele><time>2026-05-03T08:14:55Z</time></trkpt><trkpt lat="41.78790573009588" lon="14.10385646819924"><ele>794.3333333333333</ele><time>2026-05-03T08:14:56Z</time></trkpt><trkpt lat="41.78793588410671" lon="14.103950219586766"><ele>794.0</ele><time>2026-05-03T08:14:57Z</time></trkpt><trkpt lat="41.78795847456485" lon="14.104033454697129"><ele>793.6666666666666</ele><time>2026-05-03T08:14:58Z</time></trkpt><trkpt lat="41.788028935344656" lon="14.104160358776932"><ele>793.3333333333333</ele><time>2026-05-03T08:15:00Z</time></trkpt><trkpt lat="41.788084722841944" lon="14.104252271488754"><ele>793.0</ele><time>2026-05-03T08:15:02Z</time></trkpt><trkpt lat="41.78821571247625" lon="14.104167879467362"><ele>793.0</ele><time>2026-05-03T08:15:05Z</time></trkpt><trkpt lat="41.78830519404666" lon="14.103993573455778"><ele>793.0</ele><time>2026-05-03T08:15:07Z</time></trkpt><trkpt lat="41.78835665757526" lon="14.10385425102108"><ele>793.0</ele><time>2026-05-03T08:15:08Z</time></trkpt><trkpt lat="41.78841313720502" lon="14.103672444334448"><ele>793.0</ele><time>2026-05-03T08:15:09Z</time></trkpt><trkpt lat="41.78846330828929" lon="14.103520748396761"><ele>793.0</ele><time>2026-05-03T08:15:10Z</time></trkpt><trkpt lat="41.78850545890421" lon="14.103394994966393"><ele>793.0</ele><time>2026-05-03T08:15:11Z</time></trkpt><trkpt lat="41.78854353148675" lon="14.103266498550937"><ele>793.0</ele><time>2026-05-03T08:15:12Z</time></trkpt><trkpt lat="41.78858749688218" lon="14.103140992183366"><ele>793.0</ele><time>2026-05-03T08:15:13Z</time></trkpt><trkpt lat="41.78864690475952" lon="14.103051343526266"><ele>793.0</ele><time>2026-05-03T08:15:14Z</time></trkpt><trkpt lat="41.78872650212514" lon="14.102984820057403"><ele>797.6666666666666</ele><time>2026-05-03T08:15:15Z</time></trkpt><trkpt lat="41.78884608502875" lon="14.10292996225234"><ele>802.3333333333333</ele><time>2026-05-03T08:15:16Z</time></trkpt><trkpt lat="41.78900860342553" lon="14.102889610831841"><ele>807.0</ele><time>2026-05-03T08:15:17Z</time></trkpt><trkpt lat="41.78920256589867" lon="14.102842714649453"><ele>807.6666666666667</ele><time>2026-05-03T08:15:18Z</time></trkpt><trkpt lat="41.78941504080731" lon="14.102790453689224"><ele>808.3333333333334</ele><time>2026-05-03T08:15:19Z</time></trkpt><trkpt lat="41.789623402628386" lon="14.102682553444287"><ele>809.0</ele><time>2026-05-03T08:15:20Z</time></trkpt><trkpt lat="41.78986951117569" lon="14.102618474456255"><ele>809.0</ele><time>2026-05-03T08:15:21Z</time></trkpt><trkpt lat="41.79010134359224" lon="14.102572663374678"><ele>809.0</ele><time>2026-05-03T08:15:22Z</time></trkpt><trkpt lat="41.79030453961836" lon="14.102547588241535"><ele>809.0</ele><time>2026-05-03T08:15:23Z</time></trkpt><trkpt lat="41.79050344504295" lon="14.102525285348818"><ele>811.0</ele><time>2026-05-03T08:15:24Z</time></trkpt><trkpt lat="41.79069626256337" lon="14.102540552709927"><ele>813.0</ele><time>2026-05-03T08:15:25Z</time></trkpt><trkpt lat="41.79086500782651" lon="14.102576605289638"><ele>815.0</ele><time>2026-05-03T08:15:26Z</time></trkpt><trkpt lat="41.79101503937803" lon="14.102600615964196"><ele>815.75</ele><time>2026-05-03T08:15:27Z</time></trkpt><trkpt lat="41.79112900415641" lon="14.10260973579968"><ele>816.5</ele><time>2026-05-03T08:15:28Z</time></trkpt><trkpt lat="41.79125571045567" lon="14.10263970868469"><ele>817.25</ele><time>2026-05-03T08:15:29Z</time></trkpt><trkpt lat="41.791396116519316" lon="14.102651798236643"><ele>818.0</ele><time>2026-05-03T08:15:30Z</time></trkpt><trkpt lat="41.791522393413786" lon="14.102668172269269"><ele>818.0</ele><time>2026-05-03T08:15:31Z</time></trkpt><trkpt lat="41.79163390046489" lon="14.102696523402985"><ele>818.0</ele><time>2026-05-03T08:15:32Z</time></trkpt><trkpt lat="41.79175017510655" lon="14.10275231903486"><ele>818.0</ele><time>2026-05-03T08:15:33Z</time></trkpt><trkpt lat="41.79184463453256" lon="14.102810412514017"><ele>818.0</ele><time>2026-05-03T08:15:34Z</time></trkpt><trkpt lat="41.791933243905504" lon="14.102860219559869"><ele>818.0</ele><time>2026-05-03T08:15:35Z</time></trkpt><trkpt lat="41.79201708034964" lon="14.102897067463667"><ele>820.5999999999999</ele><time>2026-05-03T08:15:36Z</time></trkpt><trkpt lat="41.79209201645792" lon="14.1029259388134"><ele>823.1999999999999</ele><time>2026-05-03T08:15:37Z</time></trkpt><trkpt lat="41.7921638992114" lon="14.102892985559828"><ele>825.8</ele><time>2026-05-03T08:15:38Z</time></trkpt><trkpt lat="41.79221779129415" lon="14.102809757391572"><ele>828.4</ele><time>2026-05-03T08:15:39Z</time></trkpt><trkpt lat="41.792244983062574" lon="14.102658038916655"><ele>831.0</ele><time>2026-05-03T08:15:40Z</time></trkpt><trkpt lat="41.7922699245215" lon="14.102479789997158"><ele>832.6666666666667</ele><time>2026-05-03T08:15:41Z</time></trkpt><trkpt lat="41.792291193950184" lon="14.102283300356275"><ele>834.3333333333334</ele><time>2026-05-03T08:15:42Z</time></trkpt><trkpt lat="41.792298717368936" lon="14.102075406722333"><ele>836.0</ele><time>2026-05-03T08:15:43Z</time></trkpt><trkpt lat="41.79228317745395" lon="14.101839662744336"><ele>836.0</ele><time>2026-05-03T08:15:44Z</time></trkpt><trkpt lat="41.79227711544211" lon="14.10159082397439"><ele>836.0</ele><time>2026-05-03T08:15:45Z</time></trkpt><trkpt lat="41.79224897217573" lon="14.101374326741503"><ele>836.0</ele><time>2026-05-03T08:15:46Z</time></trkpt><trkpt lat="41.792212610900144" lon="14.101187370636751"><ele>837.1999999999999</ele><time>2026-05-03T08:15:47Z</time></trkpt><trkpt lat="41.792176609472094" lon="14.101020158658406"><ele>838.4</ele><time>2026-05-03T08:15:48Z</time></trkpt><trkpt lat="41.79215360877164" lon="14.10089735829359"><ele>839.6</ele><time>2026-05-03T08:15:49Z</time></trkpt><trkpt lat="41.792146854090646" lon="14.10076650417646"><ele>840.8</ele><time>2026-05-03T08:15:50Z</time></trkpt><trkpt lat="41.792166286748234" lon="14.100640489876366"><ele>842.0</ele><time>2026-05-03T08:15:51Z</time></trkpt><trkpt lat="41.792224771666994" lon="14.1005124966644"><ele>844.0</ele><time>2026-05-03T08:15:52Z</time></trkpt><trkpt lat="41.79230143248201" lon="14.10036903753804"><ele>846.0</ele><time>2026-05-03T08:15:53Z</time></trkpt><trkpt lat="41.79232995978546" lon="14.100231596980628"><ele>848.0</ele><time>2026-05-03T08:15:54Z</time></trkpt><trkpt lat="41.79235526988155" lon="14.100132881431009"><ele>850.0</ele><time>2026-05-03T08:15:55Z</time></trkpt><trkpt lat="41.79237302106284" lon="14.10004983091456"><ele>852.0</ele><time>2026-05-03T08:15:56Z</time></trkpt><trkpt lat="41.7923926894698" lon="14.099937623961907"><ele>854.0</ele><time>2026-05-03T08:15:57Z</time></trkpt><trkpt lat="41.79241703275123" lon="14.099784535080412"><ele>856.0</ele><time>2026-05-03T08:15:58Z</time></trkpt><trkpt lat="41.792443286390295" lon="14.099593701020883"><ele>858.0</ele><time>2026-05-03T08:15:59Z</time></trkpt><trkpt lat="41.792468296450636" lon="14.099393895758748"><ele>860.0</ele><time>2026-05-03T08:16:00Z</time></trkpt><trkpt lat="41.79250853818654" lon="14.099207228408757"><ele>863.3333333333334</ele><time>2026-05-03T08:16:01Z</time></trkpt><trkpt lat="41.79250560673708" lon="14.098994573018519"><ele>866.6666666666667</ele><time>2026-05-03T08:16:02Z</time></trkpt><trkpt lat="41.79251856034239" lon="14.098762461366361"><ele>870.0</ele><time>2026-05-03T08:16:03Z</time></trkpt><trkpt lat="41.7925575174536" lon="14.0985574625043"><ele>870.0</ele><time>2026-05-03T08:16:04Z</time></trkpt><trkpt lat="41.7925373264106" lon="14.098370008468653"><ele>870.0</ele><time>2026-05-03T08:16:05Z</time></trkpt><trkpt lat="41.79251456751416" lon="14.098178750887147"><ele>870.0</ele><time>2026-05-03T08:16:06Z</time></trkpt><trkpt lat="41.79252588965343" lon="14.098026060406045"><ele>870.0</ele><time>2026-05-03T08:16:07Z</time></trkpt><trkpt lat="41.79249583634636" lon="14.09789722730794"><ele>871.1666666666666</ele><time>2026-05-03T08:16:08Z</time></trkpt><trkpt lat="41.79244012958603" lon="14.097788167754487"><ele>872.3333333333333</ele><time>2026-05-03T08:16:09Z</time></trkpt><trkpt lat="41.79237967122879" lon="14.097717751507547"><ele>873.5</ele><time>2026-05-03T08:16:10Z</time></trkpt><trkpt lat="41.792335794809375" lon="14.097644589153335"><ele>874.6666666666666</ele><time>2026-05-03T08:16:11Z</time></trkpt><trkpt lat="41.79225338401705" lon="14.097613413199795"><ele>875.8333333333333</ele><time>2026-05-03T08:16:12Z</time></trkpt><trkpt lat="41.792168623471504" lon="14.097581656789176"><ele>877.0</ele><time>2026-05-03T08:16:13Z</time></trkpt><trkpt lat="41.792112130226585" lon="14.097534331799116"><ele>876.9999999999999</ele><time>2026-05-03T08:16:14Z</time></trkpt><trkpt lat="41.79210143948146" lon="14.097428068471936"><ele>877.0</ele><time>2026-05-03T08:16:15Z</time></trkpt><trkpt lat="41.79206909576402" lon="14.097277506186316"><ele>877.0</ele><time>2026-05-03T08:16:17Z</time></trkpt><trkpt lat="41.79212545709715" lon="14.097181365221305"><ele>877.0</ele><time>2026-05-03T08:16:18Z</time></trkpt><trkpt lat="41.79216975409044" lon="14.09708579843964"><ele>876.9999999999999</ele><time>2026-05-03T08:16:19Z</time></trkpt><trkpt lat="41.79219960425698" lon="14.096992957467316"><ele>877.0</ele><time>2026-05-03T08:16:20Z</time></trkpt><trkpt lat="41.79221616213888" lon="14.096819193864595"><ele>880.0</ele><time>2026-05-03T08:16:22Z</time></trkpt><trkpt lat="41.792055381176716" lon="14.096677764070865"><ele>883.0</ele><time>2026-05-03T08:16:23Z</time></trkpt><trkpt lat="41.791964959010045" lon="14.09649987230602"><ele>886.0</ele><time>2026-05-03T08:16:24Z</time></trkpt><trkpt lat="41.791888430660244" lon="14.096325219897244"><ele>890.0</ele><time>2026-05-03T08:16:25Z</time></trkpt><trkpt lat="41.79180982917756" lon="14.0961268064507"><ele>894.0</ele><time>2026-05-03T08:16:26Z</time></trkpt><trkpt lat="41.7917218305597" lon="14.095975582458674"><ele>898.0</ele><time>2026-05-03T08:16:27Z</time></trkpt><trkpt lat="41.79163517625114" lon="14.095840979407487"><ele>902.0</ele><time>2026-05-03T08:16:28Z</time></trkpt><trkpt lat="41.79155491976428" lon="14.095704747937145"><ele>903.75</ele><time>2026-05-03T08:16:29Z</time></trkpt><trkpt lat="41.791478819162286" lon="14.095553088396821"><ele>905.5</ele><time>2026-05-03T08:16:30Z</time></trkpt><trkpt lat="41.7914044443572" lon="14.095389597504271"><ele>907.25</ele><time>2026-05-03T08:16:31Z</time></trkpt><trkpt lat="41.79133415864224" lon="14.095222372654625"><ele>909.0</ele><time>2026-05-03T08:16:32Z</time></trkpt><trkpt lat="41.791251105113176" lon="14.095063126161385"><ele>912.5</ele><time>2026-05-03T08:16:33Z</time></trkpt><trkpt lat="41.79119547052778" lon="14.094917349096768"><ele>916.0</ele><time>2026-05-03T08:16:34Z</time></trkpt><trkpt lat="41.791137331124965" lon="14.09478292265558"><ele>919.5</ele><time>2026-05-03T08:16:35Z</time></trkpt><trkpt lat="41.79106846334763" lon="14.094630292115678"><ele>923.0</ele><time>2026-05-03T08:16:36Z</time></trkpt><trkpt lat="41.79100282009942" lon="14.094452481263975"><ele>923.0</ele><time>2026-05-03T08:16:37Z</time></trkpt><trkpt lat="41.79095437147741" lon="14.094260299221835"><ele>923.0</ele><time>2026-05-03T08:16:38Z</time></trkpt><trkpt lat="41.79091307253674" lon="14.094083023300204"><ele>923.0</ele><time>2026-05-03T08:16:39Z</time></trkpt><trkpt lat="41.79091201788811" lon="14.09390727239741"><ele>923.0</ele><time>2026-05-03T08:16:40Z</time></trkpt><trkpt lat="41.79089863548157" lon="14.09377378822509"><ele>924.8</ele><time>2026-05-03T08:16:41Z</time></trkpt><trkpt lat="41.79089785385571" lon="14.09365440208416"><ele>926.5999999999999</ele><time>2026-05-03T08:16:42Z</time></trkpt><trkpt lat="41.790919877356984" lon="14.093529709743114"><ele>928.4000000000001</ele><time>2026-05-03T08:16:43Z</time></trkpt><trkpt lat="41.7909512328631" lon="14.09338095679852"><ele>930.2</ele><time>2026-05-03T08:16:44Z</time></trkpt><trkpt lat="41.79099657234371" lon="14.093230285230536"><ele>932.0</ele><time>2026-05-03T08:16:45Z</time></trkpt><trkpt lat="41.79104650290798" lon="14.093070299499315"><ele>935.75</ele><time>2026-05-03T08:16:46Z</time></trkpt><trkpt lat="41.79109978693379" lon="14.092905642959366"><ele>939.5</ele><time>2026-05-03T08:16:47Z</time></trkpt><trkpt lat="41.79114596245674" lon="14.09277467130431"><ele>943.25</ele><time>2026-05-03T08:16:48Z</time></trkpt><trkpt lat="41.79120251452866" lon="14.092638553114552"><ele>947.0</ele><time>2026-05-03T08:16:49Z</time></trkpt><trkpt lat="41.791271421276235" lon="14.092521807991595"><ele>949.25</ele><time>2026-05-03T08:16:50Z</time></trkpt><trkpt lat="41.79135670455935" lon="14.092412055365305"><ele>951.5</ele><time>2026-05-03T08:16:51Z</time></trkpt><trkpt lat="41.79146448529999" lon="14.09226943135574"><ele>953.75</ele><time>2026-05-03T08:16:52Z</time></trkpt><trkpt lat="41.79155879535142" lon="14.09217974676346"><ele>956.0</ele><time>2026-05-03T08:16:53Z</time></trkpt><trkpt lat="41.79162952358911" lon="14.092088881252076"><ele>956.0</ele><time>2026-05-03T08:16:54Z</time></trkpt><trkpt lat="41.79171621950978" lon="14.091993793054742"><ele>956.0</ele><time>2026-05-03T08:16:55Z</time></trkpt><trkpt lat="41.79181237114761" lon="14.091916137726006"><ele>956.0</ele><time>2026-05-03T08:16:56Z</time></trkpt><trkpt lat="41.791898621224" lon="14.09178669602009"><ele>956.0</ele><time>2026-05-03T08:16:57Z</time></trkpt><trkpt lat="41.79196742360443" lon="14.091652208864879"><ele>959.5999999999999</ele><time>2026-05-03T08:16:58Z</time></trkpt><trkpt lat="41.792050001503846" lon="14.091537915910573"><ele>963.1999999999999</ele><time>2026-05-03T08:16:59Z</time></trkpt><trkpt lat="41.79214601349619" lon="14.091441440828453"><ele>966.8000000000001</ele><time>2026-05-03T08:17:00Z</time></trkpt><trkpt lat="41.79222532732403" lon="14.091339139032021"><ele>970.4000000000001</ele><time>2026-05-03T08:17:01Z</time></trkpt><trkpt lat="41.792289992490446" lon="14.091250628573635"><ele>974.0</ele><time>2026-05-03T08:17:02Z</time></trkpt><trkpt lat="41.79234910169887" lon="14.091158326618666"><ele>974.0</ele><time>2026-05-03T08:17:03Z</time></trkpt><trkpt lat="41.79240068152153" lon="14.091051831859172"><ele>974.0000000000001</ele><time>2026-05-03T08:17:04Z</time></trkpt><trkpt lat="41.79245866363802" lon="14.090954232336946"><ele>974.0000000000001</ele><time>2026-05-03T08:17:05Z</time></trkpt><trkpt lat="41.7925274491434" lon="14.090858683744274"><ele>974.0</ele><time>2026-05-03T08:17:06.001Z</time></trkpt><trkpt lat="41.792594467248996" lon="14.090733766647604"><ele>974.0</ele><time>2026-05-03T08:17:07.001Z</time></trkpt><trkpt lat="41.79266348972633" lon="14.09060601246836"><ele>978.4000000000001</ele><time>2026-05-03T08:17:08.001Z</time></trkpt><trkpt lat="41.79272567691921" lon="14.090492646937362"><ele>982.8000000000001</ele><time>2026-05-03T08:17:09.001Z</time></trkpt><trkpt lat="41.79280632825795" lon="14.090406956377866"><ele>987.1999999999999</ele><time>2026-05-03T08:17:10.001Z</time></trkpt><trkpt lat="41.79286409661317" lon="14.090329406121334"><ele>991.5999999999999</ele><time>2026-05-03T08:17:11.001Z</time></trkpt><trkpt lat="41.79292985881616" lon="14.09024245978921"><ele>996.0</ele><time>2026-05-03T08:17:12.001Z</time></trkpt><trkpt lat="41.792989742135006" lon="14.090148971384593"><ele>996.0</ele><time>2026-05-03T08:17:13.001Z</time></trkpt><trkpt lat="41.79304139480961" lon="14.09006171034264"><ele>995.9999999999999</ele><time>2026-05-03T08:17:14.001Z</time></trkpt><trkpt lat="41.79310015819259" lon="14.08999461088409"><ele>995.9999999999999</ele><time>2026-05-03T08:17:15.001Z</time></trkpt><trkpt lat="41.7931508415685" lon="14.089916931243234"><ele>996.0</ele><time>2026-05-03T08:17:16.001Z</time></trkpt><trkpt lat="41.79325813101303" lon="14.08984393737663"><ele>996.0</ele><time>2026-05-03T08:17:18.001Z</time></trkpt><trkpt lat="41.79333909825344" lon="14.089753873704575"><ele>997.3333333333334</ele><time>2026-05-03T08:17:20.001Z</time></trkpt><trkpt lat="41.79338243346182" lon="14.08969012061725"><ele>998.6666666666667</ele><time>2026-05-03T08:17:21Z</time></trkpt><trkpt lat="41.79340969953149" lon="14.089594409167551"><ele>1000.0</ele><time>2026-05-03T08:17:22Z</time></trkpt><trkpt lat="41.79346055087468" lon="14.089527838374018"><ele>1001.3333333333334</ele><time>2026-05-03T08:17:23Z</time></trkpt><trkpt lat="41.79349531797786" lon="14.089456407996606"><ele>1002.6666666666667</ele><time>2026-05-03T08:17:24Z</time></trkpt><trkpt lat="41.79356713611551" lon="14.089308755509434"><ele>1004.0</ele><time>2026-05-03T08:17:26Z</time></trkpt><trkpt lat="41.79360399733922" lon="14.08917660307769"><ele>1005.4285714285713</ele><time>2026-05-03T08:17:28Z</time></trkpt><trkpt lat="41.793634952768585" lon="14.089096680904506"><ele>1006.8571428571429</ele><time>2026-05-03T08:17:29Z</time></trkpt><trkpt lat="41.793681721729044" lon="14.089029625857057"><ele>1008.2857142857142</ele><time>2026-05-03T08:17:30Z</time></trkpt><trkpt lat="41.7937405967134" lon="14.088953703138069"><ele>1009.7142857142857</ele><time>2026-05-03T08:17:31Z</time></trkpt><trkpt lat="41.79379472577734" lon="14.088897721481485"><ele>1011.1428571428571</ele><time>2026-05-03T08:17:32Z</time></trkpt><trkpt lat="41.79385531806915" lon="14.08883517574063"><ele>1012.5714285714286</ele><time>2026-05-03T08:17:33Z</time></trkpt><trkpt lat="41.79391084538615" lon="14.088766283959812"><ele>1014.0</ele><time>2026-05-03T08:17:34Z</time></trkpt><trkpt lat="41.79393705114315" lon="14.088687946802517"><ele>1014.8000000000001</ele><time>2026-05-03T08:17:35Z</time></trkpt><trkpt lat="41.79397588823345" lon="14.088612910421629"><ele>1015.6000000000001</ele><time>2026-05-03T08:17:36Z</time></trkpt><trkpt lat="41.794061301207485" lon="14.088452902623871"><ele>1016.4</ele><time>2026-05-03T08:17:38Z</time></trkpt><trkpt lat="41.7941179666104" lon="14.08837181612083"><ele>1017.2</ele><time>2026-05-03T08:17:39Z</time></trkpt><trkpt lat="41.79419894657203" lon="14.088249501079"><ele>1018.0</ele><time>2026-05-03T08:17:41Z</time></trkpt><trkpt lat="41.79423664373932" lon="14.088172689308292"><ele>1021.5999999999999</ele><time>2026-05-03T08:17:42Z</time></trkpt><trkpt lat="41.79427655411594" lon="14.088022189415359"><ele>1025.1999999999998</ele><time>2026-05-03T08:17:44Z</time></trkpt><trkpt lat="41.79434492359687" lon="14.087936199239595"><ele>1028.8</ele><time>2026-05-03T08:17:45Z</time></trkpt><trkpt lat="41.79440767063406" lon="14.08784544498607"><ele>1032.3999999999999</ele><time>2026-05-03T08:17:46Z</time></trkpt><trkpt lat="41.79444535950338" lon="14.087756023543959"><ele>1036.0</ele><time>2026-05-03T08:17:47Z</time></trkpt><trkpt lat="41.79449892081339" lon="14.087695942557506"><ele>1036.0</ele><time>2026-05-03T08:17:48Z</time></trkpt><trkpt lat="41.79454831761778" lon="14.087626769601492"><ele>1036.0</ele><time>2026-05-03T08:17:49Z</time></trkpt><trkpt lat="41.7946309324463" lon="14.08754727640587"><ele>1036.0</ele><time>2026-05-03T08:17:50Z</time></trkpt><trkpt lat="41.7947045962937" lon="14.08744054889773"><ele>1036.0</ele><time>2026-05-03T08:17:51Z</time></trkpt><trkpt lat="41.79477323370284" lon="14.087341315679627"><ele>1036.0</ele><time>2026-05-03T08:17:52Z</time></trkpt><trkpt lat="41.79481865454242" lon="14.087252902687304"><ele>1038.6666666666665</ele><time>2026-05-03T08:17:53Z</time></trkpt><trkpt lat="41.79491113439458" lon="14.08713430348391"><ele>1041.3333333333333</ele><time>2026-05-03T08:17:55Z</time></trkpt><trkpt lat="41.79496831792021" lon="14.08704462328866"><ele>1044.0</ele><time>2026-05-03T08:17:56Z</time></trkpt><trkpt lat="41.79503293793937" lon="14.086975887466034"><ele>1046.6666666666667</ele><time>2026-05-03T08:17:57Z</time></trkpt><trkpt lat="41.79507107687138" lon="14.08690044636093"><ele>1049.3333333333335</ele><time>2026-05-03T08:17:58Z</time></trkpt><trkpt lat="41.79511847680576" lon="14.086834709868649"><ele>1052.0</ele><time>2026-05-03T08:17:59Z</time></trkpt><trkpt lat="41.79518181470704" lon="14.086822892899507"><ele>1052.8</ele><time>2026-05-03T08:18:00Z</time></trkpt><trkpt lat="41.79525525429371" lon="14.086842791413222"><ele>1053.6</ele><time>2026-05-03T08:18:01Z</time></trkpt><trkpt lat="41.79532584312571" lon="14.08683173972893"><ele>1054.3999999999999</ele><time>2026-05-03T08:18:02Z</time></trkpt><trkpt lat="41.79543963832737" lon="14.08671234987011"><ele>1055.2</ele><time>2026-05-03T08:18:04Z</time></trkpt><trkpt lat="41.795485222408885" lon="14.0866230961904"><ele>1056.0</ele><time>2026-05-03T08:18:05Z</time></trkpt><trkpt lat="41.795572103966194" lon="14.086556029637178"><ele>1058.3333333333333</ele><time>2026-05-03T08:18:06Z</time></trkpt><trkpt lat="41.795635373346606" lon="14.086492383026552"><ele>1060.6666666666667</ele><time>2026-05-03T08:18:07Z</time></trkpt><trkpt lat="41.79569413128464" lon="14.086435262592785"><ele>1063.0</ele><time>2026-05-03T08:18:08Z</time></trkpt><trkpt lat="41.795770947413956" lon="14.086399694656727"><ele>1065.3333333333335</ele><time>2026-05-03T08:18:09Z</time></trkpt><trkpt lat="41.795847733457705" lon="14.086337717084154"><ele>1067.6666666666667</ele><time>2026-05-03T08:18:10Z</time></trkpt><trkpt lat="41.79593050842075" lon="14.086208781508684"><ele>1070.0</ele><time>2026-05-03T08:18:12Z</time></trkpt><trkpt lat="41.79596157650783" lon="14.086127356232165"><ele>1070.8</ele><time>2026-05-03T08:18:13Z</time></trkpt><trkpt lat="41.79601977147674" lon="14.086089564988573"><ele>1071.6</ele><time>2026-05-03T08:18:14Z</time></trkpt><trkpt lat="41.796097780428255" lon="14.086064376194788"><ele>1072.4</ele><time>2026-05-03T08:18:15Z</time></trkpt><trkpt lat="41.79617292511374" lon="14.086015613002786"><ele>1073.2</ele><time>2026-05-03T08:18:16Z</time></trkpt><trkpt lat="41.79626508301105" lon="14.085904644829503"><ele>1074.0</ele><time>2026-05-03T08:18:18Z</time></trkpt><trkpt lat="41.796333322039686" lon="14.085761357950553"><ele>1076.1666666666667</ele><time>2026-05-03T08:18:20Z</time></trkpt><trkpt lat="41.79639503141725" lon="14.085727821608117"><ele>1078.3333333333333</ele><time>2026-05-03T08:18:21Z</time></trkpt><trkpt lat="41.79646109289226" lon="14.085703712738473"><ele>1080.5</ele><time>2026-05-03T08:18:22Z</time></trkpt><trkpt lat="41.79653246030099" lon="14.08568197305221"><ele>1082.6666666666665</ele><time>2026-05-03T08:18:23Z</time></trkpt><trkpt lat="41.79660946612728" lon="14.085655768892222"><ele>1084.8333333333333</ele><time>2026-05-03T08:18:24Z</time></trkpt><trkpt lat="41.796697067383185" lon="14.085624630970736"><ele>1087.0</ele><time>2026-05-03T08:18:25Z</time></trkpt><trkpt lat="41.79676888319994" lon="14.085592007064365"><ele>1087.2</ele><time>2026-05-03T08:18:26Z</time></trkpt><trkpt lat="41.79686007893383" lon="14.085504229626629"><ele>1087.4</ele><time>2026-05-03T08:18:28Z</time></trkpt><trkpt lat="41.79692268993286" lon="14.085454800196201"><ele>1087.6</ele><time>2026-05-03T08:18:29Z</time></trkpt><trkpt lat="41.79698074483157" lon="14.085396489742873"><ele>1087.8</ele><time>2026-05-03T08:18:30Z</time></trkpt><trkpt lat="41.79707213465459" lon="14.085300252922897"><ele>1088.0</ele><time>2026-05-03T08:18:32Z</time></trkpt><trkpt lat="41.79713572246925" lon="14.085230654153477"><ele>1088.0</ele><time>2026-05-03T08:18:33Z</time></trkpt><trkpt lat="41.79721197380318" lon="14.085175111847732"><ele>1088.0</ele><time>2026-05-03T08:18:34Z</time></trkpt><trkpt lat="41.79729249576718" lon="14.085168972921814"><ele>1088.0</ele><time>2026-05-03T08:18:35Z</time></trkpt><trkpt lat="41.79738193767826" lon="14.08516541123194"><ele>1088.0</ele><time>2026-05-03T08:18:37Z</time></trkpt><trkpt lat="41.797411637137735" lon="14.085000726754163"><ele>1088.0</ele><time>2026-05-03T08:18:40Z</time></trkpt><trkpt lat="41.797387159663714" lon="14.084917904341605"><ele>1090.5</ele><time>2026-05-03T08:18:43Z</time></trkpt><trkpt lat="41.79734942088076" lon="14.084846900946397"><ele>1093.0</ele><time>2026-05-03T08:19:07Z</time></trkpt><trkpt lat="41.79726703219711" lon="14.084773938586777"><ele>1095.5</ele><time>2026-05-03T08:19:10Z</time></trkpt><trkpt lat="41.79719426486677" lon="14.08475673182248"><ele>1098.0</ele><time>2026-05-03T08:19:11Z</time></trkpt><trkpt lat="41.79710876429915" lon="14.08474161052286"><ele>1100.5</ele><time>2026-05-03T08:19:12.001Z</time></trkpt><trkpt lat="41.797020426975" lon="14.084742805397983"><ele>1103.0</ele><time>2026-05-03T08:19:13.001Z</time></trkpt><trkpt lat="41.79693270739446" lon="14.084726418023592"><ele>1104.8</ele><time>2026-05-03T08:19:14.001Z</time></trkpt><trkpt lat="41.796834458608906" lon="14.084730977142826"><ele>1106.6</ele><time>2026-05-03T08:19:15.001Z</time></trkpt><trkpt lat="41.79675171738441" lon="14.084735287633205"><ele>1108.4</ele><time>2026-05-03T08:19:16.001Z</time></trkpt><trkpt lat="41.79666672464169" lon="14.084741447846456"><ele>1110.2</ele><time>2026-05-03T08:19:17.001Z</time></trkpt><trkpt lat="41.796560064406435" lon="14.084756285849368"><ele>1112.0</ele><time>2026-05-03T08:19:18.001Z</time></trkpt><trkpt lat="41.79643419674712" lon="14.084768324128166"><ele>1112.0</ele><time>2026-05-03T08:19:19.001Z</time></trkpt><trkpt lat="41.79631323534136" lon="14.084756758813134"><ele>1112.0</ele><time>2026-05-03T08:19:20.001Z</time></trkpt><trkpt lat="41.79620999460535" lon="14.084715987290597"><ele>1112.0</ele><time>2026-05-03T08:19:21.001Z</time></trkpt><trkpt lat="41.79610079968324" lon="14.084690437343044"><ele>1112.0</ele><time>2026-05-03T08:19:22.001Z</time></trkpt><trkpt lat="41.79601330008028" lon="14.08463514685648"><ele>1112.0</ele><time>2026-05-03T08:19:23.001Z</time></trkpt><trkpt lat="41.795937442952734" lon="14.084616224015079"><ele>1114.4</ele><time>2026-05-03T08:19:24.001Z</time></trkpt><trkpt lat="41.7958388051833" lon="14.084578706456435"><ele>1116.8000000000002</ele><time>2026-05-03T08:19:26.001Z</time></trkpt><trkpt lat="41.79576209359563" lon="14.084567400622433"><ele>1119.2</ele><time>2026-05-03T08:19:28.001Z</time></trkpt><trkpt lat="41.79564542503527" lon="14.084597772893762"><ele>1121.6000000000001</ele><time>2026-05-03T08:19:30.001Z</time></trkpt><trkpt lat="41.79551483112612" lon="14.084603076260182"><ele>1124.0</ele><time>2026-05-03T08:19:32Z</time></trkpt><trkpt lat="41.7954373529707" lon="14.084652439569773"><ele>1124.0</ele><time>2026-05-03T08:19:33Z</time></trkpt><trkpt lat="41.7953457508799" lon="14.084689583055658"><ele>1124.0</ele><time>2026-05-03T08:19:34Z</time></trkpt><trkpt lat="41.79524951749647" lon="14.084734696351557"><ele>1124.0</ele><time>2026-05-03T08:19:35Z</time></trkpt><trkpt lat="41.79516974138855" lon="14.084766480355619"><ele>1124.0</ele><time>2026-05-03T08:19:36Z</time></trkpt><trkpt lat="41.79510035457148" lon="14.08481342068091"><ele>1124.0</ele><time>2026-05-03T08:19:37Z</time></trkpt><trkpt lat="41.79496532436346" lon="14.084863530609624"><ele>1123.0</ele><time>2026-05-03T08:19:39Z</time></trkpt><trkpt lat="41.79488665321331" lon="14.084843854756462"><ele>1122.0</ele><time>2026-05-03T08:19:40Z</time></trkpt><trkpt lat="41.79477827478761" lon="14.08483946173139"><ele>1121.0</ele><time>2026-05-03T08:19:42Z</time></trkpt><trkpt lat="41.79468480327301" lon="14.084880332914176"><ele>1120.0</ele><time>2026-05-03T08:19:43Z</time></trkpt><trkpt lat="41.794623507494734" lon="14.08493800407788"><ele>1119.0</ele><time>2026-05-03T08:19:44Z</time></trkpt><trkpt lat="41.794552812616544" lon="14.084940293578674"><ele>1118.0</ele><time>2026-05-03T08:19:45Z</time></trkpt><trkpt lat="41.794432378800124" lon="14.085000147003887"><ele>1118.0</ele><time>2026-05-03T08:19:47Z</time></trkpt><trkpt lat="41.79436271315368" lon="14.08508694364448"><ele>1118.0</ele><time>2026-05-03T08:19:48Z</time></trkpt><trkpt lat="41.7942537662773" lon="14.08516986196286"><ele>1118.0</ele><time>2026-05-03T08:19:50Z</time></trkpt><trkpt lat="41.794175710620856" lon="14.085238384799368"><ele>1118.0</ele><time>2026-05-03T08:19:51Z</time></trkpt><trkpt lat="41.79406417051524" lon="14.085259834812586"><ele>1118.0</ele><time>2026-05-03T08:19:52Z</time></trkpt><trkpt lat="41.79398592341331" lon="14.085286380600234"><ele>1124.4</ele><time>2026-05-03T08:19:53Z</time></trkpt><trkpt lat="41.79387538543811" lon="14.085334989433605"><ele>1130.8</ele><time>2026-05-03T08:19:54Z</time></trkpt><trkpt lat="41.79377086277218" lon="14.085430465569441"><ele>1137.2</ele><time>2026-05-03T08:19:55Z</time></trkpt><trkpt lat="41.79370246900192" lon="14.085478241988202"><ele>1143.6</ele><time>2026-05-03T08:19:56Z</time></trkpt><trkpt lat="41.793639486950546" lon="14.085506753368309"><ele>1150.0</ele><time>2026-05-03T08:19:57Z</time></trkpt><trkpt lat="41.79354200744372" lon="14.085533472957003"><ele>1156.6</ele><time>2026-05-03T08:19:58Z</time></trkpt><trkpt lat="41.793442477990375" lon="14.085519579097129"><ele>1163.2</ele><time>2026-05-03T08:20:00Z</time></trkpt><trkpt lat="41.79336521817471" lon="14.085551910771317"><ele>1169.8</ele><time>2026-05-03T08:20:02Z</time></trkpt><trkpt lat="41.79328236106049" lon="14.08555561624734"><ele>1176.4</ele><time>2026-05-03T08:20:04Z</time></trkpt><trkpt lat="41.79318192802478" lon="14.085554562430062"><ele>1183.0</ele><time>2026-05-03T08:20:06Z</time></trkpt><trkpt lat="41.79306779206585" lon="14.085578452145239"><ele>1183.0</ele><time>2026-05-03T08:20:08Z</time></trkpt><trkpt lat="41.79297602303516" lon="14.085619002016372"><ele>1183.0</ele><time>2026-05-03T08:20:10Z</time></trkpt><trkpt lat="41.79290704375041" lon="14.085641535566438"><ele>1183.0</ele><time>2026-05-03T08:20:11Z</time></trkpt><trkpt lat="41.792811300625544" lon="14.085646750393389"><ele>1183.0</ele><time>2026-05-03T08:20:12Z</time></trkpt><trkpt lat="41.79270367589559" lon="14.085679962866827"><ele>1183.0</ele><time>2026-05-03T08:20:13Z</time></trkpt><trkpt lat="41.792601161903775" lon="14.085696373517123"><ele>1184.1666666666665</ele><time>2026-05-03T08:20:14Z</time></trkpt><trkpt lat="41.792513070130866" lon="14.085719265588901"><ele>1185.3333333333333</ele><time>2026-05-03T08:20:15Z</time></trkpt><trkpt lat="41.79242237940347" lon="14.085752442785038"><ele>1186.5</ele><time>2026-05-03T08:20:16Z</time></trkpt><trkpt lat="41.79233354941089" lon="14.0857664181909"><ele>1187.6666666666667</ele><time>2026-05-03T08:20:17Z</time></trkpt><trkpt lat="41.79226723068051" lon="14.08574915441158"><ele>1188.8333333333335</ele><time>2026-05-03T08:20:18Z</time></trkpt><trkpt lat="41.79218812481985" lon="14.08574976219443"><ele>1190.0</ele><time>2026-05-03T08:20:19Z</time></trkpt><trkpt lat="41.79207659806508" lon="14.085795404695661"><ele>1188.8</ele><time>2026-05-03T08:20:20Z</time></trkpt><trkpt lat="41.79194942181064" lon="14.085861169583632"><ele>1187.6</ele><time>2026-05-03T08:20:21Z</time></trkpt><trkpt lat="41.791862917077886" lon="14.08589133642465"><ele>1186.4</ele><time>2026-05-03T08:20:22Z</time></trkpt><trkpt lat="41.791795040253504" lon="14.085857610768546"><ele>1185.2</ele><time>2026-05-03T08:20:23Z</time></trkpt><trkpt lat="41.791701846095165" lon="14.08576540832235"><ele>1184.0</ele><time>2026-05-03T08:20:24Z</time></trkpt><trkpt lat="41.791589526440994" lon="14.08565234528113"><ele>1184.0</ele><time>2026-05-03T08:20:25Z</time></trkpt><trkpt lat="41.79149667685382" lon="14.085566880723203"><ele>1184.0</ele><time>2026-05-03T08:20:26Z</time></trkpt><trkpt lat="41.791420063511" lon="14.085493391583286"><ele>1184.0</ele><time>2026-05-03T08:20:27Z</time></trkpt><trkpt lat="41.79131238869419" lon="14.085435024278222"><ele>1184.0</ele><time>2026-05-03T08:20:28Z</time></trkpt><trkpt lat="41.79122233690982" lon="14.085369028952009"><ele>1184.0</ele><time>2026-05-03T08:20:29Z</time></trkpt><trkpt lat="41.7911489511335" lon="14.08531798002581"><ele>1184.0</ele><time>2026-05-03T08:20:30Z</time></trkpt><trkpt lat="41.791076031301834" lon="14.08525454611748"><ele>1184.0</ele><time>2026-05-03T08:20:31Z</time></trkpt><trkpt lat="41.790986661201735" lon="14.08518559742397"><ele>1184.0</ele><time>2026-05-03T08:20:32Z</time></trkpt><trkpt lat="41.790922367327575" lon="14.085113075946213"><ele>1184.0</ele><time>2026-05-03T08:20:33Z</time></trkpt><trkpt lat="41.790862169225456" lon="14.085037167615848"><ele>1184.0</ele><time>2026-05-03T08:20:34Z</time></trkpt><trkpt lat="41.79079831678198" lon="14.084991929712743"><ele>1184.0</ele><time>2026-05-03T08:20:35Z</time></trkpt><trkpt lat="41.79068213912087" lon="14.084987559633715"><ele>1181.8</ele><time>2026-05-03T08:20:37Z</time></trkpt><trkpt lat="41.79055218892141" lon="14.085071183696687"><ele>1179.6000000000001</ele><time>2026-05-03T08:20:39Z</time></trkpt><trkpt lat="41.79043268194897" lon="14.085070047323953"><ele>1177.4</ele><time>2026-05-03T08:20:41Z</time></trkpt><trkpt lat="41.79035395263749" lon="14.085067934919515"><ele>1175.2</ele><time>2026-05-03T08:20:42Z</time></trkpt><trkpt lat="41.79028636503339" lon="14.085069232233513"><ele>1173.0</ele><time>2026-05-03T08:20:43Z</time></trkpt><trkpt lat="41.790204427473554" lon="14.085067911617628"><ele>1171.5714285714287</ele><time>2026-05-03T08:20:44Z</time></trkpt><trkpt lat="41.79014105952732" lon="14.085056643588917"><ele>1170.142857142857</ele><time>2026-05-03T08:20:45Z</time></trkpt><trkpt lat="41.7900734111526" lon="14.085025311733222"><ele>1168.7142857142858</ele><time>2026-05-03T08:20:46Z</time></trkpt><trkpt lat="41.79000833747977" lon="14.085003896935149"><ele>1167.2857142857142</ele><time>2026-05-03T08:20:47Z</time></trkpt><trkpt lat="41.78991609921038" lon="14.085003016561455"><ele>1165.857142857143</ele><time>2026-05-03T08:20:48Z</time></trkpt><trkpt lat="41.78985265571941" lon="14.08499902935312"><ele>1164.4285714285716</ele><time>2026-05-03T08:20:49Z</time></trkpt><trkpt lat="41.78977542471917" lon="14.084950949077921"><ele>1163.0</ele><time>2026-05-03T08:20:50Z</time></trkpt><trkpt lat="41.78973940753052" lon="14.084873906710285"><ele>1169.2</ele><time>2026-05-03T08:20:51Z</time></trkpt><trkpt lat="41.78967338817252" lon="14.084792773828816"><ele>1175.4</ele><time>2026-05-03T08:20:52Z</time></trkpt><trkpt lat="41.78959822348507" lon="14.084719091899405"><ele>1181.6000000000001</ele><time>2026-05-03T08:20:53Z</time></trkpt><trkpt lat="41.7895544277681" lon="14.084642878062345"><ele>1187.8</ele><time>2026-05-03T08:20:54Z</time></trkpt><trkpt lat="41.789468347163385" lon="14.084539712284519"><ele>1194.0</ele><time>2026-05-03T08:20:56Z</time></trkpt><trkpt lat="41.789404303319" lon="14.084439333870629"><ele>1195.3333333333333</ele><time>2026-05-03T08:20:57Z</time></trkpt><trkpt lat="41.78932820184372" lon="14.084362646109001"><ele>1196.6666666666667</ele><time>2026-05-03T08:20:58Z</time></trkpt><trkpt lat="41.789265634989604" lon="14.084275585121167"><ele>1198.0</ele><time>2026-05-03T08:20:59Z</time></trkpt><trkpt lat="41.789230033811535" lon="14.084197886031596"><ele>1199.3333333333335</ele><time>2026-05-03T08:21:00Z</time></trkpt><trkpt lat="41.7892014299339" lon="14.084121334202502"><ele>1200.6666666666667</ele><time>2026-05-03T08:21:01Z</time></trkpt><trkpt lat="41.78916437373356" lon="14.084034213698095"><ele>1202.0</ele><time>2026-05-03T08:21:02Z</time></trkpt><trkpt lat="41.78911264347792" lon="14.083879035553137"><ele>1202.0</ele><time>2026-05-03T08:21:04Z</time></trkpt><trkpt lat="41.78908336683887" lon="14.083801165291234"><ele>1202.0</ele><time>2026-05-03T08:21:05Z</time></trkpt><trkpt lat="41.789019394071374" lon="14.083731886590193"><ele>1202.0</ele><time>2026-05-03T08:21:06Z</time></trkpt><trkpt lat="41.788980500815306" lon="14.083639939092585"><ele>1202.0</ele><time>2026-05-03T08:21:07Z</time></trkpt><trkpt lat="41.7889439427394" lon="14.083566910074145"><ele>1202.0</ele><time>2026-05-03T08:21:08Z</time></trkpt><trkpt lat="41.78888427736549" lon="14.083474218819601"><ele>1202.0</ele><time>2026-05-03T08:21:10Z</time></trkpt><trkpt lat="41.788844958313824" lon="14.083386125176999"><ele>1202.0</ele><time>2026-05-03T08:21:11Z</time></trkpt><trkpt lat="41.78880499311769" lon="14.083320849675717"><ele>1202.0</ele><time>2026-05-03T08:21:12Z</time></trkpt><trkpt lat="41.78872067981745" lon="14.083274647658753"><ele>1202.0</ele><time>2026-05-03T08:21:13Z</time></trkpt><trkpt lat="41.788674920184256" lon="14.083203943638807"><ele>1202.0</ele><time>2026-05-03T08:21:14Z</time></trkpt><trkpt lat="41.788649261090974" lon="14.083110917273453"><ele>1202.0</ele><time>2026-05-03T08:21:15Z</time></trkpt><trkpt lat="41.78861807534295" lon="14.083032484884395"><ele>1202.0</ele><time>2026-05-03T08:21:16Z</time></trkpt><trkpt lat="41.78857254251877" lon="14.082965189441047"><ele>1202.0</ele><time>2026-05-03T08:21:17Z</time></trkpt><trkpt lat="41.78849732567349" lon="14.082909108705175"><ele>1203.4</ele><time>2026-05-03T08:21:18.001Z</time></trkpt><trkpt lat="41.788446037732996" lon="14.082811670786073"><ele>1204.8000000000002</ele><time>2026-05-03T08:21:19.001Z</time></trkpt><trkpt lat="41.788387848287186" lon="14.082712795630844"><ele>1206.2</ele><time>2026-05-03T08:21:20.001Z</time></trkpt><trkpt lat="41.78833615504871" lon="14.08264998392954"><ele>1207.6000000000001</ele><time>2026-05-03T08:21:21.001Z</time></trkpt><trkpt lat="41.78827293992284" lon="14.082620893692045"><ele>1209.0</ele><time>2026-05-03T08:21:22.001Z</time></trkpt><trkpt lat="41.78810537315384" lon="14.082504499312995"><ele>1215.5</ele><time>2026-05-03T08:21:24.001Z</time></trkpt><trkpt lat="41.78801977552925" lon="14.082408123907369"><ele>1222.0</ele><time>2026-05-03T08:21:25.001Z</time></trkpt><trkpt lat="41.78794946026939" lon="14.082323312044386"><ele>1228.5</ele><time>2026-05-03T08:21:26.001Z</time></trkpt><trkpt lat="41.78789450834545" lon="14.082239927551779"><ele>1235.0</ele><time>2026-05-03T08:21:27.001Z</time></trkpt><trkpt lat="41.78784768525506" lon="14.08217541114299"><ele>1241.5</ele><time>2026-05-03T08:21:28.001Z</time></trkpt><trkpt lat="41.787787636263346" lon="14.082143841377851"><ele>1248.0</ele><time>2026-05-03T08:21:29.001Z</time></trkpt><trkpt lat="41.787727644439975" lon="14.082043995205057"><ele>1248.0</ele><time>2026-05-03T08:21:30.001Z</time></trkpt><trkpt lat="41.78767745449815" lon="14.081970675221603"><ele>1248.0</ele><time>2026-05-03T08:21:31.001Z</time></trkpt><trkpt lat="41.78762540321417" lon="14.081895599143822"><ele>1248.0</ele><time>2026-05-03T08:21:32.001Z</time></trkpt><trkpt lat="41.787570322883674" lon="14.081802088538232"><ele>1248.0</ele><time>2026-05-03T08:21:33.001Z</time></trkpt><trkpt lat="41.78750812118491" lon="14.081719224668877"><ele>1248.0</ele><time>2026-05-03T08:21:34.001Z</time></trkpt><trkpt lat="41.78746219124429" lon="14.081645567598198"><ele>1248.0</ele><time>2026-05-03T08:21:35.001Z</time></trkpt><trkpt lat="41.78743149768213" lon="14.081494579925845"><ele>1249.4</ele><time>2026-05-03T08:21:37Z</time></trkpt><trkpt lat="41.787411454068824" lon="14.081329049532203"><ele>1250.8</ele><time>2026-05-03T08:21:39Z</time></trkpt><trkpt lat="41.78738263017495" lon="14.081237778118595"><ele>1252.2</ele><time>2026-05-03T08:21:41Z</time></trkpt><trkpt lat="41.787306333646015" lon="14.081164518826427"><ele>1253.6</ele><time>2026-05-03T08:22:44Z</time></trkpt><trkpt lat="41.78732339292041" lon="14.08106560435866"><ele>1255.0</ele><time>2026-05-03T08:22:46Z</time></trkpt><trkpt lat="41.787280123611794" lon="14.08095634445816"><ele>1255.0</ele><time>2026-05-03T08:22:48Z</time></trkpt><trkpt lat="41.78720423364126" lon="14.080906027187048"><ele>1255.0</ele><time>2026-05-03T08:22:50Z</time></trkpt><trkpt lat="41.78714565005333" lon="14.08084219585634"><ele>1255.0</ele><time>2026-05-03T08:22:52Z</time></trkpt><trkpt lat="41.78705620938875" lon="14.080789410119854"><ele>1255.0</ele><time>2026-05-03T08:22:54Z</time></trkpt><trkpt lat="41.78701964016053" lon="14.080698556033829"><ele>1255.0</ele><time>2026-05-03T08:22:56Z</time></trkpt><trkpt lat="41.78697570552905" lon="14.08063250118712"><ele>1255.0</ele><time>2026-05-03T08:22:57Z</time></trkpt><trkpt lat="41.78706507817448" lon="14.080516912051738"><ele>1259.1666666666665</ele><time>2026-05-03T08:23:03Z</time></trkpt><trkpt lat="41.78707921915422" lon="14.080427568022072"><ele>1263.3333333333333</ele><time>2026-05-03T08:23:04Z</time></trkpt><trkpt lat="41.78714602639449" lon="14.080344387878602"><ele>1267.5</ele><time>2026-05-03T08:23:07Z</time></trkpt><trkpt lat="41.78724653668627" lon="14.080350921020537"><ele>1271.6666666666667</ele><time>2026-05-03T08:23:09Z</time></trkpt><trkpt lat="41.78731312494721" lon="14.080288111424613"><ele>1275.8333333333335</ele><time>2026-05-03T08:23:10Z</time></trkpt><trkpt lat="41.7872940552901" lon="14.080175538488326"><ele>1280.0</ele><time>2026-05-03T08:23:12Z</time></trkpt><trkpt lat="41.78723560315129" lon="14.080050693644637"><ele>1280.0</ele><time>2026-05-03T08:23:14Z</time></trkpt><trkpt lat="41.78717687159859" lon="14.080017651091856"><ele>1280.0</ele><time>2026-05-03T08:23:16Z</time></trkpt><trkpt lat="41.78711452977609" lon="14.079941247309584"><ele>1280.0</ele><time>2026-05-03T08:23:17.999Z</time></trkpt><trkpt lat="41.78702411818575" lon="14.07991230918846"><ele>1280.0</ele><time>2026-05-03T08:23:18.999Z</time></trkpt><trkpt lat="41.78695700644581" lon="14.079866419129019"><ele>1280.0</ele><time>2026-05-03T08:23:20.999Z</time></trkpt><trkpt lat="41.78689865758379" lon="14.079788578145958"><ele>1280.0</ele><time>2026-05-03T08:23:22.999Z</time></trkpt><trkpt lat="41.78689843081608" lon="14.079685491558564"><ele>1281.1666666666667</ele><time>2026-05-03T08:24:19Z</time></trkpt><trkpt lat="41.78684109677264" lon="14.079640981183635"><ele>1282.3333333333335</ele><time>2026-05-03T08:24:23Z</time></trkpt><trkpt lat="41.786763346155645" lon="14.079538075660967"><ele>1283.5</ele><time>2026-05-03T08:24:27Z</time></trkpt><trkpt lat="41.78672925630563" lon="14.07944258099193"><ele>1284.6666666666667</ele><time>2026-05-03T08:24:29Z</time></trkpt><trkpt lat="41.786673101775" lon="14.079331035926266"><ele>1285.8333333333333</ele><time>2026-05-03T08:24:31Z</time></trkpt><trkpt lat="41.78660489228742" lon="14.079249336160965"><ele>1287.0</ele><time>2026-05-03T08:24:33Z</time></trkpt><trkpt lat="41.78653130282903" lon="14.079163949113601"><ele>1289.8333333333333</ele><time>2026-05-03T08:24:35Z</time></trkpt><trkpt lat="41.786477033359866" lon="14.079094924884181"><ele>1292.6666666666667</ele><time>2026-05-03T08:24:36Z</time></trkpt><trkpt lat="41.78640115082587" lon="14.079018117033723"><ele>1295.5</ele><time>2026-05-03T08:24:38Z</time></trkpt><trkpt lat="41.78633571318828" lon="14.078940343072714"><ele>1298.3333333333335</ele><time>2026-05-03T08:24:40Z</time></trkpt><trkpt lat="41.786291809933935" lon="14.07887600528713"><ele>1301.1666666666667</ele><time>2026-05-03T08:24:41Z</time></trkpt><trkpt lat="41.786212760754964" lon="14.078756694343499"><ele>1304.0</ele><time>2026-05-03T08:24:43Z</time></trkpt><trkpt lat="41.78610403809776" lon="14.078685867336333"><ele>1306.3333333333335</ele><time>2026-05-03T08:24:45Z</time></trkpt><trkpt lat="41.78600504542501" lon="14.078651618995611"><ele>1308.6666666666667</ele><time>2026-05-03T08:24:47Z</time></trkpt><trkpt lat="41.78596416742393" lon="14.078584549369511"><ele>1311.0</ele><time>2026-05-03T08:24:48Z</time></trkpt><trkpt lat="41.78589403048199" lon="14.078521273302156"><ele>1313.3333333333333</ele><time>2026-05-03T08:24:50Z</time></trkpt><trkpt lat="41.7858287175459" lon="14.0785357620274"><ele>1315.6666666666665</ele><time>2026-05-03T08:24:53Z</time></trkpt><trkpt lat="41.78576633363201" lon="14.078407075334892"><ele>1318.0</ele><time>2026-05-03T08:26:24Z</time></trkpt><trkpt lat="41.78568448040316" lon="14.078432822547475"><ele>1318.0</ele><time>2026-05-03T08:26:30Z</time></trkpt><trkpt lat="41.785620177088504" lon="14.078414518359054"><ele>1318.0</ele><time>2026-05-03T08:26:32Z</time></trkpt><trkpt lat="41.78554530847593" lon="14.078377054769279"><ele>1318.0</ele><time>2026-05-03T08:26:35Z</time></trkpt><trkpt lat="41.78547886097368" lon="14.078367931596592"><ele>1318.0</ele><time>2026-05-03T08:26:37Z</time></trkpt><trkpt lat="41.785390298098896" lon="14.078333354941838"><ele>1318.0</ele><time>2026-05-03T08:26:40Z</time></trkpt><trkpt lat="41.7853229907582" lon="14.078317863149827"><ele>1318.0</ele><time>2026-05-03T08:26:42Z</time></trkpt><trkpt lat="41.78533873741567" lon="14.078229724116234"><ele>1318.0</ele><time>2026-05-03T08:26:46Z</time></trkpt><trkpt lat="41.78529895684576" lon="14.078154396292122"><ele>1323.1666666666665</ele><time>2026-05-03T08:26:50Z</time></trkpt><trkpt lat="41.78522197894972" lon="14.078127913548615"><ele>1328.3333333333333</ele><time>2026-05-03T08:26:53Z</time></trkpt><trkpt lat="41.78515277009901" lon="14.078097449936472"><ele>1333.5</ele><time>2026-05-03T08:26:56Z</time></trkpt><trkpt lat="41.78511673755427" lon="14.078022595575128"><ele>1338.6666666666667</ele><time>2026-05-03T08:27:14.999Z</time></trkpt><trkpt lat="41.78507391577512" lon="14.077941169715718"><ele>1343.8333333333335</ele><time>2026-05-03T08:27:17.999Z</time></trkpt><trkpt lat="41.78499458060903" lon="14.077980603629284"><ele>1349.0</ele><time>2026-05-03T08:27:20.999Z</time></trkpt><trkpt lat="41.78492090618452" lon="14.07798502350219"><ele>1350.8000000000002</ele><time>2026-05-03T08:27:21.999Z</time></trkpt><trkpt lat="41.78484562410406" lon="14.077946503995715"><ele>1352.6000000000001</ele><time>2026-05-03T08:27:23.999Z</time></trkpt><trkpt lat="41.78479426939117" lon="14.077882633734333"><ele>1354.4</ele><time>2026-05-03T08:27:24.999Z</time></trkpt><trkpt lat="41.78472718796658" lon="14.077779330206992"><ele>1356.2</ele><time>2026-05-03T08:27:26.999Z</time></trkpt><trkpt lat="41.78462713466312" lon="14.077717122768014"><ele>1358.0</ele><time>2026-05-03T08:27:28.999Z</time></trkpt><trkpt lat="41.78451335471305" lon="14.077654842743367"><ele>1358.0</ele><time>2026-05-03T08:27:30.999Z</time></trkpt><trkpt lat="41.78444633041911" lon="14.077645486066544"><ele>1358.0</ele><time>2026-05-03T08:27:31.999Z</time></trkpt><trkpt lat="41.78436476400627" lon="14.07765877507687"><ele>1358.0</ele><time>2026-05-03T08:27:32.999Z</time></trkpt><trkpt lat="41.784256910324956" lon="14.077710015483516"><ele>1358.0</ele><time>2026-05-03T08:27:34.999Z</time></trkpt><trkpt lat="41.78417565229487" lon="14.07774840977865"><ele>1358.0</ele><time>2026-05-03T08:27:37Z</time></trkpt><trkpt lat="41.7841034762824" lon="14.077744939564921"><ele>1358.0</ele><time>2026-05-03T08:27:38Z</time></trkpt><trkpt lat="41.78400171005415" lon="14.077793709811115"><ele>1359.8333333333335</ele><time>2026-05-03T08:27:39Z</time></trkpt><trkpt lat="41.78390161493053" lon="14.07776570899703"><ele>1361.6666666666667</ele><time>2026-05-03T08:27:41Z</time></trkpt><trkpt lat="41.78385445675181" lon="14.077681820207344"><ele>1363.5</ele><time>2026-05-03T08:27:43Z</time></trkpt><trkpt lat="41.783892582324285" lon="14.077570491623542"><ele>1365.3333333333333</ele><time>2026-05-03T08:27:46Z</time></trkpt><trkpt lat="41.7839492595618" lon="14.077533382749865"><ele>1367.1666666666665</ele><time>2026-05-03T08:27:48Z</time></trkpt><trkpt lat="41.783976315473325" lon="14.077450300618782"><ele>1369.0</ele><time>2026-05-03T08:27:50Z</time></trkpt><trkpt lat="41.783965183809535" lon="14.07735733015968"><ele>1376.0</ele><time>2026-05-03T08:27:52Z</time></trkpt><trkpt lat="41.78389169400309" lon="14.07732192166916"><ele>1383.0</ele><time>2026-05-03T08:27:54Z</time></trkpt><trkpt lat="41.783881743708235" lon="14.077229609377268"><ele>1390.0</ele><time>2026-05-03T08:27:56Z</time></trkpt><trkpt lat="41.78393152784159" lon="14.077150966278202"><ele>1397.0</ele><time>2026-05-03T08:27:59Z</time></trkpt><trkpt lat="41.78399549693766" lon="14.077100070209877"><ele>1404.0</ele><time>2026-05-03T08:32:31Z</time></trkpt><trkpt lat="41.78415301239352" lon="14.076890761740101"><ele>1404.0</ele><time>2026-05-03T08:34:53.999Z</time></trkpt><trkpt lat="41.78417656798591" lon="14.076810198378793"><ele>1404.0</ele><time>2026-05-03T08:35:06.999Z</time></trkpt><trkpt lat="41.78405436264116" lon="14.076932245318893"><ele>1404.0</ele><time>2026-05-03T08:35:52.999Z</time></trkpt><trkpt lat="41.78397990957457" lon="14.076890072597038"><ele>1404.0</ele><time>2026-05-03T08:36:04Z</time></trkpt><trkpt lat="41.783904222391804" lon="14.076894470059672"><ele>1404.0</ele><time>2026-05-03T08:36:06Z</time></trkpt><trkpt lat="41.78383368608147" lon="14.076855152646454"><ele>1404.0</ele><time>2026-05-03T08:36:08Z</time></trkpt><trkpt lat="41.783756806214946" lon="14.076793481712814"><ele>1404.0</ele><time>2026-05-03T08:36:11Z</time></trkpt><trkpt lat="41.78370160877716" lon="14.076736412019855"><ele>1404.0</ele><time>2026-05-03T08:36:13Z</time></trkpt><trkpt lat="41.78367687383148" lon="14.076637246054606"><ele>1404.0</ele><time>2026-05-03T08:36:15Z</time></trkpt><trkpt lat="41.78371946750722" lon="14.076553508337259"><ele>1404.0</ele><time>2026-05-03T08:36:17Z</time></trkpt><trkpt lat="41.78393648998589" lon="14.076553257855451"><ele>1410.8000000000002</ele><time>2026-05-03T08:36:24Z</time></trkpt><trkpt lat="41.78389863510894" lon="14.076445128698092"><ele>1417.6000000000001</ele><time>2026-05-03T08:36:29Z</time></trkpt><trkpt lat="41.78400128870294" lon="14.07635134237847"><ele>1424.4</ele><time>2026-05-03T08:36:35Z</time></trkpt><trkpt lat="41.78412165150026" lon="14.076332692704561"><ele>1431.2</ele><time>2026-05-03T08:36:41Z</time></trkpt><trkpt lat="41.78407896220316" lon="14.076243251874441"><ele>1438.0</ele><time>2026-05-03T08:36:44Z</time></trkpt><trkpt lat="41.78415866857954" lon="14.07618831408934"><ele>1438.0</ele><time>2026-05-03T08:36:49Z</time></trkpt><trkpt lat="41.78422528053323" lon="14.076134231419067"><ele>1438.0</ele><time>2026-05-03T08:36:51Z</time></trkpt><trkpt lat="41.78416772992386" lon="14.07605941450857"><ele>1438.0</ele><time>2026-05-03T08:36:55Z</time></trkpt><trkpt lat="41.78409908146185" lon="14.075995069005742"><ele>1438.0</ele><time>2026-05-03T08:36:58Z</time></trkpt><trkpt lat="41.7840483638079" lon="14.075877391830495"><ele>1438.0</ele><time>2026-05-03T08:37:00.999Z</time></trkpt><trkpt lat="41.784105253929454" lon="14.07580061142949"><ele>1438.0</ele><time>2026-05-03T08:37:03.999Z</time></trkpt><trkpt lat="41.78416388623657" lon="14.075747740126431"><ele>1443.8333333333333</ele><time>2026-05-03T08:39:58.999Z</time></trkpt><trkpt lat="41.7841823081366" lon="14.075627704404598"><ele>1449.6666666666665</ele><time>2026-05-03T08:40:22Z</time></trkpt><trkpt lat="41.784226117757854" lon="14.07556344567217"><ele>1455.5</ele><time>2026-05-03T08:40:27Z</time></trkpt><trkpt lat="41.784172494184794" lon="14.075468991260616"><ele>1461.3333333333333</ele><time>2026-05-03T08:40:29Z</time></trkpt><trkpt lat="41.7841282317375" lon="14.075375173905991"><ele>1467.1666666666667</ele><time>2026-05-03T08:40:32Z</time></trkpt><trkpt lat="41.7840558722741" lon="14.07528482733875"><ele>1473.0</ele><time>2026-05-03T08:40:34Z</time></trkpt><trkpt lat="41.783991880931715" lon="14.075218242404025"><ele>1473.0</ele><time>2026-05-03T08:40:36Z</time></trkpt><trkpt lat="41.78395873818264" lon="14.075135719981938"><ele>1473.0</ele><time>2026-05-03T08:40:39Z</time></trkpt><trkpt lat="41.78400563631286" lon="14.075066225155743"><ele>1473.0</ele><time>2026-05-03T08:40:42Z</time></trkpt><trkpt lat="41.78407894253991" lon="14.07497701839394"><ele>1473.0</ele><time>2026-05-03T08:40:45Z</time></trkpt><trkpt lat="41.78413033127128" lon="14.074917170159319"><ele>1473.0</ele><time>2026-05-03T08:40:46Z</time></trkpt><trkpt lat="41.78422882776001" lon="14.074872948195239"><ele>1473.0</ele><time>2026-05-03T08:40:48Z</time></trkpt><trkpt lat="41.78428986834153" lon="14.074813965983886"><ele>1477.6666666666667</ele><time>2026-05-03T08:40:50Z</time></trkpt><trkpt lat="41.7842499438465" lon="14.074745511098495"><ele>1482.3333333333333</ele><time>2026-05-03T08:40:53Z</time></trkpt><trkpt lat="41.7841608796918" lon="14.074683235984429"><ele>1487.0</ele><time>2026-05-03T08:40:55Z</time></trkpt><trkpt lat="41.78410429670169" lon="14.074631019561945"><ele>1491.6666666666665</ele><time>2026-05-03T08:40:57Z</time></trkpt><trkpt lat="41.784043840826264" lon="14.074567227958804"><ele>1496.3333333333333</ele><time>2026-05-03T08:40:59Z</time></trkpt><trkpt lat="41.78396805288354" lon="14.074504147097535"><ele>1501.0</ele><time>2026-05-03T08:41:01Z</time></trkpt><trkpt lat="41.78391670036754" lon="14.074450892623714"><ele>1501.0</ele><time>2026-05-03T08:41:03Z</time></trkpt><trkpt lat="41.78387259321958" lon="14.074346186998584"><ele>1501.0</ele><time>2026-05-03T08:41:05Z</time></trkpt><trkpt lat="41.78381364149065" lon="14.0742551454642"><ele>1501.0</ele><time>2026-05-03T08:41:07Z</time></trkpt><trkpt lat="41.78376574070857" lon="14.074171031089138"><ele>1501.0</ele><time>2026-05-03T08:41:09Z</time></trkpt><trkpt lat="41.78372288785563" lon="14.074064871461172"><ele>1501.0</ele><time>2026-05-03T08:41:11Z</time></trkpt><trkpt lat="41.783667296207085" lon="14.073990232626889"><ele>1501.0</ele><time>2026-05-03T08:41:13Z</time></trkpt><trkpt lat="41.783555186197255" lon="14.073925410122119"><ele>1502.5</ele><time>2026-05-03T08:41:15Z</time></trkpt><trkpt lat="41.78348821324957" lon="14.073871855310001"><ele>1504.0</ele><time>2026-05-03T08:41:16.999Z</time></trkpt><trkpt lat="41.78340022883255" lon="14.07377008515399"><ele>1505.5</ele><time>2026-05-03T08:41:19.999Z</time></trkpt><trkpt lat="41.78333789699328" lon="14.073694144672597"><ele>1507.0</ele><time>2026-05-03T08:41:21.999Z</time></trkpt><trkpt lat="41.783331214497075" lon="14.073574816978144"><ele>1508.5</ele><time>2026-05-03T08:41:23.999Z</time></trkpt><trkpt lat="41.78332565451546" lon="14.073471491815967"><ele>1510.0</ele><time>2026-05-03T08:41:25.999Z</time></trkpt><trkpt lat="41.78331215945053" lon="14.073362451517152"><ele>1510.0</ele><time>2026-05-03T08:41:27.999Z</time></trkpt><trkpt lat="41.783310909913276" lon="14.073275169439155"><ele>1510.0</ele><time>2026-05-03T08:41:29.999Z</time></trkpt><trkpt lat="41.78335531574606" lon="14.073174062611255"><ele>1510.0</ele><time>2026-05-03T08:41:32.999Z</time></trkpt><trkpt lat="41.7834055959445" lon="14.073106266816668"><ele>1510.0</ele><time>2026-05-03T08:41:34.999Z</time></trkpt><trkpt lat="41.78346211450649" lon="14.073021597912323"><ele>1510.0</ele><time>2026-05-03T08:41:37.999Z</time></trkpt><trkpt lat="41.78351100662139" lon="14.072944458510191"><ele>1510.0</ele><time>2026-05-03T08:41:39.999Z</time></trkpt><trkpt lat="41.78356170773646" lon="14.072885438216309"><ele>1513.8333333333333</ele><time>2026-05-03T08:41:41.999Z</time></trkpt><trkpt lat="41.783642829430775" lon="14.072830498858986"><ele>1517.6666666666665</ele><time>2026-05-03T08:41:44.999Z</time></trkpt><trkpt lat="41.78370398629979" lon="14.072780724987595"><ele>1521.5</ele><time>2026-05-03T08:41:48.999Z</time></trkpt><trkpt lat="41.783793790958605" lon="14.072752619810561"><ele>1525.3333333333333</ele><time>2026-05-03T08:42:24Z</time></trkpt><trkpt lat="41.78386953782502" lon="14.0726854973809"><ele>1529.1666666666667</ele><time>2026-05-03T08:42:26Z</time></trkpt><trkpt lat="41.78392263543045" lon="14.072617672905656"><ele>1533.0</ele><time>2026-05-03T08:42:28Z</time></trkpt><trkpt lat="41.78398398327294" lon="14.072582730409607"><ele>1533.0</ele><time>2026-05-03T08:42:31Z</time></trkpt><trkpt lat="41.78409813805228" lon="14.072616196594215"><ele>1533.0</ele><time>2026-05-03T09:00:28.999Z</time></trkpt><trkpt lat="41.78416369682061" lon="14.0725647471417"><ele>1533.0</ele><time>2026-05-03T09:00:30.999Z</time></trkpt><trkpt lat="41.784199364353945" lon="14.072472335334348"><ele>1533.0</ele><time>2026-05-03T09:00:32.999Z</time></trkpt><trkpt lat="41.784260177647504" lon="14.072396252583369"><ele>1533.0</ele><time>2026-05-03T09:00:34.999Z</time></trkpt><trkpt lat="41.78432639819042" lon="14.072333485446183"><ele>1533.0</ele><time>2026-05-03T09:00:36.999Z</time></trkpt><trkpt lat="41.78437379319447" lon="14.072273456291375"><ele>1537.3333333333333</ele><time>2026-05-03T09:00:39.999Z</time></trkpt><trkpt lat="41.78441114588136" lon="14.072205115313562"><ele>1541.6666666666665</ele><time>2026-05-03T09:00:41.999Z</time></trkpt><trkpt lat="41.78447177013391" lon="14.072094451385984"><ele>1546.0</ele><time>2026-05-03T09:00:43.999Z</time></trkpt><trkpt lat="41.7845491317079" lon="14.07204908950942"><ele>1550.3333333333333</ele><time>2026-05-03T09:00:45.999Z</time></trkpt><trkpt lat="41.78461404139815" lon="14.072023304132404"><ele>1554.6666666666665</ele><time>2026-05-03T09:00:47.999Z</time></trkpt><trkpt lat="41.78466933417626" lon="14.071982509019723"><ele>1559.0</ele><time>2026-05-03T09:00:48.999Z</time></trkpt><trkpt lat="41.784735961135574" lon="14.071955509133268"><ele>1558.9999999999998</ele><time>2026-05-03T09:00:50.999Z</time></trkpt><trkpt lat="41.784802355325596" lon="14.071893225663871"><ele>1559.0</ele><time>2026-05-03T09:00:53.999Z</time></trkpt><trkpt lat="41.78487790632993" lon="14.071847406608093"><ele>1559.0</ele><time>2026-05-03T09:00:55.999Z</time></trkpt><trkpt lat="41.78497367598796" lon="14.07183301146378"><ele>1559.0</ele><time>2026-05-03T09:00:57.999Z</time></trkpt><trkpt lat="41.78502431406868" lon="14.07176354785412"><ele>1558.9999999999998</ele><time>2026-05-03T09:00:59.999Z</time></trkpt><trkpt lat="41.78509741048105" lon="14.071676788334809"><ele>1559.0</ele><time>2026-05-03T09:01:01.999Z</time></trkpt><trkpt lat="41.78515470528342" lon="14.07163880253602"><ele>1564.6</ele><time>2026-05-03T09:01:02.999Z</time></trkpt><trkpt lat="41.78525905184917" lon="14.071589381427824"><ele>1570.2</ele><time>2026-05-03T09:01:04.999Z</time></trkpt><trkpt lat="41.78535737092759" lon="14.071541260181863"><ele>1575.8</ele><time>2026-05-03T09:01:06.999Z</time></trkpt><trkpt lat="41.785431250703006" lon="14.071497158692853"><ele>1581.3999999999999</ele><time>2026-05-03T09:01:08.999Z</time></trkpt><trkpt lat="41.78552016017817" lon="14.071458343585176"><ele>1587.0</ele><time>2026-05-03T09:01:12Z</time></trkpt><trkpt lat="41.78559088496069" lon="14.071429212337488"><ele>1587.0</ele><time>2026-05-03T09:01:14Z</time></trkpt><trkpt lat="41.78565532722708" lon="14.071359025329235"><ele>1587.0</ele><time>2026-05-03T09:02:31.999Z</time></trkpt><trkpt lat="41.78569339924935" lon="14.071282751924155"><ele>1587.0</ele><time>2026-05-03T09:02:33.999Z</time></trkpt><trkpt lat="41.7857506688105" lon="14.071237290251888"><ele>1587.0</ele><time>2026-05-03T09:05:27Z</time></trkpt><trkpt lat="41.785802208301845" lon="14.071166768571338"><ele>1587.0</ele><time>2026-05-03T09:06:02Z</time></trkpt><trkpt lat="41.78589751972854" lon="14.071089755018392"><ele>1587.0</ele><time>2026-05-03T09:06:17Z</time></trkpt><trkpt lat="41.786027918876" lon="14.071047900492612"><ele>1593.6666666666667</ele><time>2026-05-03T09:06:34.999Z</time></trkpt><trkpt lat="41.78608707858922" lon="14.071016664343102"><ele>1600.3333333333335</ele><time>2026-05-03T09:06:39.999Z</time></trkpt><trkpt lat="41.786133095127866" lon="14.070958157845094"><ele>1607.0</ele><time>2026-05-03T09:06:43.999Z</time></trkpt><trkpt lat="41.786171856515175" lon="14.07089082819272"><ele>1613.6666666666667</ele><time>2026-05-03T09:06:45.999Z</time></trkpt><trkpt lat="41.78620985772902" lon="14.070765145617624"><ele>1620.3333333333335</ele><time>2026-05-03T09:06:48.999Z</time></trkpt><trkpt lat="41.78622879520344" lon="14.070651511609192"><ele>1627.0</ele><time>2026-05-03T09:06:50.999Z</time></trkpt><trkpt lat="41.786220223545854" lon="14.07051281977532"><ele>1629.3999999999999</ele><time>2026-05-03T09:06:52.999Z</time></trkpt><trkpt lat="41.7862059319169" lon="14.070374476795152"><ele>1631.8</ele><time>2026-05-03T09:06:54.999Z</time></trkpt><trkpt lat="41.78618938451067" lon="14.070226403703288"><ele>1634.2</ele><time>2026-05-03T09:06:56.999Z</time></trkpt><trkpt lat="41.786181065545776" lon="14.070090876338492"><ele>1636.6</ele><time>2026-05-03T09:06:58.999Z</time></trkpt><trkpt lat="41.78619094544235" lon="14.069987313242239"><ele>1639.0</ele><time>2026-05-03T09:06:59.999Z</time></trkpt><trkpt lat="41.78619130256991" lon="14.069869277422995"><ele>1642.0</ele><time>2026-05-03T09:07:01.999Z</time></trkpt><trkpt lat="41.78621165990477" lon="14.06978080099253"><ele>1645.0</ele><time>2026-05-03T09:07:05.999Z</time></trkpt><trkpt lat="41.7862084748841" lon="14.069682864716937"><ele>1648.0</ele><time>2026-05-03T09:07:07.999Z</time></trkpt><trkpt lat="41.786207419619736" lon="14.06959363983172"><ele>1651.0</ele><time>2026-05-03T09:07:08.999Z</time></trkpt><trkpt lat="41.78622074320172" lon="14.069507540609393"><ele>1654.0</ele><time>2026-05-03T09:07:09.999Z</time></trkpt><trkpt lat="41.78624086884447" lon="14.069382601621433"><ele>1657.0</ele><time>2026-05-03T09:07:11.999Z</time></trkpt><trkpt lat="41.78624208994371" lon="14.069287173475084"><ele>1660.0</ele><time>2026-05-03T09:07:13.999Z</time></trkpt><trkpt lat="41.786257564015735" lon="14.069196424323152"><ele>1660.0000000000002</ele><time>2026-05-03T09:07:14.999Z</time></trkpt><trkpt lat="41.786239703295706" lon="14.069113298355509"><ele>1660.0</ele><time>2026-05-03T09:07:15.999Z</time></trkpt><trkpt lat="41.786249346078094" lon="14.068946790748337"><ele>1660.0</ele><time>2026-05-03T09:07:17.999Z</time></trkpt><trkpt lat="41.78624802533688" lon="14.068860172528161"><ele>1660.0</ele><time>2026-05-03T09:07:18.999Z</time></trkpt><trkpt lat="41.78622843958308" lon="14.068739408475773"><ele>1660.0000000000002</ele><time>2026-05-03T09:07:20.999Z</time></trkpt><trkpt lat="41.7862361442424" lon="14.068628751868687"><ele>1660.0</ele><time>2026-05-03T09:07:22.999Z</time></trkpt><trkpt lat="41.7862424879804" lon="14.068541176508175"><ele>1662.6</ele><time>2026-05-03T09:07:23.999Z</time></trkpt><trkpt lat="41.786244692613316" lon="14.06841840673984"><ele>1665.2</ele><time>2026-05-03T09:07:24.999Z</time></trkpt><trkpt lat="41.78628837086903" lon="14.068224523440652"><ele>1667.8000000000002</ele><time>2026-05-03T09:07:26.999Z</time></trkpt><trkpt lat="41.78630108964456" lon="14.06813886657509"><ele>1670.4</ele><time>2026-05-03T09:07:27.999Z</time></trkpt><trkpt lat="41.78623953731363" lon="14.067989410610188"><ele>1673.0</ele><time>2026-05-03T09:07:30Z</time></trkpt><trkpt lat="41.78621116007832" lon="14.067903214093509"><ele>1674.0</ele><time>2026-05-03T09:07:31Z</time></trkpt><trkpt lat="41.78614347070116" lon="14.067766266337715"><ele>1675.0</ele><time>2026-05-03T09:07:33Z</time></trkpt><trkpt lat="41.78601834488788" lon="14.0676598157043"><ele>1676.0</ele><time>2026-05-03T09:07:34Z</time></trkpt><trkpt lat="41.78592629033911" lon="14.067586495328015"><ele>1677.0</ele><time>2026-05-03T09:07:35Z</time></trkpt><trkpt lat="41.78588422521336" lon="14.067503185302348"><ele>1673.0</ele><time>2026-05-03T09:07:36Z</time></trkpt><trkpt lat="41.78582852688249" lon="14.067328464154606"><ele>1669.0</ele><time>2026-05-03T09:07:38Z</time></trkpt><trkpt lat="41.785811915734804" lon="14.06721066207164"><ele>1665.0</ele><time>2026-05-03T09:07:39Z</time></trkpt><trkpt lat="41.78578898164175" lon="14.067124215811848"><ele>1661.0</ele><time>2026-05-03T09:07:40Z</time></trkpt><trkpt lat="41.78574871174753" lon="14.066971518446616"><ele>1657.0</ele><time>2026-05-03T09:07:42Z</time></trkpt><trkpt lat="41.78572976362479" lon="14.066870350244633"><ele>1657.0</ele><time>2026-05-03T09:07:43Z</time></trkpt><trkpt lat="41.785718955396725" lon="14.066732402085192"><ele>1657.0</ele><time>2026-05-03T09:07:44Z</time></trkpt><trkpt lat="41.785694487112366" lon="14.066629115186513"><ele>1657.0</ele><time>2026-05-03T09:07:45Z</time></trkpt><trkpt lat="41.78571649849831" lon="14.066514272069732"><ele>1657.0</ele><time>2026-05-03T09:07:46Z</time></trkpt><trkpt lat="41.785760345387985" lon="14.06637555344683"><ele>1657.0</ele><time>2026-05-03T09:07:48Z</time></trkpt><trkpt lat="41.78570180430683" lon="14.06631027951927"><ele>1656.3333333333335</ele><time>2026-05-03T09:07:52Z</time></trkpt><trkpt lat="41.78562519681287" lon="14.066274835232646"><ele>1655.6666666666667</ele><time>2026-05-03T09:07:54Z</time></trkpt><trkpt lat="41.78555684581368" lon="14.066206625462318"><ele>1655.0</ele><time>2026-05-03T09:07:56Z</time></trkpt><trkpt lat="41.785533079888985" lon="14.066127877899705"><ele>1654.3333333333335</ele><time>2026-05-03T09:07:59Z</time></trkpt><trkpt lat="41.785598243873366" lon="14.066125150379891"><ele>1653.6666666666667</ele><time>2026-05-03T09:08:01Z</time></trkpt><trkpt lat="41.78562326474124" lon="14.066243823879159"><ele>1653.0</ele><time>2026-05-03T09:08:03Z</time></trkpt><trkpt lat="41.78565366211736" lon="14.066320210790428"><ele>1653.0</ele><time>2026-05-03T09:08:05Z</time></trkpt><trkpt lat="41.78570646955591" lon="14.06640598480376"><ele>1653.0</ele><time>2026-05-03T09:08:08Z</time></trkpt><trkpt lat="41.78580572752038" lon="14.06642610433211"><ele>1653.0</ele><time>2026-05-03T09:08:10Z</time></trkpt><trkpt lat="41.78587947883084" lon="14.06651153364779"><ele>1653.0</ele><time>2026-05-03T09:08:13Z</time></trkpt><trkpt lat="41.785902164171816" lon="14.066619939913618"><ele>1653.0</ele><time>2026-05-03T09:08:16Z</time></trkpt><trkpt lat="41.78599239980679" lon="14.066585239059622"><ele>1653.0</ele><time>2026-05-03T09:08:21Z</time></trkpt><trkpt lat="41.78591133826614" lon="14.066512350989287"><ele>1653.0</ele><time>2026-05-03T09:08:22Z</time></trkpt><trkpt lat="41.78584536902127" lon="14.06643208925081"><ele>1653.0</ele><time>2026-05-03T09:08:26Z</time></trkpt><trkpt lat="41.78578868445448" lon="14.066379956646797"><ele>1653.0</ele><time>2026-05-03T09:08:31Z</time></trkpt><trkpt lat="41.78571651787052" lon="14.066335268376374"><ele>1653.0</ele><time>2026-05-03T09:08:46.999Z</time></trkpt><trkpt lat="41.78569537175357" lon="14.066248035082676"><ele>1653.0</ele><time>2026-05-03T09:08:48.999Z</time></trkpt><trkpt lat="41.785680856837914" lon="14.066157076932262"><ele>1653.0</ele><time>2026-05-03T09:08:52.999Z</time></trkpt><trkpt lat="41.78559651452204" lon="14.066136996099898"><ele>1653.0</ele><time>2026-05-03T09:08:54.999Z</time></trkpt><trkpt lat="41.78563847843878" lon="14.06624340558256"><ele>1653.0</ele><time>2026-05-03T09:08:57.999Z</time></trkpt><trkpt lat="41.78567576144352" lon="14.066321151570941"><ele>1653.0</ele><time>2026-05-03T09:08:59.999Z</time></trkpt><trkpt lat="41.78575250651638" lon="14.066372729823101"><ele>1653.0</ele><time>2026-05-03T09:09:02.999Z</time></trkpt><trkpt lat="41.78573942657042" lon="14.066464967668924"><ele>1653.0</ele><time>2026-05-03T09:10:00Z</time></trkpt><trkpt lat="41.78573982686328" lon="14.066561133859217"><ele>1653.6666666666667</ele><time>2026-05-03T09:10:02Z</time></trkpt><trkpt lat="41.785720304746036" lon="14.066670382788534"><ele>1654.3333333333335</ele><time>2026-05-03T09:10:04Z</time></trkpt><trkpt lat="41.7857186925948" lon="14.06676979819522"><ele>1655.0</ele><time>2026-05-03T09:10:06Z</time></trkpt><trkpt lat="41.78570406584039" lon="14.066871736154487"><ele>1655.6666666666667</ele><time>2026-05-03T09:10:08Z</time></trkpt><trkpt lat="41.78571372760018" lon="14.06699983786187"><ele>1656.3333333333335</ele><time>2026-05-03T09:10:10Z</time></trkpt><trkpt lat="41.785760941237804" lon="14.067077232997015"><ele>1657.0</ele><time>2026-05-03T09:10:11Z</time></trkpt><trkpt lat="41.7857820784008" lon="14.067172550793401"><ele>1657.0</ele><time>2026-05-03T09:10:13Z</time></trkpt><trkpt lat="41.78579007383485" lon="14.067258762736659"><ele>1657.0</ele><time>2026-05-03T09:10:16Z</time></trkpt><trkpt lat="41.78579983254406" lon="14.067353686789186"><ele>1657.0</ele><time>2026-05-03T09:10:18Z</time></trkpt><trkpt lat="41.785862547660344" lon="14.067482311042877"><ele>1657.0</ele><time>2026-05-03T09:10:20Z</time></trkpt><trkpt lat="41.785914551400374" lon="14.067584891044875"><ele>1657.0</ele><time>2026-05-03T09:10:22Z</time></trkpt><trkpt lat="41.78598388793628" lon="14.067700307472503"><ele>1660.3333333333335</ele><time>2026-05-03T09:10:24Z</time></trkpt><trkpt lat="41.7860452401584" lon="14.067782274262756"><ele>1663.6666666666667</ele><time>2026-05-03T09:10:26Z</time></trkpt><trkpt lat="41.78610416758434" lon="14.067843516064855"><ele>1667.0</ele><time>2026-05-03T09:10:28Z</time></trkpt><trkpt lat="41.78619056533253" lon="14.067911176361843"><ele>1670.3333333333335</ele><time>2026-05-03T09:10:31Z</time></trkpt><trkpt lat="41.786210851413955" lon="14.068008654772807"><ele>1673.6666666666667</ele><time>2026-05-03T09:10:32Z</time></trkpt><trkpt lat="41.78627190869225" lon="14.068094502452363"><ele>1677.0</ele><time>2026-05-03T09:10:33.999Z</time></trkpt><trkpt lat="41.786318985337346" lon="14.068016386409386"><ele>1677.0</ele><time>2026-05-03T09:10:40.999Z</time></trkpt><trkpt lat="41.78633078561439" lon="14.067856022627033"><ele>1677.0</ele><time>2026-05-03T09:10:50.999Z</time></trkpt><trkpt lat="41.786438889423074" lon="14.067841592114359"><ele>1677.0</ele><time>2026-05-03T09:10:52.999Z</time></trkpt><trkpt lat="41.78650407164129" lon="14.067803140675561"><ele>1677.0</ele><time>2026-05-03T09:10:55.999Z</time></trkpt><trkpt lat="41.786499865582485" lon="14.067965384339628"><ele>1677.0</ele><time>2026-05-03T09:13:22.999Z</time></trkpt><trkpt lat="41.78644186964947" lon="14.067920321517736"><ele>1677.0</ele><time>2026-05-03T09:13:33.999Z</time></trkpt><trkpt lat="41.78641447921373" lon="14.06775012423374"><ele>1677.0</ele><time>2026-05-03T09:13:43.999Z</time></trkpt><trkpt lat="41.78633571129249" lon="14.067763592613924"><ele>1677.0</ele><time>2026-05-03T09:13:49Z</time></trkpt><trkpt lat="41.78626969542091" lon="14.067707835472964"><ele>1677.0</ele><time>2026-05-03T09:13:58Z</time></trkpt><trkpt lat="41.78632182049038" lon="14.067761895997545"><ele>1677.0</ele><time>2026-05-03T09:14:01Z</time></trkpt><trkpt lat="41.78636432811648" lon="14.067857233967043"><ele>1677.0</ele><time>2026-05-03T09:14:10Z</time></trkpt><trkpt lat="41.78630412589409" lon="14.06788780510895"><ele>1677.0</ele><time>2026-05-03T09:14:17Z</time></trkpt><trkpt lat="41.78621345831575" lon="14.06793988907738"><ele>1677.0</ele><time>2026-05-03T09:14:19Z</time></trkpt><trkpt lat="41.7861706220303" lon="14.068010360823493"><ele>1677.0</ele><time>2026-05-03T09:14:23Z</time></trkpt><trkpt lat="41.786058245239126" lon="14.067928321978805"><ele>1677.0</ele><time>2026-05-03T09:15:03.999Z</time></trkpt><trkpt lat="41.78598268762479" lon="14.06782560862562"><ele>1677.0</ele><time>2026-05-03T09:15:19.999Z</time></trkpt><trkpt lat="41.785922885213076" lon="14.067766879461956"><ele>1673.6666666666667</ele><time>2026-05-03T09:15:20.999Z</time></trkpt><trkpt lat="41.785853130430134" lon="14.067656083897898"><ele>1670.3333333333335</ele><time>2026-05-03T09:15:21.999Z</time></trkpt><trkpt lat="41.78581422306706" lon="14.067561728644183"><ele>1667.0</ele><time>2026-05-03T09:15:22.999Z</time></trkpt><trkpt lat="41.78579565535939" lon="14.067447575396429"><ele>1663.6666666666667</ele><time>2026-05-03T09:15:23.999Z</time></trkpt><trkpt lat="41.78579220670777" lon="14.067352042980879"><ele>1660.3333333333335</ele><time>2026-05-03T09:15:24.999Z</time></trkpt><trkpt lat="41.78577739031891" lon="14.067250841295126"><ele>1657.0</ele><time>2026-05-03T09:15:25.999Z</time></trkpt><trkpt lat="41.78572553812296" lon="14.06710366171166"><ele>1657.0</ele><time>2026-05-03T09:15:27.999Z</time></trkpt><trkpt lat="41.78568024681797" lon="14.066967056090379"><ele>1657.0</ele><time>2026-05-03T09:15:28.999Z</time></trkpt><trkpt lat="41.78563906402036" lon="14.066837806014604"><ele>1657.0</ele><time>2026-05-03T09:15:29.999Z</time></trkpt><trkpt lat="41.78561821715982" lon="14.066694364976275"><ele>1657.0</ele><time>2026-05-03T09:15:30.999Z</time></trkpt><trkpt lat="41.78562351522918" lon="14.066566916629807"><ele>1657.0</ele><time>2026-05-03T09:15:31.999Z</time></trkpt><trkpt lat="41.78565742158205" lon="14.066456797106055"><ele>1656.3333333333335</ele><time>2026-05-03T09:15:32.999Z</time></trkpt><trkpt lat="41.78565483457113" lon="14.066366365404534"><ele>1655.6666666666667</ele><time>2026-05-03T09:15:33.999Z</time></trkpt><trkpt lat="41.78562453689716" lon="14.066245260663822"><ele>1655.0</ele><time>2026-05-03T09:15:35.999Z</time></trkpt><trkpt lat="41.78554990091343" lon="14.066165612165426"><ele>1654.3333333333335</ele><time>2026-05-03T09:15:36.999Z</time></trkpt><trkpt lat="41.785517696488846" lon="14.06604970788189"><ele>1653.6666666666667</ele><time>2026-05-03T09:15:37.999Z</time></trkpt><trkpt lat="41.785496185466066" lon="14.065943055031324"><ele>1653.0</ele><time>2026-05-03T09:15:38.999Z</time></trkpt><trkpt lat="41.78545913467436" lon="14.065789051304257"><ele>1650.8333333333333</ele><time>2026-05-03T09:15:40.999Z</time></trkpt><trkpt lat="41.78540155797421" lon="14.065640326545"><ele>1648.6666666666665</ele><time>2026-05-03T09:15:42.999Z</time></trkpt><trkpt lat="41.785376635683875" lon="14.065546515610798"><ele>1646.5</ele><time>2026-05-03T09:15:43.999Z</time></trkpt><trkpt lat="41.78535890756969" lon="14.065448023327717"><ele>1644.3333333333333</ele><time>2026-05-03T09:15:44.999Z</time></trkpt><trkpt lat="41.78532891397653" lon="14.065350068786906"><ele>1642.1666666666665</ele><time>2026-05-03T09:15:45.999Z</time></trkpt><trkpt lat="41.785313342766635" lon="14.065234863860445"><ele>1640.0</ele><time>2026-05-03T09:15:46.999Z</time></trkpt><trkpt lat="41.785286567420634" lon="14.065080383011084"><ele>1639.9999999999998</ele><time>2026-05-03T09:15:48.999Z</time></trkpt><trkpt lat="41.7852720763263" lon="14.064977162241195"><ele>1640.0</ele><time>2026-05-03T09:15:49.999Z</time></trkpt><trkpt lat="41.78525049743819" lon="14.064895528821713"><ele>1640.0</ele><time>2026-05-03T09:15:50.999Z</time></trkpt><trkpt lat="41.785234661325916" lon="14.064783757258137"><ele>1640.0</ele><time>2026-05-03T09:15:51.999Z</time></trkpt><trkpt lat="41.7852211963144" lon="14.064662163272219"><ele>1639.9999999999998</ele><time>2026-05-03T09:15:52.999Z</time></trkpt><trkpt lat="41.78520866973481" lon="14.064565321180092"><ele>1640.0</ele><time>2026-05-03T09:15:54Z</time></trkpt><trkpt lat="41.785176991510234" lon="14.064470961623508"><ele>1640.8</ele><time>2026-05-03T09:15:55Z</time></trkpt><trkpt lat="41.78515900848192" lon="14.064319912772993"><ele>1641.6</ele><time>2026-05-03T09:15:57Z</time></trkpt><trkpt lat="41.78514758907819" lon="14.064217796229995"><ele>1642.4</ele><time>2026-05-03T09:15:58Z</time></trkpt><trkpt lat="41.78506908678108" lon="14.064107760327"><ele>1643.2</ele><time>2026-05-03T09:15:59Z</time></trkpt><trkpt lat="41.785020412998925" lon="14.063952514002407"><ele>1644.0</ele><time>2026-05-03T09:16:00Z</time></trkpt><trkpt lat="41.78497456436042" lon="14.06385844477335"><ele>1644.0</ele><time>2026-05-03T09:16:01Z</time></trkpt><trkpt lat="41.78494905555823" lon="14.063763294853604"><ele>1644.0</ele><time>2026-05-03T09:16:02Z</time></trkpt><trkpt lat="41.784926078601906" lon="14.063658471433481"><ele>1644.0</ele><time>2026-05-03T09:16:03Z</time></trkpt><trkpt lat="41.78489693051169" lon="14.063580329942615"><ele>1644.0</ele><time>2026-05-03T09:16:04Z</time></trkpt><trkpt lat="41.78490765490763" lon="14.06346802636892"><ele>1644.0</ele><time>2026-05-03T09:16:05Z</time></trkpt><trkpt lat="41.78489599433557" lon="14.063323643725466"><ele>1644.0</ele><time>2026-05-03T09:16:06Z</time></trkpt><trkpt lat="41.784877455863615" lon="14.063230316184967"><ele>1638.5</ele><time>2026-05-03T09:16:07Z</time></trkpt><trkpt lat="41.784854406964634" lon="14.06312882895932"><ele>1633.0</ele><time>2026-05-03T09:16:08Z</time></trkpt><trkpt lat="41.784813329606706" lon="14.06300492282335"><ele>1627.5</ele><time>2026-05-03T09:16:09Z</time></trkpt><trkpt lat="41.78476758770192" lon="14.062812604054225"><ele>1622.0</ele><time>2026-05-03T09:16:10Z</time></trkpt><trkpt lat="41.784724608823964" lon="14.062645546114812"><ele>1622.0</ele><time>2026-05-03T09:16:11Z</time></trkpt><trkpt lat="41.78468113855999" lon="14.062497862229865"><ele>1622.0</ele><time>2026-05-03T09:16:12Z</time></trkpt><trkpt lat="41.78463795471627" lon="14.062348854685114"><ele>1622.0</ele><time>2026-05-03T09:16:13Z</time></trkpt><trkpt lat="41.78455408296828" lon="14.06223532093068"><ele>1622.0</ele><time>2026-05-03T09:16:14Z</time></trkpt><trkpt lat="41.78448306302418" lon="14.062097238444464"><ele>1623.6</ele><time>2026-05-03T09:16:15Z</time></trkpt><trkpt lat="41.78439894096485" lon="14.061944266019232"><ele>1625.1999999999998</ele><time>2026-05-03T09:16:16Z</time></trkpt><trkpt lat="41.7843232449116" lon="14.061773918538671"><ele>1626.8</ele><time>2026-05-03T09:16:17Z</time></trkpt><trkpt lat="41.78432289528896" lon="14.061686900312557"><ele>1628.4</ele><time>2026-05-03T09:16:18Z</time></trkpt><trkpt lat="41.784273365824255" lon="14.061588477690155"><ele>1630.0</ele><time>2026-05-03T09:16:19Z</time></trkpt><trkpt lat="41.78422669540739" lon="14.06148455401949"><ele>1630.0</ele><time>2026-05-03T09:16:20Z</time></trkpt><trkpt lat="41.78416063724225" lon="14.061394918899213"><ele>1630.0</ele><time>2026-05-03T09:16:21Z</time></trkpt><trkpt lat="41.78403742870019" lon="14.061248296699357"><ele>1630.0</ele><time>2026-05-03T09:16:22Z</time></trkpt><trkpt lat="41.78393257158799" lon="14.06106178908129"><ele>1630.0</ele><time>2026-05-03T09:16:23Z</time></trkpt><trkpt lat="41.783820193028" lon="14.060929507211567"><ele>1627.0</ele><time>2026-05-03T09:16:24Z</time></trkpt><trkpt lat="41.783760752568135" lon="14.060782668154763"><ele>1624.0</ele><time>2026-05-03T09:16:25Z</time></trkpt><trkpt lat="41.7837080763151" lon="14.06066323140451"><ele>1621.0</ele><time>2026-05-03T09:16:26Z</time></trkpt><trkpt lat="41.78364885233134" lon="14.060546280810765"><ele>1618.0</ele><time>2026-05-03T09:16:27Z</time></trkpt><trkpt lat="41.78364996770738" lon="14.060407943628098"><ele>1615.0</ele><time>2026-05-03T09:16:28Z</time></trkpt><trkpt lat="41.78361951535143" lon="14.060291223390378"><ele>1615.0</ele><time>2026-05-03T09:16:29Z</time></trkpt><trkpt lat="41.783578222178576" lon="14.060169586333265"><ele>1615.0</ele><time>2026-05-03T09:16:30Z</time></trkpt><trkpt lat="41.783472420963335" lon="14.059967247611667"><ele>1615.0</ele><time>2026-05-03T09:16:31Z</time></trkpt><trkpt lat="41.78340008019917" lon="14.059844250579937"><ele>1615.0</ele><time>2026-05-03T09:16:32Z</time></trkpt><trkpt lat="41.783271691820985" lon="14.059723867064308"><ele>1620.1666666666667</ele><time>2026-05-03T09:16:33Z</time></trkpt><trkpt lat="41.78327052957133" lon="14.059626213614365"><ele>1625.3333333333335</ele><time>2026-05-03T09:16:34Z</time></trkpt><trkpt lat="41.7832520373521" lon="14.059534975614335"><ele>1630.5</ele><time>2026-05-03T09:16:35Z</time></trkpt><trkpt lat="41.783221786562734" lon="14.059458587287889"><ele>1635.6666666666665</ele><time>2026-05-03T09:16:36Z</time></trkpt><trkpt lat="41.783152928058755" lon="14.059330717292168"><ele>1640.8333333333333</ele><time>2026-05-03T09:16:38Z</time></trkpt><trkpt lat="41.78310756292655" lon="14.05924105454211"><ele>1646.0</ele><time>2026-05-03T09:16:39Z</time></trkpt><trkpt lat="41.783066096513046" lon="14.059153464268235"><ele>1646.6666666666665</ele><time>2026-05-03T09:16:40Z</time></trkpt><trkpt lat="41.78303228685802" lon="14.059056779831726"><ele>1647.3333333333333</ele><time>2026-05-03T09:16:41Z</time></trkpt><trkpt lat="41.78296873470945" lon="14.05894727212288"><ele>1648.0</ele><time>2026-05-03T09:16:42Z</time></trkpt><trkpt lat="41.78292894135408" lon="14.058866975533089"><ele>1648.6666666666665</ele><time>2026-05-03T09:16:43Z</time></trkpt><trkpt lat="41.78289413901595" lon="14.058790542966104"><ele>1649.3333333333333</ele><time>2026-05-03T09:16:44Z</time></trkpt><trkpt lat="41.78286867342162" lon="14.05869402063238"><ele>1650.0</ele><time>2026-05-03T09:16:45Z</time></trkpt><trkpt lat="41.782823719559836" lon="14.058572816742682"><ele>1650.0</ele><time>2026-05-03T09:16:46Z</time></trkpt><trkpt lat="41.78279996748394" lon="14.05848626279174"><ele>1650.0</ele><time>2026-05-03T09:16:47Z</time></trkpt><trkpt lat="41.78274691330404" lon="14.058369619676022"><ele>1650.0</ele><time>2026-05-03T09:16:48Z</time></trkpt><trkpt lat="41.78274319815572" lon="14.058259066786139"><ele>1650.0</ele><time>2026-05-03T09:16:49Z</time></trkpt><trkpt lat="41.78272376067764" lon="14.05812361881974"><ele>1650.0</ele><time>2026-05-03T09:16:50Z</time></trkpt><trkpt lat="41.782696151135184" lon="14.057973394106943"><ele>1650.8</ele><time>2026-05-03T09:16:51Z</time></trkpt><trkpt lat="41.782682124364754" lon="14.057822264338512"><ele>1651.6</ele><time>2026-05-03T09:16:52Z</time></trkpt><trkpt lat="41.78274712252549" lon="14.057680026129972"><ele>1652.4</ele><time>2026-05-03T09:16:53Z</time></trkpt><trkpt lat="41.78280607353043" lon="14.057545393972106"><ele>1653.2</ele><time>2026-05-03T09:16:55Z</time></trkpt><trkpt lat="41.78280189514783" lon="14.057438124848815"><ele>1654.0</ele><time>2026-05-03T09:16:56Z</time></trkpt><trkpt lat="41.78279336885741" lon="14.057344246903565"><ele>1654.2</ele><time>2026-05-03T09:16:57Z</time></trkpt><trkpt lat="41.78280605661001" lon="14.05725502435849"><ele>1654.4</ele><time>2026-05-03T09:16:58Z</time></trkpt><trkpt lat="41.78279432422908" lon="14.057169887005687"><ele>1654.6</ele><time>2026-05-03T09:16:59Z</time></trkpt><trkpt lat="41.78279932729664" lon="14.057018337800068"><ele>1654.8</ele><time>2026-05-03T09:17:01Z</time></trkpt><trkpt lat="41.782750715627294" lon="14.056894578953838"><ele>1655.0</ele><time>2026-05-03T09:17:02Z</time></trkpt><trkpt lat="41.782718990098125" lon="14.05672596764073"><ele>1657.3333333333333</ele><time>2026-05-03T09:17:03Z</time></trkpt><trkpt lat="41.78265046467788" lon="14.056536009158384"><ele>1659.6666666666665</ele><time>2026-05-03T09:17:04Z</time></trkpt><trkpt lat="41.7825750596147" lon="14.05630165462491"><ele>1662.0</ele><time>2026-05-03T09:17:05Z</time></trkpt><trkpt lat="41.78250831876829" lon="14.056057800770485"><ele>1662.0</ele><time>2026-05-03T09:17:06Z</time></trkpt><trkpt lat="41.782464443274975" lon="14.055915991937493"><ele>1662.0</ele><time>2026-05-03T09:17:07Z</time></trkpt><trkpt lat="41.782400197791915" lon="14.055705137790282"><ele>1662.0</ele><time>2026-05-03T09:17:08Z</time></trkpt><trkpt lat="41.782298402508395" lon="14.05561785776593"><ele>1662.0</ele><time>2026-05-03T09:17:09Z</time></trkpt><trkpt lat="41.78228083653972" lon="14.05542953154216"><ele>1663.1999999999998</ele><time>2026-05-03T09:17:10Z</time></trkpt><trkpt lat="41.782242379650846" lon="14.055276915343914"><ele>1664.4</ele><time>2026-05-03T09:17:11Z</time></trkpt><trkpt lat="41.782195896843334" lon="14.055151812668036"><ele>1665.6</ele><time>2026-05-03T09:17:12Z</time></trkpt><trkpt lat="41.78216542561164" lon="14.055036466527813"><ele>1666.8000000000002</ele><time>2026-05-03T09:17:13Z</time></trkpt><trkpt lat="41.782120563310365" lon="14.054906229092996"><ele>1668.0</ele><time>2026-05-03T09:17:14Z</time></trkpt><trkpt lat="41.7820707302436" lon="14.054773907158971"><ele>1668.8333333333333</ele><time>2026-05-03T09:17:15Z</time></trkpt><trkpt lat="41.782025165165344" lon="14.054663329989294"><ele>1669.6666666666665</ele><time>2026-05-03T09:17:16Z</time></trkpt><trkpt lat="41.78197968778337" lon="14.054533191564717"><ele>1670.5</ele><time>2026-05-03T09:17:17Z</time></trkpt><trkpt lat="41.78195580820094" lon="14.05441543206753"><ele>1671.3333333333333</ele><time>2026-05-03T09:17:18Z</time></trkpt><trkpt lat="41.781921693925234" lon="14.05433913979091"><ele>1672.1666666666665</ele><time>2026-05-03T09:17:19Z</time></trkpt><trkpt lat="41.78188107175392" lon="14.05425387855499"><ele>1673.0</ele><time>2026-05-03T09:17:19.999Z</time></trkpt><trkpt lat="41.781826418180636" lon="14.05415709218275"><ele>1669.2</ele><time>2026-05-03T09:17:20.999Z</time></trkpt><trkpt lat="41.78181480886494" lon="14.053987126874825"><ele>1665.4</ele><time>2026-05-03T09:17:22.999Z</time></trkpt><trkpt lat="41.78177721634499" lon="14.053875707912184"><ele>1661.6000000000001</ele><time>2026-05-03T09:17:23.999Z</time></trkpt><trkpt lat="41.781757004522866" lon="14.05374158010349"><ele>1657.8000000000002</ele><time>2026-05-03T09:17:24.999Z</time></trkpt><trkpt lat="41.781712637608166" lon="14.053615407934696"><ele>1654.0</ele><time>2026-05-03T09:17:25.999Z</time></trkpt><trkpt lat="41.78168122669322" lon="14.053487650961792"><ele>1654.0000000000002</ele><time>2026-05-03T09:17:26.999Z</time></trkpt><trkpt lat="41.781658874450954" lon="14.053363346366217"><ele>1654.0</ele><time>2026-05-03T09:17:27.999Z</time></trkpt><trkpt lat="41.78163002458306" lon="14.053245519225584"><ele>1654.0</ele><time>2026-05-03T09:17:28.999Z</time></trkpt><trkpt lat="41.78159444387385" lon="14.053170779764239"><ele>1654.0</ele><time>2026-05-03T09:17:29.999Z</time></trkpt><trkpt lat="41.78154569513717" lon="14.053056553610427"><ele>1654.0000000000002</ele><time>2026-05-03T09:17:30.999Z</time></trkpt><trkpt lat="41.78151862878198" lon="14.052947419555348"><ele>1654.0</ele><time>2026-05-03T09:17:31.999Z</time></trkpt><trkpt lat="41.78149260411195" lon="14.05282618703226"><ele>1653.0</ele><time>2026-05-03T09:17:32.999Z</time></trkpt><trkpt lat="41.78149345357349" lon="14.052661230037815"><ele>1652.0</ele><time>2026-05-03T09:17:33.999Z</time></trkpt><trkpt lat="41.781492321073735" lon="14.052532735456868"><ele>1651.0</ele><time>2026-05-03T09:17:34.999Z</time></trkpt><trkpt lat="41.78152368800106" lon="14.052404559639093"><ele>1650.0</ele><time>2026-05-03T09:17:36.999Z</time></trkpt><trkpt lat="41.78152712540911" lon="14.052317874665277"><ele>1649.0</ele><time>2026-05-03T09:17:37.999Z</time></trkpt><trkpt lat="41.781523369844024" lon="14.05217365145167"><ele>1647.0</ele><time>2026-05-03T09:17:39.999Z</time></trkpt><trkpt lat="41.78151911401063" lon="14.052058758851807"><ele>1645.0</ele><time>2026-05-03T09:17:40.999Z</time></trkpt><trkpt lat="41.781521291698894" lon="14.051908355120773"><ele>1643.0</ele><time>2026-05-03T09:17:42.999Z</time></trkpt><trkpt lat="41.78152591159087" lon="14.051742421741261"><ele>1641.0</ele><time>2026-05-03T09:17:44.999Z</time></trkpt><trkpt lat="41.78152521331398" lon="14.0516556709688"><ele>1639.0</ele><time>2026-05-03T09:17:45.999Z</time></trkpt><trkpt lat="41.781557090931614" lon="14.051581123879986"><ele>1637.6</ele><time>2026-05-03T09:17:46.999Z</time></trkpt><trkpt lat="41.78154733104227" lon="14.051466170997669"><ele>1636.2</ele><time>2026-05-03T09:17:48.999Z</time></trkpt><trkpt lat="41.78150333438533" lon="14.051371534389062"><ele>1634.8</ele><time>2026-05-03T09:17:50.999Z</time></trkpt><trkpt lat="41.78140528975651" lon="14.05129482377195"><ele>1633.3999999999999</ele><time>2026-05-03T09:17:51.999Z</time></trkpt><trkpt lat="41.78129101358294" lon="14.051263107717462"><ele>1632.0</ele><time>2026-05-03T09:17:52.999Z</time></trkpt><trkpt lat="41.78122467969205" lon="14.051256986814625"><ele>1632.0</ele><time>2026-05-03T09:17:53.999Z</time></trkpt><trkpt lat="41.78116018843534" lon="14.051142472239995"><ele>1632.0</ele><time>2026-05-03T09:17:55.999Z</time></trkpt><trkpt lat="41.78120496275327" lon="14.051062310922514"><ele>1632.0</ele><time>2026-05-03T09:17:58.999Z</time></trkpt><trkpt lat="41.78126549691602" lon="14.050961751601575"><ele>1632.0</ele><time>2026-05-03T09:18:02Z</time></trkpt><trkpt lat="41.78133483704635" lon="14.050848177584589"><ele>1632.0</ele><time>2026-05-03T09:18:04Z</time></trkpt><trkpt lat="41.78137040538343" lon="14.05075299229402"><ele>1633.75</ele><time>2026-05-03T09:18:05Z</time></trkpt><trkpt lat="41.7814068132706" lon="14.05067761627508"><ele>1635.5</ele><time>2026-05-03T09:18:06Z</time></trkpt><trkpt lat="41.78145514925362" lon="14.050530908688993"><ele>1637.25</ele><time>2026-05-03T09:18:08Z</time></trkpt><trkpt lat="41.78155819389141" lon="14.050483698664205"><ele>1639.0</ele><time>2026-05-03T09:18:10Z</time></trkpt><trkpt lat="41.78172827766006" lon="14.050541651635623"><ele>1639.0</ele><time>2026-05-03T09:18:12Z</time></trkpt><trkpt lat="41.78179332388613" lon="14.050542357870398"><ele>1639.0</ele><time>2026-05-03T09:18:14Z</time></trkpt><trkpt lat="41.781998881509296" lon="14.050528165522966"><ele>1639.0</ele><time>2026-05-03T09:18:19Z</time></trkpt><trkpt lat="41.78208162812476" lon="14.050459498137094"><ele>1639.0</ele><time>2026-05-03T09:18:20Z</time></trkpt><trkpt lat="41.782128625312446" lon="14.05039145499724"><ele>1639.0</ele><time>2026-05-03T09:18:21Z</time></trkpt><trkpt lat="41.782162883859336" lon="14.050219016624231"><ele>1634.4</ele><time>2026-05-03T09:18:24Z</time></trkpt><trkpt lat="41.782222733426615" lon="14.05017161224373"><ele>1629.8000000000002</ele><time>2026-05-03T09:18:25Z</time></trkpt><trkpt lat="41.78234153308126" lon="14.050115986982226"><ele>1625.1999999999998</ele><time>2026-05-03T09:18:27Z</time></trkpt><trkpt lat="41.78244061664383" lon="14.050088922092264"><ele>1620.6</ele><time>2026-05-03T09:18:28Z</time></trkpt><trkpt lat="41.78251501577491" lon="14.050038551260384"><ele>1616.0</ele><time>2026-05-03T09:18:30Z</time></trkpt><trkpt lat="41.7825870240059" lon="14.050003542578066"><ele>1618.5</ele><time>2026-05-03T09:18:31Z</time></trkpt><trkpt lat="41.7826570875296" lon="14.049933722909657"><ele>1621.0</ele><time>2026-05-03T09:18:33Z</time></trkpt><trkpt lat="41.782721570113246" lon="14.049890008403347"><ele>1623.5</ele><time>2026-05-03T09:18:35Z</time></trkpt><trkpt lat="41.78280633606367" lon="14.049823639546892"><ele>1626.0</ele><time>2026-05-03T09:18:37Z</time></trkpt><trkpt lat="41.7830790712764" lon="14.049857830757928"><ele>1618.6666666666665</ele><time>2026-05-03T09:18:40Z</time></trkpt><trkpt lat="41.78314133331049" lon="14.049886216838054"><ele>1611.3333333333333</ele><time>2026-05-03T09:18:42Z</time></trkpt><trkpt lat="41.78342075173064" lon="14.049899757164951"><ele>1604.0</ele><time>2026-05-03T09:18:46Z</time></trkpt><trkpt lat="41.78352252706853" lon="14.04996231025886"><ele>1599.8000000000002</ele><time>2026-05-03T09:18:49Z</time></trkpt><trkpt lat="41.7836210410306" lon="14.050002849433794"><ele>1595.6000000000001</ele><time>2026-05-03T09:18:51Z</time></trkpt><trkpt lat="41.783688326209464" lon="14.050024616695449"><ele>1591.4</ele><time>2026-05-03T09:18:52Z</time></trkpt><trkpt lat="41.78379100644399" lon="14.050065075626481"><ele>1587.2</ele><time>2026-05-03T09:18:54Z</time></trkpt><trkpt lat="41.783856172357254" lon="14.050094942623755"><ele>1583.0</ele><time>2026-05-03T09:18:55Z</time></trkpt><trkpt lat="41.78404298897469" lon="14.050116040608595"><ele>1583.0</ele><time>2026-05-03T09:18:57Z</time></trkpt><trkpt lat="41.784271002250726" lon="14.050287630518296"><ele>1583.0</ele><time>2026-05-03T09:19:01Z</time></trkpt><trkpt lat="41.784350111990776" lon="14.050403211570117"><ele>1583.0</ele><time>2026-05-03T09:19:03Z</time></trkpt><trkpt lat="41.78439897852525" lon="14.050480350895674"><ele>1583.6000000000001</ele><time>2026-05-03T09:19:04Z</time></trkpt><trkpt lat="41.784494473815904" lon="14.050536910246127"><ele>1584.2</ele><time>2026-05-03T09:19:06Z</time></trkpt><trkpt lat="41.78459501672785" lon="14.050617602033551"><ele>1584.8</ele><time>2026-05-03T09:19:08Z</time></trkpt><trkpt lat="41.784617880045616" lon="14.050730837304958"><ele>1585.4</ele><time>2026-05-03T09:19:09Z</time></trkpt><trkpt lat="41.784676293024305" lon="14.05077841577976"><ele>1586.0</ele><time>2026-05-03T09:19:10Z</time></trkpt><trkpt lat="41.784750505487374" lon="14.050899345440527"><ele>1582.6</ele><time>2026-05-03T09:19:12Z</time></trkpt><trkpt lat="41.78486446642697" lon="14.050979742299097"><ele>1579.1999999999998</ele><time>2026-05-03T09:19:15Z</time></trkpt><trkpt lat="41.78496618298169" lon="14.051004638294529"><ele>1575.8000000000002</ele><time>2026-05-03T09:19:17Z</time></trkpt><trkpt lat="41.7850307928373" lon="14.051104288608576"><ele>1572.4</ele><time>2026-05-03T09:19:20Z</time></trkpt><trkpt lat="41.785101934247386" lon="14.05116343895712"><ele>1569.0</ele><time>2026-05-03T09:19:22Z</time></trkpt><trkpt lat="41.7851685960606" lon="14.051233608763132"><ele>1568.0</ele><time>2026-05-03T09:19:24Z</time></trkpt><trkpt lat="41.78522664545345" lon="14.051332161005298"><ele>1567.0</ele><time>2026-05-03T09:19:27Z</time></trkpt><trkpt lat="41.78547427347134" lon="14.051401447733927"><ele>1566.0</ele><time>2026-05-03T09:19:34.999Z</time></trkpt><trkpt lat="41.78561855488086" lon="14.05154641751275"><ele>1566.0</ele><time>2026-05-03T09:19:37.999Z</time></trkpt><trkpt lat="41.78568992241374" lon="14.051588794912513"><ele>1566.0</ele><time>2026-05-03T09:19:38.999Z</time></trkpt><trkpt lat="41.78577129207484" lon="14.051655574536992"><ele>1566.0</ele><time>2026-05-03T09:19:39.999Z</time></trkpt><trkpt lat="41.7857580399191" lon="14.051806749878743"><ele>1566.0</ele><time>2026-05-03T09:19:40.999Z</time></trkpt><trkpt lat="41.78582050511287" lon="14.051919696404404"><ele>1566.0</ele><time>2026-05-03T09:19:42.999Z</time></trkpt><trkpt lat="41.78586433265804" lon="14.052058566852248"><ele>1563.8</ele><time>2026-05-03T09:19:44.999Z</time></trkpt><trkpt lat="41.78590557909675" lon="14.052126813756008"><ele>1561.6</ele><time>2026-05-03T09:19:45.999Z</time></trkpt><trkpt lat="41.78597715744809" lon="14.052288970530222"><ele>1559.4</ele><time>2026-05-03T09:19:47.999Z</time></trkpt><trkpt lat="41.786050505381525" lon="14.05236262248496"><ele>1557.2</ele><time>2026-05-03T09:19:48.999Z</time></trkpt><trkpt lat="41.78609329868562" lon="14.052429265881687"><ele>1555.0</ele><time>2026-05-03T09:19:49.999Z</time></trkpt><trkpt lat="41.786148678988376" lon="14.052529600478456"><ele>1552.6</ele><time>2026-05-03T09:19:50.999Z</time></trkpt><trkpt lat="41.786217541391515" lon="14.05261601406527"><ele>1550.2</ele><time>2026-05-03T09:19:51.999Z</time></trkpt><trkpt lat="41.78633286845999" lon="14.05273290513075"><ele>1547.8000000000002</ele><time>2026-05-03T09:19:53.999Z</time></trkpt><trkpt lat="41.78637677240133" lon="14.052794011823385"><ele>1545.4</ele><time>2026-05-03T09:19:54.999Z</time></trkpt><trkpt lat="41.786444214124174" lon="14.052843040410886"><ele>1543.0</ele><time>2026-05-03T09:19:55.999Z</time></trkpt><trkpt lat="41.78651403517395" lon="14.052928058060704"><ele>1543.0</ele><time>2026-05-03T09:19:57.999Z</time></trkpt><trkpt lat="41.7865591282803" lon="14.053039370468603"><ele>1543.0</ele><time>2026-05-03T09:19:58.999Z</time></trkpt><trkpt lat="41.786616986719366" lon="14.053092118839107"><ele>1543.0</ele><time>2026-05-03T09:19:59.999Z</time></trkpt><trkpt lat="41.786662744507396" lon="14.0531850621771"><ele>1543.0</ele><time>2026-05-03T09:20:00.999Z</time></trkpt><trkpt lat="41.78672519650162" lon="14.053247701273182"><ele>1543.0</ele><time>2026-05-03T09:20:01.999Z</time></trkpt><trkpt lat="41.786822506687486" lon="14.053356975304578"><ele>1541.0</ele><time>2026-05-03T09:20:03.999Z</time></trkpt><trkpt lat="41.78687018601494" lon="14.05344571682611"><ele>1539.0</ele><time>2026-05-03T09:20:06Z</time></trkpt><trkpt lat="41.78688855339482" lon="14.053547983597044"><ele>1537.0</ele><time>2026-05-03T09:20:07Z</time></trkpt><trkpt lat="41.78708021528054" lon="14.05366706008835"><ele>1535.0</ele><time>2026-05-03T09:20:10Z</time></trkpt><trkpt lat="41.787140544419515" lon="14.053748872032145"><ele>1535.0</ele><time>2026-05-03T09:20:11Z</time></trkpt><trkpt lat="41.787199015511646" lon="14.053818588929095"><ele>1535.0</ele><time>2026-05-03T09:20:12Z</time></trkpt><trkpt lat="41.78722410705116" lon="14.053945033398675"><ele>1535.0</ele><time>2026-05-03T09:20:13Z</time></trkpt><trkpt lat="41.787293139995064" lon="14.054069292807414"><ele>1535.0</ele><time>2026-05-03T09:20:15Z</time></trkpt><trkpt lat="41.787340555424144" lon="14.05413395767359"><ele>1535.0</ele><time>2026-05-03T09:20:16Z</time></trkpt><trkpt lat="41.78740759340996" lon="14.05426522194264"><ele>1533.5</ele><time>2026-05-03T09:20:18Z</time></trkpt><trkpt lat="41.78747764903208" lon="14.054332289447363"><ele>1532.0</ele><time>2026-05-03T09:20:19Z</time></trkpt><trkpt lat="41.78753643707555" lon="14.054433526899498"><ele>1530.5</ele><time>2026-05-03T09:20:20Z</time></trkpt><trkpt lat="41.78761380212405" lon="14.054474867419662"><ele>1529.0</ele><time>2026-05-03T09:20:21Z</time></trkpt><trkpt lat="41.787666873310904" lon="14.054537320701145"><ele>1527.5</ele><time>2026-05-03T09:20:22Z</time></trkpt><trkpt lat="41.78773364759767" lon="14.054586768054614"><ele>1526.0</ele><time>2026-05-03T09:20:23Z</time></trkpt><trkpt lat="41.78781072043794" lon="14.054627414356162"><ele>1525.4</ele><time>2026-05-03T09:20:24Z</time></trkpt><trkpt lat="41.78792036154697" lon="14.054701126659582"><ele>1524.8</ele><time>2026-05-03T09:20:25Z</time></trkpt><trkpt lat="41.78802314579023" lon="14.054805854310048"><ele>1524.2</ele><time>2026-05-03T09:20:26Z</time></trkpt><trkpt lat="41.78809937663848" lon="14.054924244514359"><ele>1523.6000000000001</ele><time>2026-05-03T09:20:27Z</time></trkpt><trkpt lat="41.788157060490036" lon="14.054962562383736"><ele>1523.0</ele><time>2026-05-03T09:20:28Z</time></trkpt><trkpt lat="41.78823247118207" lon="14.055072218596845"><ele>1522.6000000000001</ele><time>2026-05-03T09:20:29Z</time></trkpt><trkpt lat="41.788305555192636" lon="14.055160876617624"><ele>1522.2</ele><time>2026-05-03T09:20:30Z</time></trkpt><trkpt lat="41.78836472969622" lon="14.055241539427678"><ele>1521.8</ele><time>2026-05-03T09:20:31Z</time></trkpt><trkpt lat="41.78843968375177" lon="14.055336310408602"><ele>1521.4</ele><time>2026-05-03T09:20:32Z</time></trkpt><trkpt lat="41.78850410014811" lon="14.055416202186372"><ele>1521.0</ele><time>2026-05-03T09:20:33Z</time></trkpt><trkpt lat="41.7885290728397" lon="14.055516266083531"><ele>1521.0</ele><time>2026-05-03T09:20:34Z</time></trkpt><trkpt lat="41.788609396359554" lon="14.05566844247626"><ele>1521.0</ele><time>2026-05-03T09:20:36Z</time></trkpt><trkpt lat="41.78868521002893" lon="14.055686070611193"><ele>1521.0</ele><time>2026-05-03T09:20:37Z</time></trkpt><trkpt lat="41.78874697562354" lon="14.055715156296692"><ele>1521.0</ele><time>2026-05-03T09:20:38Z</time></trkpt><trkpt lat="41.78882663568721" lon="14.05566995817566"><ele>1521.0</ele><time>2026-05-03T09:20:39Z</time></trkpt><trkpt lat="41.7889645881536" lon="14.055745463409806"><ele>1519.0</ele><time>2026-05-03T09:20:42Z</time></trkpt><trkpt lat="41.789024616938676" lon="14.05584341763152"><ele>1517.0</ele><time>2026-05-03T09:20:45Z</time></trkpt><trkpt lat="41.78899133870757" lon="14.055917408733428"><ele>1515.0</ele><time>2026-05-03T09:20:48Z</time></trkpt><trkpt lat="41.78899628388082" lon="14.056012841376647"><ele>1513.0</ele><time>2026-05-03T09:20:51Z</time></trkpt><trkpt lat="41.789073324128815" lon="14.055987142603147"><ele>1511.0</ele><time>2026-05-03T09:20:55Z</time></trkpt><trkpt lat="41.789164968057825" lon="14.055913962378922"><ele>1509.0</ele><time>2026-05-03T09:20:57Z</time></trkpt><trkpt lat="41.78923420642271" lon="14.055877633183577"><ele>1509.0</ele><time>2026-05-03T09:20:58Z</time></trkpt><trkpt lat="41.78929316787687" lon="14.055821468028174"><ele>1509.0</ele><time>2026-05-03T09:20:59Z</time></trkpt><trkpt lat="41.78937228475404" lon="14.05577413489891"><ele>1509.0</ele><time>2026-05-03T09:21:01Z</time></trkpt><trkpt lat="41.7894708295387" lon="14.055823284672194"><ele>1509.0</ele><time>2026-05-03T09:21:03Z</time></trkpt><trkpt lat="41.78954258678677" lon="14.055842878781547"><ele>1509.0</ele><time>2026-05-03T09:21:04Z</time></trkpt><trkpt lat="41.789620683639676" lon="14.05585579903547"><ele>1509.0</ele><time>2026-05-03T09:21:05Z</time></trkpt><trkpt lat="41.78969850124575" lon="14.0558601464665"><ele>1508.5</ele><time>2026-05-03T09:21:06Z</time></trkpt><trkpt lat="41.78977764078053" lon="14.055879669060577"><ele>1508.0</ele><time>2026-05-03T09:21:07Z</time></trkpt><trkpt lat="41.78985119706984" lon="14.05590888160873"><ele>1507.5</ele><time>2026-05-03T09:21:08Z</time></trkpt><trkpt lat="41.78989794849925" lon="14.055966136708696"><ele>1507.0</ele><time>2026-05-03T09:21:09Z</time></trkpt><trkpt lat="41.789998989432306" lon="14.055982922187173"><ele>1506.5</ele><time>2026-05-03T09:21:10Z</time></trkpt><trkpt lat="41.79007627231998" lon="14.056015804542685"><ele>1506.0</ele><time>2026-05-03T09:21:11Z</time></trkpt><trkpt lat="41.79016014698176" lon="14.056064547080275"><ele>1507.8</ele><time>2026-05-03T09:21:12Z</time></trkpt><trkpt lat="41.79023867481964" lon="14.056107981228552"><ele>1509.6</ele><time>2026-05-03T09:21:13Z</time></trkpt><trkpt lat="41.79035728527421" lon="14.056158559082425"><ele>1511.4</ele><time>2026-05-03T09:21:14Z</time></trkpt><trkpt lat="41.79046886912747" lon="14.056214072392981"><ele>1513.2</ele><time>2026-05-03T09:21:15Z</time></trkpt><trkpt lat="41.79055121324806" lon="14.056293647740256"><ele>1515.0</ele><time>2026-05-03T09:21:16Z</time></trkpt><trkpt lat="41.790601590103506" lon="14.056357165059632"><ele>1515.0</ele><time>2026-05-03T09:21:17Z</time></trkpt><trkpt lat="41.79069763459868" lon="14.056427333265033"><ele>1515.0</ele><time>2026-05-03T09:21:19Z</time></trkpt><trkpt lat="41.79078258603932" lon="14.056491339504275"><ele>1515.0</ele><time>2026-05-03T09:21:20Z</time></trkpt><trkpt lat="41.790868591764394" lon="14.056508793518274"><ele>1515.0</ele><time>2026-05-03T09:21:21Z</time></trkpt><trkpt lat="41.790988040017304" lon="14.05653880116822"><ele>1515.0</ele><time>2026-05-03T09:21:23Z</time></trkpt><trkpt lat="41.791092247691005" lon="14.056591329850864"><ele>1514.5</ele><time>2026-05-03T09:21:25Z</time></trkpt><trkpt lat="41.79117216011378" lon="14.056544266026696"><ele>1514.0</ele><time>2026-05-03T09:21:26Z</time></trkpt><trkpt lat="41.79131466775806" lon="14.056514094334586"><ele>1513.5</ele><time>2026-05-03T09:21:27Z</time></trkpt><trkpt lat="41.79149332036262" lon="14.056441276728032"><ele>1513.0</ele><time>2026-05-03T09:21:28Z</time></trkpt><trkpt lat="41.791605808632845" lon="14.056362340004979"><ele>1513.0</ele><time>2026-05-03T09:21:29Z</time></trkpt><trkpt lat="41.7917545950876" lon="14.056297842415182"><ele>1513.0</ele><time>2026-05-03T09:21:30Z</time></trkpt><trkpt lat="41.79186813190869" lon="14.056337029553994"><ele>1513.0</ele><time>2026-05-03T09:21:31Z</time></trkpt><trkpt lat="41.79195609150424" lon="14.056389543918803"><ele>1513.0</ele><time>2026-05-03T09:21:32Z</time></trkpt><trkpt lat="41.79201715576381" lon="14.056487048414162"><ele>1512.0</ele><time>2026-05-03T09:21:33Z</time></trkpt><trkpt lat="41.79210953879882" lon="14.056580947866806"><ele>1511.0</ele><time>2026-05-03T09:21:33.999Z</time></trkpt><trkpt lat="41.792235648679366" lon="14.056629161059579"><ele>1510.0</ele><time>2026-05-03T09:21:34.999Z</time></trkpt><trkpt lat="41.79237488428075" lon="14.056664710759643"><ele>1509.0</ele><time>2026-05-03T09:21:35.999Z</time></trkpt><trkpt lat="41.792490342606236" lon="14.056722346292805"><ele>1510.1666666666667</ele><time>2026-05-03T09:21:36.999Z</time></trkpt><trkpt lat="41.79255445107927" lon="14.056756448372045"><ele>1511.3333333333333</ele><time>2026-05-03T09:21:37.999Z</time></trkpt><trkpt lat="41.79263694376632" lon="14.056713532375715"><ele>1512.5</ele><time>2026-05-03T09:21:39.999Z</time></trkpt><trkpt lat="41.792729020728586" lon="14.056671514477449"><ele>1513.6666666666665</ele><time>2026-05-03T09:21:41.999Z</time></trkpt><trkpt lat="41.7927995552131" lon="14.056637023994007"><ele>1514.8333333333333</ele><time>2026-05-03T09:21:43.999Z</time></trkpt><trkpt lat="41.792891510263786" lon="14.056556456526593"><ele>1516.0</ele><time>2026-05-03T09:21:45.999Z</time></trkpt><trkpt lat="41.79294339795303" lon="14.056421748924809"><ele>1516.0</ele><time>2026-05-03T09:21:47.999Z</time></trkpt><trkpt lat="41.79297729113025" lon="14.056314292060648"><ele>1516.0</ele><time>2026-05-03T09:21:49.999Z</time></trkpt><trkpt lat="41.79291679672031" lon="14.056271129257345"><ele>1516.0</ele><time>2026-05-03T09:21:51.999Z</time></trkpt><trkpt lat="41.79284881456677" lon="14.056320719612177"><ele>1516.0</ele><time>2026-05-03T09:23:32Z</time></trkpt><trkpt lat="41.79283067801131" lon="14.056405169543172"><ele>1516.0</ele><time>2026-05-03T09:23:34Z</time></trkpt><trkpt lat="41.79283505112995" lon="14.056521803325534"><ele>1516.0</ele><time>2026-05-03T09:23:37Z</time></trkpt><trkpt lat="41.79281163470817" lon="14.056627316937115"><ele>1512.1666666666665</ele><time>2026-05-03T09:23:40Z</time></trkpt><trkpt lat="41.79280985871738" lon="14.056733706252755"><ele>1508.3333333333333</ele><time>2026-05-03T09:23:43Z</time></trkpt><trkpt lat="41.792868362453675" lon="14.056800143514737"><ele>1504.5</ele><time>2026-05-03T09:23:45.999Z</time></trkpt><trkpt lat="41.79292364620434" lon="14.056841971721214"><ele>1500.6666666666667</ele><time>2026-05-03T09:23:48.999Z</time></trkpt><trkpt lat="41.792994825335654" lon="14.05688135482659"><ele>1496.8333333333335</ele><time>2026-05-03T09:23:51.999Z</time></trkpt><trkpt lat="41.793078820335026" lon="14.056897139981835"><ele>1493.0</ele><time>2026-05-03T09:23:54.999Z</time></trkpt><trkpt lat="41.79315482077547" lon="14.056901008737045"><ele>1493.0</ele><time>2026-05-03T09:23:57.999Z</time></trkpt><trkpt lat="41.79323189291256" lon="14.056914124027633"><ele>1493.0</ele><time>2026-05-03T09:24:01.999Z</time></trkpt><trkpt lat="41.793297590894596" lon="14.056944963805067"><ele>1493.0</ele><time>2026-05-03T09:24:05.999Z</time></trkpt><trkpt lat="41.793373250674534" lon="14.056961754519454"><ele>1493.0</ele><time>2026-05-03T09:24:08.999Z</time></trkpt><trkpt lat="41.79344147908913" lon="14.056990665489357"><ele>1493.0</ele><time>2026-05-03T09:24:12.999Z</time></trkpt><trkpt lat="41.793506542737305" lon="14.057028105219398"><ele>1493.0</ele><time>2026-05-03T09:24:18Z</time></trkpt><trkpt lat="41.79357533149706" lon="14.057058636084975"><ele>1493.0</ele><time>2026-05-03T09:24:21Z</time></trkpt><trkpt lat="41.793652413118494" lon="14.057091609956617"><ele>1489.8000000000002</ele><time>2026-05-03T09:24:26Z</time></trkpt><trkpt lat="41.79372824555137" lon="14.05708281803345"><ele>1486.6</ele><time>2026-05-03T09:24:28Z</time></trkpt><trkpt lat="41.793843044432" lon="14.057066136930281"><ele>1483.4</ele><time>2026-05-03T09:24:30Z</time></trkpt><trkpt lat="41.793937946464546" lon="14.057066716881417"><ele>1480.1999999999998</ele><time>2026-05-03T09:24:32Z</time></trkpt><trkpt lat="41.7940239636772" lon="14.057107770633985"><ele>1477.0</ele><time>2026-05-03T09:24:34Z</time></trkpt><trkpt lat="41.79412378709287" lon="14.057158033982411"><ele>1477.0</ele><time>2026-05-03T09:24:38Z</time></trkpt><trkpt lat="41.794209547793734" lon="14.057186120487648"><ele>1477.0</ele><time>2026-05-03T09:24:40Z</time></trkpt><trkpt lat="41.7942743403874" lon="14.057248378273922"><ele>1477.0</ele><time>2026-05-03T09:24:43Z</time></trkpt><trkpt lat="41.79434344397078" lon="14.057282174134038"><ele>1477.0</ele><time>2026-05-03T09:24:46Z</time></trkpt><trkpt lat="41.79455669958386" lon="14.057299207352976"><ele>1470.3999999999999</ele><time>2026-05-03T09:25:40.999Z</time></trkpt><trkpt lat="41.79463609855681" lon="14.057363860101265"><ele>1463.8</ele><time>2026-05-03T09:25:42.999Z</time></trkpt><trkpt lat="41.79473999559386" lon="14.057424656013628"><ele>1457.2</ele><time>2026-05-03T09:25:44.999Z</time></trkpt><trkpt lat="41.79485452544735" lon="14.057509293026218"><ele>1450.6</ele><time>2026-05-03T09:25:46.999Z</time></trkpt><trkpt lat="41.79491369027293" lon="14.057548765305487"><ele>1444.0</ele><time>2026-05-03T09:25:47.999Z</time></trkpt><trkpt lat="41.79501307119821" lon="14.057604528665685"><ele>1441.3333333333333</ele><time>2026-05-03T09:25:49.999Z</time></trkpt><trkpt lat="41.79511433231136" lon="14.057688493564395"><ele>1438.6666666666665</ele><time>2026-05-03T09:25:51.999Z</time></trkpt><trkpt lat="41.79521637567791" lon="14.057753033035517"><ele>1436.0</ele><time>2026-05-03T09:25:53.999Z</time></trkpt><trkpt lat="41.79528706901915" lon="14.057790459416776"><ele>1433.3333333333333</ele><time>2026-05-03T09:25:54.999Z</time></trkpt><trkpt lat="41.79534723699248" lon="14.057818814731991"><ele>1430.6666666666667</ele><time>2026-05-03T09:25:55.999Z</time></trkpt><trkpt lat="41.79542001895034" lon="14.057844176390606"><ele>1428.0</ele><time>2026-05-03T09:25:56.999Z</time></trkpt><trkpt lat="41.79548483603835" lon="14.057860727949132"><ele>1427.0</ele><time>2026-05-03T09:25:57.999Z</time></trkpt><trkpt lat="41.79556555704673" lon="14.057875187016089"><ele>1426.0</ele><time>2026-05-03T09:25:58.999Z</time></trkpt><trkpt lat="41.795644505386235" lon="14.057881989340915"><ele>1425.0</ele><time>2026-05-03T09:25:59.999Z</time></trkpt><trkpt lat="41.795726295119216" lon="14.057871840205692"><ele>1424.0</ele><time>2026-05-03T09:26:00.999Z</time></trkpt><trkpt lat="41.795796719950026" lon="14.057842261911574"><ele>1423.0</ele><time>2026-05-03T09:26:01.999Z</time></trkpt><trkpt lat="41.79586340256183" lon="14.057802956174895"><ele>1422.0</ele><time>2026-05-03T09:26:02.999Z</time></trkpt><trkpt lat="41.79595580637865" lon="14.057741923154964"><ele>1421.0</ele><time>2026-05-03T09:26:03.999Z</time></trkpt><trkpt lat="41.79604075413979" lon="14.057697265431106"><ele>1420.0</ele><time>2026-05-03T09:26:04.999Z</time></trkpt><trkpt lat="41.79612251717787" lon="14.057667481354772"><ele>1419.0</ele><time>2026-05-03T09:26:05.999Z</time></trkpt><trkpt lat="41.79620951924742" lon="14.057646714475261"><ele>1418.0</ele><time>2026-05-03T09:26:06.999Z</time></trkpt><trkpt lat="41.7963158552182" lon="14.057626962038984"><ele>1417.0</ele><time>2026-05-03T09:26:07.999Z</time></trkpt><trkpt lat="41.79643798346804" lon="14.057595868269525"><ele>1417.0</ele><time>2026-05-03T09:26:08.999Z</time></trkpt><trkpt lat="41.796573003686206" lon="14.057558507429926"><ele>1417.0</ele><time>2026-05-03T09:26:09.999Z</time></trkpt><trkpt lat="41.79672539989035" lon="14.05752510948176"><ele>1417.0</ele><time>2026-05-03T09:26:10.999Z</time></trkpt><trkpt lat="41.79689628568527" lon="14.057480289292029"><ele>1417.75</ele><time>2026-05-03T09:26:11.999Z</time></trkpt><trkpt lat="41.7970319440449" lon="14.057444773113078"><ele>1418.5</ele><time>2026-05-03T09:26:12.999Z</time></trkpt><trkpt lat="41.797162258841425" lon="14.05742036259089"><ele>1419.25</ele><time>2026-05-03T09:26:13.999Z</time></trkpt><trkpt lat="41.797279150726375" lon="14.057408192982004"><ele>1420.0</ele><time>2026-05-03T09:26:14.999Z</time></trkpt><trkpt lat="41.797412233878234" lon="14.05740939172465"><ele>1420.0</ele><time>2026-05-03T09:26:15.999Z</time></trkpt><trkpt lat="41.797558082875405" lon="14.057413718556555"><ele>1420.0</ele><time>2026-05-03T09:26:16.999Z</time></trkpt><trkpt lat="41.7976987007888" lon="14.057401803767808"><ele>1420.0</ele><time>2026-05-03T09:26:17.999Z</time></trkpt><trkpt lat="41.797831285201816" lon="14.057375585249154"><ele>1420.0</ele><time>2026-05-03T09:26:18.999Z</time></trkpt><trkpt lat="41.79798186687068" lon="14.05734324509089"><ele>1419.25</ele><time>2026-05-03T09:26:19.999Z</time></trkpt><trkpt lat="41.798137309312864" lon="14.057311591943897"><ele>1418.5</ele><time>2026-05-03T09:26:20.999Z</time></trkpt><trkpt lat="41.798263013668155" lon="14.057277455689759"><ele>1417.75</ele><time>2026-05-03T09:26:21.999Z</time></trkpt><trkpt lat="41.798374225984524" lon="14.057245476141054"><ele>1417.0</ele><time>2026-05-03T09:26:22.999Z</time></trkpt><trkpt lat="41.79850614018359" lon="14.057206048421676"><ele>1415.5</ele><time>2026-05-03T09:26:24Z</time></trkpt><trkpt lat="41.79862618071075" lon="14.057151156453706"><ele>1414.0</ele><time>2026-05-03T09:26:25Z</time></trkpt><trkpt lat="41.79872850749983" lon="14.057063622362522"><ele>1412.5</ele><time>2026-05-03T09:26:26Z</time></trkpt><trkpt lat="41.79884029394939" lon="14.056942015320104"><ele>1411.0</ele><time>2026-05-03T09:26:27Z</time></trkpt><trkpt lat="41.7989592102992" lon="14.056842129838328"><ele>1411.0</ele><time>2026-05-03T09:26:28Z</time></trkpt><trkpt lat="41.79908902189261" lon="14.056786485811397"><ele>1411.0</ele><time>2026-05-03T09:26:29Z</time></trkpt><trkpt lat="41.79922124684183" lon="14.056728684833404"><ele>1411.0</ele><time>2026-05-03T09:26:30Z</time></trkpt><trkpt lat="41.7993476201708" lon="14.056640390988994"><ele>1411.0</ele><time>2026-05-03T09:26:31Z</time></trkpt><trkpt lat="41.79946304335598" lon="14.056543168729062"><ele>1410.6666666666665</ele><time>2026-05-03T09:26:32Z</time></trkpt><trkpt lat="41.79957518313263" lon="14.056424792259177"><ele>1410.3333333333333</ele><time>2026-05-03T09:26:33Z</time></trkpt><trkpt lat="41.79969603398224" lon="14.056256434744673"><ele>1410.0</ele><time>2026-05-03T09:26:34Z</time></trkpt><trkpt lat="41.79982600875818" lon="14.056101094293119"><ele>1410.0</ele><time>2026-05-03T09:26:35Z</time></trkpt><trkpt lat="41.79994479779958" lon="14.055989877350175"><ele>1410.0</ele><time>2026-05-03T09:26:36Z</time></trkpt><trkpt lat="41.800066730071734" lon="14.055917736364755"><ele>1410.0</ele><time>2026-05-03T09:26:37Z</time></trkpt><trkpt lat="41.800193797955544" lon="14.05587665072999"><ele>1410.0</ele><time>2026-05-03T09:26:38Z</time></trkpt><trkpt lat="41.80031627740162" lon="14.055852236329148"><ele>1409.75</ele><time>2026-05-03T09:26:39Z</time></trkpt><trkpt lat="41.8004469987906" lon="14.0558279062598"><ele>1409.5</ele><time>2026-05-03T09:26:40Z</time></trkpt><trkpt lat="41.800593049873456" lon="14.05580757749286"><ele>1409.25</ele><time>2026-05-03T09:26:41Z</time></trkpt><trkpt lat="41.800728397300006" lon="14.055788201512406"><ele>1409.0</ele><time>2026-05-03T09:26:42Z</time></trkpt><trkpt lat="41.800864949981026" lon="14.055751070946163"><ele>1409.0</ele><time>2026-05-03T09:26:43Z</time></trkpt><trkpt lat="41.80100892507004" lon="14.055712284487958"><ele>1409.0</ele><time>2026-05-03T09:26:44Z</time></trkpt><trkpt lat="41.801154496815315" lon="14.055659531227448"><ele>1409.0</ele><time>2026-05-03T09:26:45Z</time></trkpt><trkpt lat="41.80130521740481" lon="14.055598658460466"><ele>1409.0</ele><time>2026-05-03T09:26:46Z</time></trkpt><trkpt lat="41.80145100110628" lon="14.05554665230842"><ele>1409.0</ele><time>2026-05-03T09:26:47Z</time></trkpt><trkpt lat="41.80158419189986" lon="14.055513820490837"><ele>1409.0</ele><time>2026-05-03T09:26:48Z</time></trkpt><trkpt lat="41.80171927103281" lon="14.055482008219535"><ele>1409.0</ele><time>2026-05-03T09:26:49Z</time></trkpt><trkpt lat="41.80188285963096" lon="14.055440094589352"><ele>1410.3333333333335</ele><time>2026-05-03T09:26:50Z</time></trkpt><trkpt lat="41.80206262269437" lon="14.055401073619374"><ele>1411.6666666666667</ele><time>2026-05-03T09:26:51Z</time></trkpt><trkpt lat="41.802232999477106" lon="14.055369987199274"><ele>1413.0</ele><time>2026-05-03T09:26:52Z</time></trkpt><trkpt lat="41.80236784598381" lon="14.055350818198761"><ele>1413.0</ele><time>2026-05-03T09:26:53Z</time></trkpt><trkpt lat="41.80249171692936" lon="14.055341677988375"><ele>1413.0</ele><time>2026-05-03T09:26:54Z</time></trkpt><trkpt lat="41.802603772383826" lon="14.055343517949995"><ele>1413.0</ele><time>2026-05-03T09:26:55Z</time></trkpt><trkpt lat="41.80273794950939" lon="14.05533346997892"><ele>1413.0</ele><time>2026-05-03T09:26:56Z</time></trkpt><trkpt lat="41.802892458494306" lon="14.055287864361748"><ele>1414.3333333333333</ele><time>2026-05-03T09:26:57Z</time></trkpt><trkpt lat="41.803061459793526" lon="14.05522787631727"><ele>1415.6666666666665</ele><time>2026-05-03T09:26:58Z</time></trkpt><trkpt lat="41.803213372465876" lon="14.055170766963492"><ele>1417.0</ele><time>2026-05-03T09:26:59Z</time></trkpt><trkpt lat="41.803353704556606" lon="14.055131620600905"><ele>1417.0</ele><time>2026-05-03T09:27:00Z</time></trkpt><trkpt lat="41.80350547025029" lon="14.055095236216664"><ele>1417.0</ele><time>2026-05-03T09:27:01Z</time></trkpt><trkpt lat="41.803660298198295" lon="14.05504709845585"><ele>1417.0</ele><time>2026-05-03T09:27:02Z</time></trkpt><trkpt lat="41.803783177858286" lon="14.05499832515815"><ele>1417.0</ele><time>2026-05-03T09:27:03Z</time></trkpt><trkpt lat="41.8038936894744" lon="14.05495617531027"><ele>1418.25</ele><time>2026-05-03T09:27:04Z</time></trkpt><trkpt lat="41.80403040659002" lon="14.05489383766492"><ele>1419.5</ele><time>2026-05-03T09:27:05Z</time></trkpt><trkpt lat="41.8041942979682" lon="14.054831124713669"><ele>1420.75</ele><time>2026-05-03T09:27:06Z</time></trkpt><trkpt lat="41.80432468851151" lon="14.054786631072156"><ele>1422.0</ele><time>2026-05-03T09:27:07Z</time></trkpt><trkpt lat="41.804468930940644" lon="14.054756890231802"><ele>1422.0</ele><time>2026-05-03T09:27:08Z</time></trkpt><trkpt lat="41.804602087669956" lon="14.054754811861166"><ele>1422.0</ele><time>2026-05-03T09:27:09Z</time></trkpt><trkpt lat="41.8047383911956" lon="14.054744956195439"><ele>1422.0</ele><time>2026-05-03T09:27:10Z</time></trkpt><trkpt lat="41.80487850357457" lon="14.054726584736894"><ele>1422.0</ele><time>2026-05-03T09:27:11Z</time></trkpt><trkpt lat="41.80502227210462" lon="14.054703705493642"><ele>1422.0</ele><time>2026-05-03T09:27:12Z</time></trkpt><trkpt lat="41.80516728426094" lon="14.054687147363243"><ele>1422.0</ele><time>2026-05-03T09:27:13Z</time></trkpt><trkpt lat="41.805325973388975" lon="14.054670382659204"><ele>1422.0</ele><time>2026-05-03T09:27:14Z</time></trkpt><trkpt lat="41.80547124566419" lon="14.054641005072561"><ele>1422.0</ele><time>2026-05-03T09:27:15Z</time></trkpt><trkpt lat="41.8056179169287" lon="14.054618641767782"><ele>1422.0</ele><time>2026-05-03T09:27:16Z</time></trkpt><trkpt lat="41.80574744395451" lon="14.054601259471838"><ele>1422.0</ele><time>2026-05-03T09:27:17Z</time></trkpt><trkpt lat="41.80586414166376" lon="14.05459178083714"><ele>1422.0</ele><time>2026-05-03T09:27:18Z</time></trkpt><trkpt lat="41.80598709781073" lon="14.054586770793438"><ele>1421.5</ele><time>2026-05-03T09:27:19Z</time></trkpt><trkpt lat="41.80612844236664" lon="14.054587943386851"><ele>1421.0</ele><time>2026-05-03T09:27:20Z</time></trkpt><trkpt lat="41.806246006276" lon="14.054603539998265"><ele>1420.5</ele><time>2026-05-03T09:27:21Z</time></trkpt><trkpt lat="41.80635303714113" lon="14.054604971674573"><ele>1420.0</ele><time>2026-05-03T09:27:22Z</time></trkpt><trkpt lat="41.8064713315088" lon="14.054590783865395"><ele>1420.0</ele><time>2026-05-03T09:27:23Z</time></trkpt><trkpt lat="41.80660958210784" lon="14.054557846776625"><ele>1420.0</ele><time>2026-05-03T09:27:24Z</time></trkpt><trkpt lat="41.806762497819655" lon="14.05451629102801"><ele>1420.0</ele><time>2026-05-03T09:27:25Z</time></trkpt><trkpt lat="41.80688716372129" lon="14.05447106831229"><ele>1420.0</ele><time>2026-05-03T09:27:26Z</time></trkpt><trkpt lat="41.80699410432715" lon="14.054438444569826"><ele>1418.75</ele><time>2026-05-03T09:27:27Z</time></trkpt><trkpt lat="41.80711018487327" lon="14.054404369542631"><ele>1417.5</ele><time>2026-05-03T09:27:28Z</time></trkpt><trkpt lat="41.807256200364996" lon="14.054359461623223"><ele>1416.25</ele><time>2026-05-03T09:27:29Z</time></trkpt><trkpt lat="41.80740532096313" lon="14.054310946082037"><ele>1415.0</ele><time>2026-05-03T09:27:30Z</time></trkpt><trkpt lat="41.80757979246273" lon="14.054267083346476"><ele>1415.0</ele><time>2026-05-03T09:27:31Z</time></trkpt><trkpt lat="41.807762105613236" lon="14.054221154290063"><ele>1415.0</ele><time>2026-05-03T09:27:32Z</time></trkpt><trkpt lat="41.807972490175224" lon="14.054184629240295"><ele>1415.0</ele><time>2026-05-03T09:27:33Z</time></trkpt><trkpt lat="41.80818569513066" lon="14.054153891176322"><ele>1415.3333333333335</ele><time>2026-05-03T09:27:34Z</time></trkpt><trkpt lat="41.8083815860485" lon="14.054120733442533"><ele>1415.6666666666667</ele><time>2026-05-03T09:27:35Z</time></trkpt><trkpt lat="41.80859006265516" lon="14.05407814293075"><ele>1416.0</ele><time>2026-05-03T09:27:36Z</time></trkpt><trkpt lat="41.808783922927" lon="14.054034187473913"><ele>1415.3333333333333</ele><time>2026-05-03T09:27:37Z</time></trkpt><trkpt lat="41.80895275755229" lon="14.053997050241916"><ele>1414.6666666666665</ele><time>2026-05-03T09:27:38Z</time></trkpt><trkpt lat="41.809111490663355" lon="14.053964728072778"><ele>1414.0</ele><time>2026-05-03T09:27:38.999Z</time></trkpt><trkpt lat="41.80926827900695" lon="14.0539445602974"><ele>1414.5</ele><time>2026-05-03T09:27:39.999Z</time></trkpt><trkpt lat="41.80940039654138" lon="14.053934025408072"><ele>1415.0</ele><time>2026-05-03T09:27:40.999Z</time></trkpt><trkpt lat="41.80952974116339" lon="14.053936755965216"><ele>1415.5</ele><time>2026-05-03T09:27:41.999Z</time></trkpt><trkpt lat="41.809656348460265" lon="14.053927993130529"><ele>1416.0</ele><time>2026-05-03T09:27:42.999Z</time></trkpt><trkpt lat="41.809785608356705" lon="14.053923390769386"><ele>1416.0</ele><time>2026-05-03T09:27:43.999Z</time></trkpt><trkpt lat="41.80993118535869" lon="14.053927269755949"><ele>1416.0</ele><time>2026-05-03T09:27:44.999Z</time></trkpt><trkpt lat="41.81007957380759" lon="14.053932145609638"><ele>1416.0</ele><time>2026-05-03T09:27:45.999Z</time></trkpt><trkpt lat="41.81024281198931" lon="14.053921613201261"><ele>1417.0</ele><time>2026-05-03T09:27:46.999Z</time></trkpt><trkpt lat="41.81041703640771" lon="14.053908594842367"><ele>1418.0</ele><time>2026-05-03T09:27:47.999Z</time></trkpt><trkpt lat="41.81059576807137" lon="14.053876212149843"><ele>1419.0</ele><time>2026-05-03T09:27:48.999Z</time></trkpt><trkpt lat="41.81078208741168" lon="14.053869157264769"><ele>1419.0</ele><time>2026-05-03T09:27:49.999Z</time></trkpt><trkpt lat="41.81095613041546" lon="14.053844973240878"><ele>1419.0</ele><time>2026-05-03T09:27:50.999Z</time></trkpt><trkpt lat="41.811147567200415" lon="14.053797269952746"><ele>1419.0</ele><time>2026-05-03T09:27:51.999Z</time></trkpt><trkpt lat="41.81133944702019" lon="14.053761873780786"><ele>1419.6666666666667</ele><time>2026-05-03T09:27:52.999Z</time></trkpt><trkpt lat="41.81153187061288" lon="14.053705667972753"><ele>1420.3333333333335</ele><time>2026-05-03T09:27:53.999Z</time></trkpt><trkpt lat="41.81172341645362" lon="14.053654858697206"><ele>1421.0</ele><time>2026-05-03T09:27:54.999Z</time></trkpt><trkpt lat="41.81191964291843" lon="14.053609507633626"><ele>1423.3333333333335</ele><time>2026-05-03T09:27:55.999Z</time></trkpt><trkpt lat="41.81211191213549" lon="14.053570239622497"><ele>1425.6666666666667</ele><time>2026-05-03T09:27:56.999Z</time></trkpt><trkpt lat="41.812307140456255" lon="14.053541810090383"><ele>1428.0</ele><time>2026-05-03T09:27:57.999Z</time></trkpt><trkpt lat="41.81250006343949" lon="14.05351633024646"><ele>1429.6666666666667</ele><time>2026-05-03T09:27:58.999Z</time></trkpt><trkpt lat="41.812672487810076" lon="14.053490579145203"><ele>1431.3333333333335</ele><time>2026-05-03T09:27:59.999Z</time></trkpt><trkpt lat="41.81282195516643" lon="14.053468747104496"><ele>1433.0</ele><time>2026-05-03T09:28:00.999Z</time></trkpt><trkpt lat="41.81298532172306" lon="14.053447576711116"><ele>1433.0</ele><time>2026-05-03T09:28:01.999Z</time></trkpt><trkpt lat="41.81316695753388" lon="14.053421703384013"><ele>1433.0</ele><time>2026-05-03T09:28:02.999Z</time></trkpt><trkpt lat="41.81335566143421" lon="14.053382684925248"><ele>1433.0</ele><time>2026-05-03T09:28:03.999Z</time></trkpt><trkpt lat="41.8135434309596" lon="14.053339720177249"><ele>1433.0</ele><time>2026-05-03T09:28:04.999Z</time></trkpt><trkpt lat="41.81373173187497" lon="14.053301003893571"><ele>1433.0</ele><time>2026-05-03T09:28:05.999Z</time></trkpt><trkpt lat="41.813915568588484" lon="14.053266465327317"><ele>1433.0</ele><time>2026-05-03T09:28:06.999Z</time></trkpt><trkpt lat="41.814092459775054" lon="14.05324490520162"><ele>1433.5</ele><time>2026-05-03T09:28:07.999Z</time></trkpt><trkpt lat="41.81424413730463" lon="14.053238208485888"><ele>1434.0</ele><time>2026-05-03T09:28:08.999Z</time></trkpt><trkpt lat="41.81437217354411" lon="14.053231890190613"><ele>1434.5</ele><time>2026-05-03T09:28:09.999Z</time></trkpt><trkpt lat="41.81449243775737" lon="14.053225627897953"><ele>1435.0</ele><time>2026-05-03T09:28:10.999Z</time></trkpt><trkpt lat="41.81461188920414" lon="14.053223659348726"><ele>1436.4</ele><time>2026-05-03T09:28:11.999Z</time></trkpt><trkpt lat="41.814731382380174" lon="14.053219742774129"><ele>1437.8</ele><time>2026-05-03T09:28:12.999Z</time></trkpt><trkpt lat="41.814831589463815" lon="14.053208473592964"><ele>1439.1999999999998</ele><time>2026-05-03T09:28:13.999Z</time></trkpt><trkpt lat="41.81490581743411" lon="14.05319240142316"><ele>1440.6</ele><time>2026-05-03T09:28:14.999Z</time></trkpt><trkpt lat="41.81500270377349" lon="14.053181999609759"><ele>1442.0</ele><time>2026-05-03T09:28:16.999Z</time></trkpt><trkpt lat="41.81493430767863" lon="14.053137024606487"><ele>1442.0</ele><time>2026-05-03T09:28:23.999Z</time></trkpt><trkpt lat="41.814819211711225" lon="14.053171428654"><ele>1442.0</ele><time>2026-05-03T09:28:24.999Z</time></trkpt><trkpt lat="41.814679694530064" lon="14.05319229066902"><ele>1442.0</ele><time>2026-05-03T09:28:25.999Z</time></trkpt><trkpt lat="41.81452140414513" lon="14.053217878410571"><ele>1442.0</ele><time>2026-05-03T09:28:26.999Z</time></trkpt><trkpt lat="41.81434037094056" lon="14.05320554023808"><ele>1439.6666666666667</ele><time>2026-05-03T09:28:27.999Z</time></trkpt><trkpt lat="41.81413862865425" lon="14.053210359040657"><ele>1437.3333333333333</ele><time>2026-05-03T09:28:28.999Z</time></trkpt><trkpt lat="41.81394040393956" lon="14.053234563566841"><ele>1435.0</ele><time>2026-05-03T09:28:30Z</time></trkpt><trkpt lat="41.813735323010135" lon="14.053270763547827"><ele>1434.0</ele><time>2026-05-03T09:28:31Z</time></trkpt><trkpt lat="41.81350177291375" lon="14.053314521738812"><ele>1433.0</ele><time>2026-05-03T09:28:32Z</time></trkpt><trkpt lat="41.81328240850697" lon="14.053355249270034"><ele>1433.0</ele><time>2026-05-03T09:28:33Z</time></trkpt><trkpt lat="41.81309490268406" lon="14.05338996956836"><ele>1433.0</ele><time>2026-05-03T09:28:34Z</time></trkpt><trkpt lat="41.81292833918948" lon="14.05341890957823"><ele>1433.0</ele><time>2026-05-03T09:28:35Z</time></trkpt><trkpt lat="41.81277374714667" lon="14.0534419666981"><ele>1431.3333333333335</ele><time>2026-05-03T09:28:36Z</time></trkpt><trkpt lat="41.8126145748108" lon="14.053464163519598"><ele>1429.6666666666667</ele><time>2026-05-03T09:28:37Z</time></trkpt><trkpt lat="41.812454952034834" lon="14.05348642315512"><ele>1428.0</ele><time>2026-05-03T09:28:38Z</time></trkpt><trkpt lat="41.81230932940854" lon="14.053506730446296"><ele>1428.0</ele><time>2026-05-03T09:28:39Z</time></trkpt><trkpt lat="41.812164136329855" lon="14.053528546044555"><ele>1428.0</ele><time>2026-05-03T09:28:40Z</time></trkpt><trkpt lat="41.81202632215087" lon="14.053555563907821"><ele>1428.0</ele><time>2026-05-03T09:28:41Z</time></trkpt><trkpt lat="41.81189116536998" lon="14.053585481145825"><ele>1428.0</ele><time>2026-05-03T09:28:42Z</time></trkpt><trkpt lat="41.8117480780168" lon="14.053620089693062"><ele>1426.25</ele><time>2026-05-03T09:28:43Z</time></trkpt><trkpt lat="41.81160744666837" lon="14.053656051190641"><ele>1424.5</ele><time>2026-05-03T09:28:44Z</time></trkpt><trkpt lat="41.81147045840755" lon="14.053694632672142"><ele>1422.75</ele><time>2026-05-03T09:28:45Z</time></trkpt><trkpt lat="41.81133268410099" lon="14.053734163854267"><ele>1421.0</ele><time>2026-05-03T09:28:46Z</time></trkpt><trkpt lat="41.81119607208722" lon="14.053767134327602"><ele>1421.0</ele><time>2026-05-03T09:28:47Z</time></trkpt><trkpt lat="41.81107484480011" lon="14.053783719528013"><ele>1421.0</ele><time>2026-05-03T09:28:48Z</time></trkpt><trkpt lat="41.8109385675494" lon="14.053802655837744"><ele>1421.0</ele><time>2026-05-03T09:28:49Z</time></trkpt><trkpt lat="41.81079853602758" lon="14.053822113817699"><ele>1421.0</ele><time>2026-05-03T09:28:50Z</time></trkpt><trkpt lat="41.81066433827277" lon="14.053840761170864"><ele>1420.5</ele><time>2026-05-03T09:28:51Z</time></trkpt><trkpt lat="41.8105268373328" lon="14.053859239774129"><ele>1420.0</ele><time>2026-05-03T09:28:52Z</time></trkpt><trkpt lat="41.81039492971065" lon="14.053874696592976"><ele>1419.5</ele><time>2026-05-03T09:28:53Z</time></trkpt><trkpt lat="41.81027802133683" lon="14.053883632649121"><ele>1419.0</ele><time>2026-05-03T09:28:54Z</time></trkpt><trkpt lat="41.81017058207574" lon="14.053890125501848"><ele>1418.0</ele><time>2026-05-03T09:28:55Z</time></trkpt><trkpt lat="41.810043656097676" lon="14.053897795979392"><ele>1417.0</ele><time>2026-05-03T09:28:56Z</time></trkpt><trkpt lat="41.809891437175764" lon="14.053906994957526"><ele>1416.0</ele><time>2026-05-03T09:28:57Z</time></trkpt><trkpt lat="41.80971348862341" lon="14.053825694957917"><ele>1416.0</ele><time>2026-05-03T09:28:58Z</time></trkpt><trkpt lat="41.80956979946733" lon="14.053873913547248"><ele>1416.0</ele><time>2026-05-03T09:28:59Z</time></trkpt><trkpt lat="41.80942957265467" lon="14.053922739291671"><ele>1416.0</ele><time>2026-05-03T09:29:00Z</time></trkpt><trkpt lat="41.80927100795548" lon="14.053963756458645"><ele>1415.3333333333333</ele><time>2026-05-03T09:29:01Z</time></trkpt><trkpt lat="41.80909097996763" lon="14.053986130097966"><ele>1414.6666666666665</ele><time>2026-05-03T09:29:02Z</time></trkpt><trkpt lat="41.80889644734576" lon="14.054005279125382"><ele>1414.0</ele><time>2026-05-03T09:29:03Z</time></trkpt><trkpt lat="41.80872343306479" lon="14.054032068907265"><ele>1414.0</ele><time>2026-05-03T09:29:04Z</time></trkpt><trkpt lat="41.80856027562832" lon="14.054074092557086"><ele>1414.0</ele><time>2026-05-03T09:29:05Z</time></trkpt><trkpt lat="41.80838347604661" lon="14.054121163265707"><ele>1414.0</ele><time>2026-05-03T09:29:06Z</time></trkpt><trkpt lat="41.80819788883776" lon="14.054153757784242"><ele>1414.3333333333333</ele><time>2026-05-03T09:29:07Z</time></trkpt><trkpt lat="41.808005368215795" lon="14.054196405121926"><ele>1414.6666666666667</ele><time>2026-05-03T09:29:08Z</time></trkpt><trkpt lat="41.8077908809457" lon="14.054239376617"><ele>1415.0</ele><time>2026-05-03T09:29:09Z</time></trkpt><trkpt lat="41.807581211669664" lon="14.054286364726867"><ele>1415.0</ele><time>2026-05-03T09:29:10Z</time></trkpt><trkpt lat="41.807406896157424" lon="14.05432752122337"><ele>1415.0</ele><time>2026-05-03T09:29:11Z</time></trkpt><trkpt lat="41.807242226519044" lon="14.054378285576792"><ele>1415.0</ele><time>2026-05-03T09:29:12Z</time></trkpt><trkpt lat="41.80709863830449" lon="14.054424735037749"><ele>1415.0</ele><time>2026-05-03T09:29:13Z</time></trkpt><trkpt lat="41.80693483311858" lon="14.05446823410666"><ele>1415.0</ele><time>2026-05-03T09:29:14Z</time></trkpt><trkpt lat="41.80675069001057" lon="14.054516713808505"><ele>1415.0</ele><time>2026-05-03T09:29:15Z</time></trkpt><trkpt lat="41.80655413407561" lon="14.054557222749915"><ele>1416.25</ele><time>2026-05-03T09:29:16Z</time></trkpt><trkpt lat="41.806389482685915" lon="14.054594496443013"><ele>1417.5</ele><time>2026-05-03T09:29:17Z</time></trkpt><trkpt lat="41.80626345674977" lon="14.054629666756924"><ele>1418.75</ele><time>2026-05-03T09:29:18Z</time></trkpt><trkpt lat="41.8061272646807" lon="14.054619110585481"><ele>1420.0</ele><time>2026-05-03T09:29:19Z</time></trkpt><trkpt lat="41.805975477053785" lon="14.054608477196071"><ele>1420.6666666666665</ele><time>2026-05-03T09:29:20Z</time></trkpt><trkpt lat="41.805811240975494" lon="14.054599103191865"><ele>1421.3333333333333</ele><time>2026-05-03T09:29:21Z</time></trkpt><trkpt lat="41.80565730384638" lon="14.054612965639414"><ele>1422.0</ele><time>2026-05-03T09:29:22Z</time></trkpt><trkpt lat="41.805504833848374" lon="14.05464475942033"><ele>1422.0</ele><time>2026-05-03T09:29:23Z</time></trkpt><trkpt lat="41.80536570987457" lon="14.054671541031874"><ele>1422.0</ele><time>2026-05-03T09:29:24Z</time></trkpt><trkpt lat="41.80522758701046" lon="14.054706628030635"><ele>1422.0</ele><time>2026-05-03T09:29:25Z</time></trkpt><trkpt lat="41.80508737602092" lon="14.054729276771845"><ele>1422.0</ele><time>2026-05-03T09:29:26Z</time></trkpt><trkpt lat="41.804948440368804" lon="14.054742268851188"><ele>1422.0</ele><time>2026-05-03T09:29:27Z</time></trkpt><trkpt lat="41.80481875110861" lon="14.05476187211142"><ele>1422.0</ele><time>2026-05-03T09:29:28Z</time></trkpt><trkpt lat="41.804686338047865" lon="14.054786151412003"><ele>1422.0</ele><time>2026-05-03T09:29:29Z</time></trkpt><trkpt lat="41.80454508983362" lon="14.054803497839167"><ele>1422.0</ele><time>2026-05-03T09:29:30Z</time></trkpt><trkpt lat="41.804413992803454" lon="14.054823690395521"><ele>1422.0</ele><time>2026-05-03T09:29:31Z</time></trkpt><trkpt lat="41.80428203011858" lon="14.05483105724845"><ele>1422.0</ele><time>2026-05-03T09:29:32Z</time></trkpt><trkpt lat="41.80415477533074" lon="14.054876270191974"><ele>1422.0</ele><time>2026-05-03T09:29:33Z</time></trkpt><trkpt lat="41.80404143640785" lon="14.054931154898608"><ele>1422.0</ele><time>2026-05-03T09:29:34Z</time></trkpt><trkpt lat="41.80391480598974" lon="14.054989261356347"><ele>1420.3333333333333</ele><time>2026-05-03T09:29:35Z</time></trkpt><trkpt lat="41.803754130561934" lon="14.055045457853202"><ele>1418.6666666666665</ele><time>2026-05-03T09:29:36Z</time></trkpt><trkpt lat="41.80356300753176" lon="14.055109232813239"><ele>1417.0</ele><time>2026-05-03T09:29:37Z</time></trkpt><trkpt lat="41.803352324278336" lon="14.05517745012845"><ele>1417.0</ele><time>2026-05-03T09:29:38Z</time></trkpt><trkpt lat="41.80312777946844" lon="14.055244430398945"><ele>1417.0</ele><time>2026-05-03T09:29:39Z</time></trkpt><trkpt lat="41.80290355250534" lon="14.055299217764238"><ele>1417.0</ele><time>2026-05-03T09:29:40Z</time></trkpt><trkpt lat="41.80269409033445" lon="14.055367336116197"><ele>1417.0</ele><time>2026-05-03T09:29:41Z</time></trkpt><trkpt lat="41.80251886015504" lon="14.055412051955445"><ele>1417.0</ele><time>2026-05-03T09:29:42Z</time></trkpt><trkpt lat="41.80236801738855" lon="14.055458654525735"><ele>1416.0</ele><time>2026-05-03T09:29:43Z</time></trkpt><trkpt lat="41.80222862764984" lon="14.055489822477002"><ele>1415.0</ele><time>2026-05-03T09:29:44Z</time></trkpt><trkpt lat="41.802100418533485" lon="14.055498146916982"><ele>1414.0</ele><time>2026-05-03T09:29:45Z</time></trkpt><trkpt lat="41.8019774844689" lon="14.055510623035165"><ele>1413.0</ele><time>2026-05-03T09:29:46Z</time></trkpt><trkpt lat="41.80186764085997" lon="14.055521698251582"><ele>1412.0</ele><time>2026-05-03T09:29:47Z</time></trkpt><trkpt lat="41.80175399499386" lon="14.055533849748532"><ele>1411.0</ele><time>2026-05-03T09:29:48Z</time></trkpt><trkpt lat="41.80162599651957" lon="14.05554660337666"><ele>1410.0</ele><time>2026-05-03T09:29:49Z</time></trkpt><trkpt lat="41.80148972949232" lon="14.055565859079625"><ele>1409.0</ele><time>2026-05-03T09:29:50Z</time></trkpt><trkpt lat="41.801345527811634" lon="14.055609909040056"><ele>1409.0</ele><time>2026-05-03T09:29:51Z</time></trkpt><trkpt lat="41.8011875070215" lon="14.055651342280282"><ele>1409.0</ele><time>2026-05-03T09:29:52Z</time></trkpt><trkpt lat="41.80103569494467" lon="14.05571468074707"><ele>1409.0</ele><time>2026-05-03T09:29:53Z</time></trkpt><trkpt lat="41.8008939311687" lon="14.055769439006363"><ele>1409.0</ele><time>2026-05-03T09:29:54Z</time></trkpt><trkpt lat="41.80077688269608" lon="14.055805967842923"><ele>1409.0</ele><time>2026-05-03T09:29:55Z</time></trkpt><trkpt lat="41.80066993266874" lon="14.05582561181723"><ele>1409.0</ele><time>2026-05-03T09:29:56Z</time></trkpt><trkpt lat="41.80058161310198" lon="14.055843899883206"><ele>1409.0</ele><time>2026-05-03T09:29:57Z</time></trkpt><trkpt lat="41.80050248676994" lon="14.055871332843955"><ele>1409.0</ele><time>2026-05-03T09:29:57.999Z</time></trkpt><trkpt lat="41.80041416318966" lon="14.055880330298915"><ele>1409.0</ele><time>2026-05-03T09:29:58.999Z</time></trkpt><trkpt lat="41.800336940923756" lon="14.055891350877895"><ele>1409.0</ele><time>2026-05-03T09:29:59.999Z</time></trkpt><trkpt lat="41.80026753233332" lon="14.055888933650484"><ele>1409.0</ele><time>2026-05-03T09:30:00.999Z</time></trkpt><trkpt lat="41.80018773731109" lon="14.055892554929473"><ele>1409.0</ele><time>2026-05-03T09:30:01.999Z</time></trkpt><trkpt lat="41.80006645138723" lon="14.05593901033203"><ele>1409.0</ele><time>2026-05-03T09:30:03.999Z</time></trkpt><trkpt lat="41.80000842381794" lon="14.055978542374861"><ele>1409.0</ele><time>2026-05-03T09:30:04.999Z</time></trkpt><trkpt lat="41.79993743496287" lon="14.05602690386289"><ele>1409.1666666666667</ele><time>2026-05-03T09:30:05.999Z</time></trkpt><trkpt lat="41.79987959258035" lon="14.056081606304678"><ele>1409.3333333333335</ele><time>2026-05-03T09:30:06.999Z</time></trkpt><trkpt lat="41.799815715524076" lon="14.056135891402517"><ele>1409.5</ele><time>2026-05-03T09:30:07.999Z</time></trkpt><trkpt lat="41.79974788778857" lon="14.0561907799426"><ele>1409.6666666666667</ele><time>2026-05-03T09:30:08.999Z</time></trkpt><trkpt lat="41.79968872305518" lon="14.056267861256874"><ele>1409.8333333333333</ele><time>2026-05-03T09:30:09.999Z</time></trkpt><trkpt lat="41.79962962922194" lon="14.056345513478933"><ele>1410.0</ele><time>2026-05-03T09:30:10.999Z</time></trkpt><trkpt lat="41.799572339601895" lon="14.056424203855624"><ele>1410.0</ele><time>2026-05-03T09:30:11.999Z</time></trkpt><trkpt lat="41.79949678254926" lon="14.056513885974475"><ele>1410.0</ele><time>2026-05-03T09:30:12.999Z</time></trkpt><trkpt lat="41.7993880875693" lon="14.056621361456203"><ele>1410.0</ele><time>2026-05-03T09:30:13.999Z</time></trkpt><trkpt lat="41.7992887580184" lon="14.056715859520832"><ele>1410.0</ele><time>2026-05-03T09:30:14.999Z</time></trkpt><trkpt lat="41.799190408700426" lon="14.056772421531186"><ele>1410.25</ele><time>2026-05-03T09:30:15.999Z</time></trkpt><trkpt lat="41.7990904401413" lon="14.056825864627873"><ele>1410.5</ele><time>2026-05-03T09:30:16.999Z</time></trkpt><trkpt lat="41.79894829460142" lon="14.056882549694027"><ele>1410.75</ele><time>2026-05-03T09:30:17.999Z</time></trkpt><trkpt lat="41.79879634661192" lon="14.05696551203106"><ele>1411.0</ele><time>2026-05-03T09:30:18.999Z</time></trkpt><trkpt lat="41.79867200957538" lon="14.057062244707875"><ele>1411.0</ele><time>2026-05-03T09:30:19.999Z</time></trkpt><trkpt lat="41.798578026211864" lon="14.05715518450654"><ele>1411.0</ele><time>2026-05-03T09:30:20.999Z</time></trkpt><trkpt lat="41.79848125445921" lon="14.057226569392801"><ele>1411.0</ele><time>2026-05-03T09:30:21.999Z</time></trkpt><trkpt lat="41.79833891576733" lon="14.05729393483177"><ele>1411.0</ele><time>2026-05-03T09:30:22.999Z</time></trkpt><trkpt lat="41.798167303236816" lon="14.057342039819252"><ele>1413.0</ele><time>2026-05-03T09:30:23.999Z</time></trkpt><trkpt lat="41.79798299080507" lon="14.057381725750563"><ele>1415.0</ele><time>2026-05-03T09:30:24.999Z</time></trkpt><trkpt lat="41.79779054920411" lon="14.057413053483362"><ele>1417.0</ele><time>2026-05-03T09:30:25.999Z</time></trkpt><trkpt lat="41.79758230167988" lon="14.057433218358533"><ele>1418.0</ele><time>2026-05-03T09:30:26.999Z</time></trkpt><trkpt lat="41.797391747179724" lon="14.057434646280115"><ele>1419.0</ele><time>2026-05-03T09:30:27.999Z</time></trkpt><trkpt lat="41.79721530893509" lon="14.057430222373199"><ele>1420.0</ele><time>2026-05-03T09:30:28.999Z</time></trkpt><trkpt lat="41.79705591812991" lon="14.057430069121342"><ele>1419.0</ele><time>2026-05-03T09:30:29.999Z</time></trkpt><trkpt lat="41.796890370559574" lon="14.057469080702427"><ele>1418.0</ele><time>2026-05-03T09:30:30.999Z</time></trkpt><trkpt lat="41.796711326095206" lon="14.057534626151748"><ele>1417.0</ele><time>2026-05-03T09:30:31.999Z</time></trkpt><trkpt lat="41.796540570114225" lon="14.057586618382123"><ele>1417.0</ele><time>2026-05-03T09:30:32.999Z</time></trkpt><trkpt lat="41.79636598947579" lon="14.057617689658265"><ele>1417.0</ele><time>2026-05-03T09:30:33.999Z</time></trkpt><trkpt lat="41.79620477209562" lon="14.057663921194049"><ele>1417.0</ele><time>2026-05-03T09:30:34.999Z</time></trkpt><trkpt lat="41.796046203077275" lon="14.057703026315338"><ele>1418.25</ele><time>2026-05-03T09:30:36.001Z</time></trkpt><trkpt lat="41.79590903414807" lon="14.057766026544755"><ele>1419.5</ele><time>2026-05-03T09:30:37.001Z</time></trkpt><trkpt lat="41.79578983358091" lon="14.057840416172697"><ele>1420.75</ele><time>2026-05-03T09:30:38.001Z</time></trkpt><trkpt lat="41.79565672623549" lon="14.057917286699125"><ele>1422.0</ele><time>2026-05-03T09:30:39.001Z</time></trkpt><trkpt lat="41.7955386930192" lon="14.057997530424673"><ele>1422.0</ele><time>2026-05-03T09:30:40.001Z</time></trkpt><trkpt lat="41.79544892326158" lon="14.05806874121429"><ele>1422.0</ele><time>2026-05-03T09:30:41.001Z</time></trkpt><trkpt lat="41.795357611800505" lon="14.05813257901645"><ele>1422.0</ele><time>2026-05-03T09:30:42.001Z</time></trkpt><trkpt lat="41.795261526878306" lon="14.058161810223345"><ele>1422.0</ele><time>2026-05-03T09:30:43.001Z</time></trkpt><trkpt lat="41.79514749800296" lon="14.05818416503882"><ele>1422.0</ele><time>2026-05-03T09:30:44.001Z</time></trkpt><trkpt lat="41.795010056769485" lon="14.058201463389846"><ele>1423.3333333333333</ele><time>2026-05-03T09:30:45.001Z</time></trkpt><trkpt lat="41.79485552237536" lon="14.058235159030728"><ele>1424.6666666666665</ele><time>2026-05-03T09:30:46.001Z</time></trkpt><trkpt lat="41.79469411234544" lon="14.058288049608485"><ele>1426.0</ele><time>2026-05-03T09:30:47.001Z</time></trkpt><trkpt lat="41.794559843065656" lon="14.058349289936832"><ele>1426.0</ele><time>2026-05-03T09:30:48.001Z</time></trkpt><trkpt lat="41.79445032466881" lon="14.058406161984655"><ele>1426.0</ele><time>2026-05-03T09:30:49.001Z</time></trkpt><trkpt lat="41.79432558783578" lon="14.058455834042302"><ele>1426.0</ele><time>2026-05-03T09:30:50.001Z</time></trkpt><trkpt lat="41.7941671147202" lon="14.058495456414814"><ele>1426.0</ele><time>2026-05-03T09:30:51.001Z</time></trkpt><trkpt lat="41.79400280222718" lon="14.058550917555486"><ele>1427.0</ele><time>2026-05-03T09:30:52Z</time></trkpt><trkpt lat="41.79384016595962" lon="14.058621477039729"><ele>1428.0</ele><time>2026-05-03T09:30:53Z</time></trkpt><trkpt lat="41.793706579866125" lon="14.058700845044054"><ele>1429.0</ele><time>2026-05-03T09:30:54Z</time></trkpt><trkpt lat="41.79358841039824" lon="14.058753289433778"><ele>1430.0</ele><time>2026-05-03T09:30:55Z</time></trkpt><trkpt lat="41.79347809167129" lon="14.058782815358256"><ele>1432.5</ele><time>2026-05-03T09:30:56Z</time></trkpt><trkpt lat="41.793366770922376" lon="14.058812722926614"><ele>1435.0</ele><time>2026-05-03T09:30:57Z</time></trkpt><trkpt lat="41.79326044784701" lon="14.058870917447685"><ele>1437.5</ele><time>2026-05-03T09:30:58Z</time></trkpt><trkpt lat="41.79314614535499" lon="14.058929923580695"><ele>1440.0</ele><time>2026-05-03T09:30:59Z</time></trkpt><trkpt lat="41.79305212003627" lon="14.058986720198016"><ele>1440.0</ele><time>2026-05-03T09:31:00Z</time></trkpt><trkpt lat="41.7929666037062" lon="14.059046708562628"><ele>1440.0</ele><time>2026-05-03T09:31:01Z</time></trkpt><trkpt lat="41.79287186427009" lon="14.05910771879644"><ele>1440.0</ele><time>2026-05-03T09:31:02Z</time></trkpt><trkpt lat="41.79276269715682" lon="14.0591863400232"><ele>1440.0</ele><time>2026-05-03T09:31:03Z</time></trkpt><trkpt lat="41.79262510875889" lon="14.059267410974764"><ele>1439.75</ele><time>2026-05-03T09:31:04Z</time></trkpt><trkpt lat="41.79251819128156" lon="14.059330604828373"><ele>1439.5</ele><time>2026-05-03T09:31:05Z</time></trkpt><trkpt lat="41.79241819061028" lon="14.059370082776473"><ele>1439.25</ele><time>2026-05-03T09:31:06Z</time></trkpt><trkpt lat="41.79231412944528" lon="14.059413512926898"><ele>1439.0</ele><time>2026-05-03T09:31:07Z</time></trkpt><trkpt lat="41.79219442549247" lon="14.059395318230738"><ele>1439.0</ele><time>2026-05-03T09:31:08Z</time></trkpt><trkpt lat="41.79204749837972" lon="14.059379349271257"><ele>1439.0</ele><time>2026-05-03T09:31:09Z</time></trkpt><trkpt lat="41.7919129549633" lon="14.059370355653195"><ele>1439.0</ele><time>2026-05-03T09:31:10Z</time></trkpt><trkpt lat="41.79176983698581" lon="14.059378677445194"><ele>1439.0</ele><time>2026-05-03T09:31:11Z</time></trkpt><trkpt lat="41.791641088911966" lon="14.059405667163174"><ele>1439.75</ele><time>2026-05-03T09:31:12Z</time></trkpt><trkpt lat="41.79151782735085" lon="14.059445813303185"><ele>1440.5</ele><time>2026-05-03T09:31:13Z</time></trkpt><trkpt lat="41.7913959651992" lon="14.059489328588777"><ele>1441.25</ele><time>2026-05-03T09:31:14Z</time></trkpt><trkpt lat="41.791282738586844" lon="14.059542391884857"><ele>1442.0</ele><time>2026-05-03T09:31:15Z</time></trkpt><trkpt lat="41.79115801393061" lon="14.059589372010226"><ele>1446.0</ele><time>2026-05-03T09:31:16Z</time></trkpt><trkpt lat="41.79099735372507" lon="14.059637633120705"><ele>1450.0</ele><time>2026-05-03T09:31:17Z</time></trkpt><trkpt lat="41.79082570291973" lon="14.059670831223201"><ele>1454.0</ele><time>2026-05-03T09:31:18Z</time></trkpt><trkpt lat="41.79065692990314" lon="14.059705953928319"><ele>1454.0</ele><time>2026-05-03T09:31:19Z</time></trkpt><trkpt lat="41.79052040849001" lon="14.059739195017345"><ele>1454.0</ele><time>2026-05-03T09:31:20Z</time></trkpt><trkpt lat="41.79041629085957" lon="14.0597810722145"><ele>1454.0</ele><time>2026-05-03T09:31:21Z</time></trkpt><trkpt lat="41.79032986418797" lon="14.05982475453242"><ele>1454.0</ele><time>2026-05-03T09:31:22Z</time></trkpt><trkpt lat="41.79026094378018" lon="14.05988113253271"><ele>1454.0</ele><time>2026-05-03T09:31:23Z</time></trkpt><trkpt lat="41.79016927143115" lon="14.059980876049819"><ele>1453.8000000000002</ele><time>2026-05-03T09:31:25Z</time></trkpt><trkpt lat="41.790090026351514" lon="14.060055367854064"><ele>1453.6000000000001</ele><time>2026-05-03T09:31:27Z</time></trkpt><trkpt lat="41.790038651534026" lon="14.060142951426235"><ele>1453.4</ele><time>2026-05-03T09:31:28Z</time></trkpt><trkpt lat="41.78995028808728" lon="14.060224415187914"><ele>1453.2</ele><time>2026-05-03T09:31:29Z</time></trkpt><trkpt lat="41.78982388030183" lon="14.06029876539655"><ele>1453.0</ele><time>2026-05-03T09:31:30Z</time></trkpt><trkpt lat="41.78971524160634" lon="14.060360399358949"><ele>1453.0</ele><time>2026-05-03T09:31:31Z</time></trkpt><trkpt lat="41.789627623753375" lon="14.060409283289225"><ele>1453.0</ele><time>2026-05-03T09:31:32Z</time></trkpt><trkpt lat="41.78953776186671" lon="14.060445894772803"><ele>1453.0</ele><time>2026-05-03T09:31:33Z</time></trkpt><trkpt lat="41.78946608754069" lon="14.060454120614393"><ele>1453.0</ele><time>2026-05-03T09:31:34Z</time></trkpt><trkpt lat="41.78936260910982" lon="14.060442553993363"><ele>1453.0</ele><time>2026-05-03T09:31:36Z</time></trkpt><trkpt lat="41.78928263227098" lon="14.06041000828851"><ele>1453.0</ele><time>2026-05-03T09:31:37Z</time></trkpt><trkpt lat="41.78919264067152" lon="14.060375342587252"><ele>1454.75</ele><time>2026-05-03T09:31:38Z</time></trkpt><trkpt lat="41.789106729636934" lon="14.060392861065399"><ele>1456.5</ele><time>2026-05-03T09:31:39Z</time></trkpt><trkpt lat="41.78898703199775" lon="14.060427639747248"><ele>1458.25</ele><time>2026-05-03T09:31:40Z</time></trkpt><trkpt lat="41.78886089150575" lon="14.060479356800087"><ele>1460.0</ele><time>2026-05-03T09:31:41Z</time></trkpt><trkpt lat="41.78874328603277" lon="14.060526846870232"><ele>1460.0</ele><time>2026-05-03T09:31:42Z</time></trkpt><trkpt lat="41.78866622891394" lon="14.06054820508463"><ele>1460.0</ele><time>2026-05-03T09:31:43Z</time></trkpt><trkpt lat="41.78857399584887" lon="14.060534700118653"><ele>1460.0</ele><time>2026-05-03T09:31:44Z</time></trkpt><trkpt lat="41.788478149543074" lon="14.060492911943332"><ele>1460.0</ele><time>2026-05-03T09:31:45Z</time></trkpt><trkpt lat="41.78839016502349" lon="14.060423838974941"><ele>1460.0</ele><time>2026-05-03T09:31:46Z</time></trkpt><trkpt lat="41.78830295223063" lon="14.060330483395527"><ele>1462.25</ele><time>2026-05-03T09:31:47Z</time></trkpt><trkpt lat="41.788210295809925" lon="14.060204142912369"><ele>1464.5</ele><time>2026-05-03T09:31:48Z</time></trkpt><trkpt lat="41.78812331196151" lon="14.060073362208986"><ele>1466.75</ele><time>2026-05-03T09:31:49Z</time></trkpt><trkpt lat="41.78805637493064" lon="14.059966390966311"><ele>1469.0</ele><time>2026-05-03T09:31:50Z</time></trkpt><trkpt lat="41.78800284557578" lon="14.059831141729935"><ele>1472.5</ele><time>2026-05-03T09:31:51Z</time></trkpt><trkpt lat="41.78796181578169" lon="14.059667081870158"><ele>1476.0</ele><time>2026-05-03T09:31:52Z</time></trkpt><trkpt lat="41.787924111619326" lon="14.05948735748384"><ele>1479.5</ele><time>2026-05-03T09:31:53Z</time></trkpt><trkpt lat="41.78788901240456" lon="14.059314205582679"><ele>1483.0</ele><time>2026-05-03T09:31:54Z</time></trkpt><trkpt lat="41.78787403994522" lon="14.059197969459653"><ele>1484.8333333333333</ele><time>2026-05-03T09:31:55Z</time></trkpt><trkpt lat="41.78785952886378" lon="14.059099069723485"><ele>1486.6666666666665</ele><time>2026-05-03T09:31:56Z</time></trkpt><trkpt lat="41.7878651721027" lon="14.059013007107023"><ele>1488.5</ele><time>2026-05-03T09:31:57Z</time></trkpt><trkpt lat="41.78785982569872" lon="14.058905568546713"><ele>1490.3333333333333</ele><time>2026-05-03T09:31:58Z</time></trkpt><trkpt lat="41.787844307224056" lon="14.05876496799041"><ele>1492.1666666666667</ele><time>2026-05-03T09:32:00Z</time></trkpt><trkpt lat="41.787887440471245" lon="14.058681011521328"><ele>1494.0</ele><time>2026-05-03T09:32:02Z</time></trkpt><trkpt lat="41.787944518884366" lon="14.058545128953924"><ele>1494.0</ele><time>2026-05-03T09:32:03.999Z</time></trkpt><trkpt lat="41.78798931282201" lon="14.058472209101827"><ele>1494.0</ele><time>2026-05-03T09:32:04.999Z</time></trkpt><trkpt lat="41.78805879233152" lon="14.058396887845312"><ele>1494.0</ele><time>2026-05-03T09:32:05.999Z</time></trkpt><trkpt lat="41.78811279526406" lon="14.058297204775036"><ele>1494.0</ele><time>2026-05-03T09:32:06.999Z</time></trkpt><trkpt lat="41.788178146308844" lon="14.058182601133575"><ele>1494.0</ele><time>2026-05-03T09:32:07.999Z</time></trkpt><trkpt lat="41.78823832848327" lon="14.058043410783595"><ele>1495.3333333333333</ele><time>2026-05-03T09:32:08.999Z</time></trkpt><trkpt lat="41.78829187162686" lon="14.057930701323919"><ele>1496.6666666666667</ele><time>2026-05-03T09:32:09.999Z</time></trkpt><trkpt lat="41.7883408607989" lon="14.057850866503887"><ele>1498.0</ele><time>2026-05-03T09:32:10.999Z</time></trkpt><trkpt lat="41.788393367453715" lon="14.057772629170039"><ele>1499.3333333333335</ele><time>2026-05-03T09:32:11.999Z</time></trkpt><trkpt lat="41.78842855828144" lon="14.057674604598336"><ele>1500.6666666666667</ele><time>2026-05-03T09:32:12.999Z</time></trkpt><trkpt lat="41.78842876213671" lon="14.057576173034253"><ele>1502.0</ele><time>2026-05-03T09:32:13.999Z</time></trkpt><trkpt lat="41.788453687902766" lon="14.057468545069046"><ele>1503.1666666666667</ele><time>2026-05-03T09:32:14.999Z</time></trkpt><trkpt lat="41.7884721790765" lon="14.057353259276443"><ele>1504.3333333333335</ele><time>2026-05-03T09:32:15.999Z</time></trkpt><trkpt lat="41.78845653981992" lon="14.057248248639999"><ele>1505.5</ele><time>2026-05-03T09:32:16.999Z</time></trkpt><trkpt lat="41.78845262623739" lon="14.057161892801469"><ele>1506.6666666666667</ele><time>2026-05-03T09:32:17.999Z</time></trkpt><trkpt lat="41.78845203216487" lon="14.057070054672684"><ele>1507.8333333333333</ele><time>2026-05-03T09:32:18.999Z</time></trkpt><trkpt lat="41.78839996193839" lon="14.056953851449714"><ele>1509.0</ele><time>2026-05-03T09:32:19.999Z</time></trkpt><trkpt lat="41.78843217334325" lon="14.056869295787942"><ele>1509.0</ele><time>2026-05-03T09:32:20.999Z</time></trkpt><trkpt lat="41.788451425939165" lon="14.05678007032097"><ele>1509.0</ele><time>2026-05-03T09:32:21.999Z</time></trkpt><trkpt lat="41.78851867982947" lon="14.056668905642889"><ele>1509.0</ele><time>2026-05-03T09:32:22.999Z</time></trkpt><trkpt lat="41.788526552042576" lon="14.056579500372855"><ele>1509.0</ele><time>2026-05-03T09:32:23.999Z</time></trkpt><trkpt lat="41.78858907508806" lon="14.056477491863964"><ele>1509.0</ele><time>2026-05-03T09:32:24.999Z</time></trkpt><trkpt lat="41.78862600022351" lon="14.056318999812284"><ele>1509.0</ele><time>2026-05-03T09:32:26.999Z</time></trkpt><trkpt lat="41.78867384919873" lon="14.056173679138935"><ele>1509.0</ele><time>2026-05-03T09:32:28.999Z</time></trkpt><trkpt lat="41.78878289084121" lon="14.056106697243624"><ele>1509.0</ele><time>2026-05-03T09:32:30.999Z</time></trkpt><trkpt lat="41.78885492283608" lon="14.056045997145556"><ele>1509.0</ele><time>2026-05-03T09:32:31.999Z</time></trkpt><trkpt lat="41.78894989670676" lon="14.056004446175029"><ele>1509.0</ele><time>2026-05-03T09:32:32.999Z</time></trkpt><trkpt lat="41.78900022368943" lon="14.055942879045675"><ele>1509.0</ele><time>2026-05-03T09:32:33.999Z</time></trkpt><trkpt lat="41.78905481256871" lon="14.055809307721631"><ele>1509.0</ele><time>2026-05-03T09:32:35.999Z</time></trkpt><trkpt lat="41.78901591144244" lon="14.055669154439741"><ele>1509.0</ele><time>2026-05-03T09:32:37.999Z</time></trkpt><trkpt lat="41.788935758968975" lon="14.055589712516074"><ele>1509.0</ele><time>2026-05-03T09:32:39.999Z</time></trkpt><trkpt lat="41.7888536817008" lon="14.055585213651181"><ele>1509.0</ele><time>2026-05-03T09:32:40.999Z</time></trkpt><trkpt lat="41.78875847155172" lon="14.055601280657404"><ele>1510.2</ele><time>2026-05-03T09:32:42.001Z</time></trkpt><trkpt lat="41.78865884601128" lon="14.055600579670097"><ele>1511.4</ele><time>2026-05-03T09:32:43.001Z</time></trkpt><trkpt lat="41.788570244078514" lon="14.055582268896673"><ele>1512.6</ele><time>2026-05-03T09:32:44.001Z</time></trkpt><trkpt lat="41.78850258469825" lon="14.055567987722501"><ele>1513.8</ele><time>2026-05-03T09:32:45.001Z</time></trkpt><trkpt lat="41.788449524049334" lon="14.055514379461808"><ele>1515.0</ele><time>2026-05-03T09:32:46.001Z</time></trkpt><trkpt lat="41.7884072425214" lon="14.055343181284298"><ele>1515.0</ele><time>2026-05-03T09:32:48.001Z</time></trkpt><trkpt lat="41.788376792033546" lon="14.055255611903558"><ele>1515.0</ele><time>2026-05-03T09:32:49.001Z</time></trkpt><trkpt lat="41.78831848278069" lon="14.055179322503394"><ele>1515.0</ele><time>2026-05-03T09:32:50.001Z</time></trkpt><trkpt lat="41.788276008344184" lon="14.055100698721834"><ele>1515.0</ele><time>2026-05-03T09:32:51.001Z</time></trkpt><trkpt lat="41.78822896561287" lon="14.055014152824729"><ele>1515.0</ele><time>2026-05-03T09:32:52.001Z</time></trkpt><trkpt lat="41.78814303687084" lon="14.054853626207333"><ele>1516.6</ele><time>2026-05-03T09:32:53.001Z</time></trkpt><trkpt lat="41.78805857960315" lon="14.054753667363874"><ele>1518.2</ele><time>2026-05-03T09:32:54.001Z</time></trkpt><trkpt lat="41.78799813225323" lon="14.05467803446368"><ele>1519.8000000000002</ele><time>2026-05-03T09:32:55.001Z</time></trkpt><trkpt lat="41.78790858153332" lon="14.054590398516252"><ele>1521.4</ele><time>2026-05-03T09:32:56.001Z</time></trkpt><trkpt lat="41.787827470689805" lon="14.054516491553189"><ele>1523.0</ele><time>2026-05-03T09:32:57Z</time></trkpt><trkpt lat="41.78773579371898" lon="14.05444858339984"><ele>1523.5</ele><time>2026-05-03T09:32:58Z</time></trkpt><trkpt lat="41.7876592789836" lon="14.054427175319615"><ele>1524.0</ele><time>2026-05-03T09:32:59Z</time></trkpt><trkpt lat="41.787605547083416" lon="14.05437107941465"><ele>1524.5</ele><time>2026-05-03T09:33:00Z</time></trkpt><trkpt lat="41.78753400199496" lon="14.054333230112134"><ele>1525.0</ele><time>2026-05-03T09:33:01Z</time></trkpt><trkpt lat="41.78744378244836" lon="14.054230922979501"><ele>1525.5</ele><time>2026-05-03T09:33:03Z</time></trkpt><trkpt lat="41.787398744771465" lon="14.054149779552137"><ele>1526.0</ele><time>2026-05-03T09:33:04Z</time></trkpt><trkpt lat="41.78734324852157" lon="14.054088836131019"><ele>1527.8</ele><time>2026-05-03T09:33:05Z</time></trkpt><trkpt lat="41.78729923550499" lon="14.05399902680165"><ele>1529.6</ele><time>2026-05-03T09:33:06Z</time></trkpt><trkpt lat="41.78726767247019" lon="14.053923637919247"><ele>1531.4</ele><time>2026-05-03T09:33:07Z</time></trkpt><trkpt lat="41.78723626516024" lon="14.053797265381379"><ele>1533.2</ele><time>2026-05-03T09:33:08Z</time></trkpt><trkpt lat="41.787176167514836" lon="14.053668449003613"><ele>1535.0</ele><time>2026-05-03T09:33:09Z</time></trkpt><trkpt lat="41.78711072148461" lon="14.053581054492103"><ele>1535.0</ele><time>2026-05-03T09:33:10Z</time></trkpt><trkpt lat="41.78701499982544" lon="14.053508201630423"><ele>1535.0</ele><time>2026-05-03T09:33:11Z</time></trkpt><trkpt lat="41.786911503524806" lon="14.053408429738754"><ele>1535.0</ele><time>2026-05-03T09:33:12Z</time></trkpt><trkpt lat="41.78681502703798" lon="14.053271797908797"><ele>1535.0</ele><time>2026-05-03T09:33:13Z</time></trkpt><trkpt lat="41.78672315851499" lon="14.053181097674264"><ele>1536.3333333333335</ele><time>2026-05-03T09:33:14Z</time></trkpt><trkpt lat="41.78664187736037" lon="14.053090828489028"><ele>1537.6666666666667</ele><time>2026-05-03T09:33:15Z</time></trkpt><trkpt lat="41.786575446003766" lon="14.053008686488647"><ele>1539.0</ele><time>2026-05-03T09:33:16Z</time></trkpt><trkpt lat="41.7865155163517" lon="14.052950717456667"><ele>1540.3333333333335</ele><time>2026-05-03T09:33:17Z</time></trkpt><trkpt lat="41.78644325186248" lon="14.052918093826754"><ele>1541.6666666666667</ele><time>2026-05-03T09:33:18Z</time></trkpt><trkpt lat="41.786387112299714" lon="14.052864833355383"><ele>1543.0</ele><time>2026-05-03T09:33:19Z</time></trkpt><trkpt lat="41.78633254078696" lon="14.052753177659875"><ele>1543.0</ele><time>2026-05-03T09:33:21Z</time></trkpt><trkpt lat="41.78623627441497" lon="14.052614026392781"><ele>1543.0</ele><time>2026-05-03T09:33:23Z</time></trkpt><trkpt lat="41.7861415821386" lon="14.052514379235062"><ele>1543.0</ele><time>2026-05-03T09:33:24Z</time></trkpt><trkpt lat="41.78606110061337" lon="14.05238861938623"><ele>1543.0</ele><time>2026-05-03T09:33:25Z</time></trkpt><trkpt lat="41.78600133734783" lon="14.052258487103341"><ele>1545.4</ele><time>2026-05-03T09:33:26Z</time></trkpt><trkpt lat="41.78594475668059" lon="14.052136686408652"><ele>1547.8000000000002</ele><time>2026-05-03T09:33:27Z</time></trkpt><trkpt lat="41.785884050703864" lon="14.052047305219023"><ele>1550.2</ele><time>2026-05-03T09:33:28Z</time></trkpt><trkpt lat="41.78583333928758" lon="14.051940487299143"><ele>1552.6</ele><time>2026-05-03T09:33:29Z</time></trkpt><trkpt lat="41.785788911249085" lon="14.05183924805594"><ele>1555.0</ele><time>2026-05-03T09:33:30Z</time></trkpt><trkpt lat="41.78574172297648" lon="14.051733671010128"><ele>1555.0000000000002</ele><time>2026-05-03T09:33:31Z</time></trkpt><trkpt lat="41.78573855095303" lon="14.051639076766309"><ele>1555.0</ele><time>2026-05-03T09:33:32Z</time></trkpt><trkpt lat="41.78568827686492" lon="14.051550185557943"><ele>1555.0</ele><time>2026-05-03T09:33:33Z</time></trkpt><trkpt lat="41.785624300239355" lon="14.051485488201898"><ele>1555.0</ele><time>2026-05-03T09:33:34Z</time></trkpt><trkpt lat="41.78553452497758" lon="14.05144082703485"><ele>1555.0000000000002</ele><time>2026-05-03T09:33:35Z</time></trkpt><trkpt lat="41.78546683534761" lon="14.051397284194918"><ele>1555.0</ele><time>2026-05-03T09:33:36Z</time></trkpt><trkpt lat="41.78539523724168" lon="14.051351334041179"><ele>1557.2</ele><time>2026-05-03T09:33:37Z</time></trkpt><trkpt lat="41.785317002656114" lon="14.05132720298105"><ele>1559.4</ele><time>2026-05-03T09:33:38Z</time></trkpt><trkpt lat="41.7852416282447" lon="14.051293598329519"><ele>1561.6</ele><time>2026-05-03T09:33:39Z</time></trkpt><trkpt lat="41.785161073780195" lon="14.05121835044529"><ele>1563.8</ele><time>2026-05-03T09:33:40Z</time></trkpt><trkpt lat="41.785087034661075" lon="14.051162559825162"><ele>1566.0</ele><time>2026-05-03T09:33:41Z</time></trkpt><trkpt lat="41.78496508779925" lon="14.051045610390386"><ele>1566.6</ele><time>2026-05-03T09:33:42Z</time></trkpt><trkpt lat="41.78488532100569" lon="14.051033367906907"><ele>1567.1999999999998</ele><time>2026-05-03T09:33:43Z</time></trkpt><trkpt lat="41.78481228593013" lon="14.050988364133408"><ele>1567.8000000000002</ele><time>2026-05-03T09:33:44Z</time></trkpt><trkpt lat="41.784723943216314" lon="14.050936077584687"><ele>1568.4</ele><time>2026-05-03T09:33:45Z</time></trkpt><trkpt lat="41.78464394039676" lon="14.050879476574272"><ele>1569.0</ele><time>2026-05-03T09:33:46Z</time></trkpt><trkpt lat="41.78457808009312" lon="14.050771008960767"><ele>1573.6666666666665</ele><time>2026-05-03T09:33:47Z</time></trkpt><trkpt lat="41.784479906908786" lon="14.050636265026151"><ele>1578.3333333333333</ele><time>2026-05-03T09:33:48Z</time></trkpt><trkpt lat="41.7843709549726" lon="14.05045927520593"><ele>1583.0</ele><time>2026-05-03T09:33:49Z</time></trkpt><trkpt lat="41.7842801101864" lon="14.050301566174157"><ele>1583.0</ele><time>2026-05-03T09:33:50Z</time></trkpt><trkpt lat="41.78421114422972" lon="14.050194198249077"><ele>1583.0</ele><time>2026-05-03T09:33:51Z</time></trkpt><trkpt lat="41.78415189714724" lon="14.050107879647431"><ele>1583.0</ele><time>2026-05-03T09:33:52Z</time></trkpt><trkpt lat="41.784123871512605" lon="14.050029173551259"><ele>1583.0</ele><time>2026-05-03T09:33:53Z</time></trkpt><trkpt lat="41.78403094886742" lon="14.049971514117845"><ele>1583.0</ele><time>2026-05-03T09:33:55Z</time></trkpt><trkpt lat="41.78392880583927" lon="14.049945455427777"><ele>1586.4</ele><time>2026-05-03T09:33:56Z</time></trkpt><trkpt lat="41.78386410031015" lon="14.049945806191966"><ele>1589.8000000000002</ele><time>2026-05-03T09:33:57Z</time></trkpt><trkpt lat="41.78377158642572" lon="14.049945573102884"><ele>1593.2</ele><time>2026-05-03T09:33:57.999Z</time></trkpt><trkpt lat="41.78366973731591" lon="14.04995318942015"><ele>1596.6</ele><time>2026-05-03T09:33:58.999Z</time></trkpt><trkpt lat="41.78356893700316" lon="14.049944389221027"><ele>1600.0</ele><time>2026-05-03T09:33:59.999Z</time></trkpt><trkpt lat="41.783441597944815" lon="14.049871371347022"><ele>1600.8</ele><time>2026-05-03T09:34:01.999Z</time></trkpt><trkpt lat="41.78334753012123" lon="14.049805824511317"><ele>1601.6</ele><time>2026-05-03T09:34:03.999Z</time></trkpt><trkpt lat="41.78321696321052" lon="14.049804197067292"><ele>1602.4</ele><time>2026-05-03T09:34:05.999Z</time></trkpt><trkpt lat="41.78312782656625" lon="14.049789728731513"><ele>1603.2</ele><time>2026-05-03T09:34:06.999Z</time></trkpt><trkpt lat="41.78306160925206" lon="14.049793985445662"><ele>1604.0</ele><time>2026-05-03T09:34:07.999Z</time></trkpt><trkpt lat="41.78312810420898" lon="14.049766743860992"><ele>1603.9999999999998</ele><time>2026-05-03T09:35:04Z</time></trkpt><trkpt lat="41.78318788398873" lon="14.04971789477383"><ele>1604.0</ele><time>2026-05-03T09:35:05Z</time></trkpt><trkpt lat="41.78325658802716" lon="14.049633017486348"><ele>1604.0</ele><time>2026-05-03T09:35:07Z</time></trkpt><trkpt lat="41.78330927265797" lon="14.049578231044302"><ele>1604.0</ele><time>2026-05-03T09:35:09Z</time></trkpt><trkpt lat="41.783377057540946" lon="14.049545522072727"><ele>1603.9999999999998</ele><time>2026-05-03T09:35:11Z</time></trkpt><trkpt lat="41.783431783710476" lon="14.049495666758695"><ele>1604.0</ele><time>2026-05-03T09:35:13Z</time></trkpt><trkpt lat="41.783515122314626" lon="14.049468725960084"><ele>1603.3333333333333</ele><time>2026-05-03T09:35:15Z</time></trkpt><trkpt lat="41.78360153387354" lon="14.0494783679969"><ele>1602.6666666666665</ele><time>2026-05-03T09:35:18Z</time></trkpt><trkpt lat="41.78366799035126" lon="14.049554636544206"><ele>1602.0</ele><time>2026-05-03T09:35:20Z</time></trkpt><trkpt lat="41.783642785834544" lon="14.049663124192175"><ele>1601.3333333333335</ele><time>2026-05-03T09:35:23Z</time></trkpt><trkpt lat="41.78360329251083" lon="14.049747779265555"><ele>1600.6666666666667</ele><time>2026-05-03T09:35:25Z</time></trkpt><trkpt lat="41.78357851170858" lon="14.0498495107866"><ele>1600.0</ele><time>2026-05-03T09:35:27Z</time></trkpt><trkpt lat="41.78358622734034" lon="14.049936918878528"><ele>1598.6666666666667</ele><time>2026-05-03T09:35:30Z</time></trkpt><trkpt lat="41.78349733155587" lon="14.049960299734149"><ele>1597.3333333333335</ele><time>2026-05-03T09:37:13Z</time></trkpt><trkpt lat="41.783239284024184" lon="14.049881036619073"><ele>1596.0</ele><time>2026-05-03T09:37:22Z</time></trkpt><trkpt lat="41.78314417296969" lon="14.049874702429806"><ele>1597.3333333333333</ele><time>2026-05-03T09:37:23Z</time></trkpt><trkpt lat="41.78305913955039" lon="14.049824576169762"><ele>1598.6666666666665</ele><time>2026-05-03T09:37:24Z</time></trkpt><trkpt lat="41.782981751373555" lon="14.049832747738531"><ele>1600.0</ele><time>2026-05-03T09:37:25Z</time></trkpt><trkpt lat="41.782914029164175" lon="14.049822481194935"><ele>1601.3333333333333</ele><time>2026-05-03T09:37:26Z</time></trkpt><trkpt lat="41.78281332045597" lon="14.049840360685732"><ele>1602.6666666666665</ele><time>2026-05-03T09:37:28Z</time></trkpt><trkpt lat="41.78275600458792" lon="14.04989440175518"><ele>1604.0</ele><time>2026-05-03T09:37:29Z</time></trkpt><trkpt lat="41.78268700591173" lon="14.049908367821375"><ele>1605.9999999999998</ele><time>2026-05-03T09:37:30Z</time></trkpt><trkpt lat="41.78257153530391" lon="14.049946302439988"><ele>1608.0</ele><time>2026-05-03T09:37:31Z</time></trkpt><trkpt lat="41.782489165548036" lon="14.050005598211037"><ele>1610.0</ele><time>2026-05-03T09:37:32Z</time></trkpt><trkpt lat="41.78242103735469" lon="14.050039082464755"><ele>1612.0</ele><time>2026-05-03T09:37:33Z</time></trkpt><trkpt lat="41.78235361107589" lon="14.050075121127978"><ele>1613.9999999999998</ele><time>2026-05-03T09:37:34Z</time></trkpt><trkpt lat="41.782285545090744" lon="14.050116362116887"><ele>1616.0</ele><time>2026-05-03T09:37:35Z</time></trkpt><trkpt lat="41.78221066945825" lon="14.0501799879915"><ele>1616.0</ele><time>2026-05-03T09:37:36Z</time></trkpt><trkpt lat="41.78214854157685" lon="14.050241528175693"><ele>1616.0</ele><time>2026-05-03T09:37:37Z</time></trkpt><trkpt lat="41.78206295592004" lon="14.050325753662346"><ele>1616.0</ele><time>2026-05-03T09:37:38Z</time></trkpt><trkpt lat="41.782003293443644" lon="14.050405026412491"><ele>1616.0</ele><time>2026-05-03T09:37:39Z</time></trkpt><trkpt lat="41.78192463645607" lon="14.050472784139274"><ele>1616.0</ele><time>2026-05-03T09:37:40Z</time></trkpt><trkpt lat="41.78181061007645" lon="14.050536782620878"><ele>1639.0</ele><time>2026-05-03T09:37:41Z</time></trkpt><trkpt lat="41.781694263176256" lon="14.050529027098092"><ele>1639.0</ele><time>2026-05-03T09:37:42Z</time></trkpt><trkpt lat="41.78162294209726" lon="14.05055162713965"><ele>1639.0</ele><time>2026-05-03T09:37:44Z</time></trkpt><trkpt lat="41.781619933671614" lon="14.050426536784327"><ele>1639.0</ele><time>2026-05-03T09:37:47Z</time></trkpt></trkseg></trk></gpx>